<?xml version="1.0" encoding="UTF-8" standalone="no" ?>
<gpx xmlns="http://www.topografix.com/GPX/1/1" xmlns:xsi="http://www.w3.org/2001/XMLSchema-instance" xsi:schemaLocation="http://www.topografix.com/GPX/1/1 http://www.topografix.com/GPX/1/1/gpx.xsd" version="1.1" creator="VisuGPX - https://www.visugpx.com">
  <metadata>
    <name>140910ROBMinots</name>
    <desc><![CDATA[Premiere sortie pour cette annee]]></desc>
  </metadata>
  <trk>
    <name><![CDATA[140910ROBMinots]]></name>
    <trkseg>
      <trkpt lat="43.41474" lon="6.07077">
        <ele>215.28448486328</ele>
        <time>2014-09-10T12:35:23Z</time>
      </trkpt>
      <trkpt lat="43.41474" lon="6.07077">
        <ele>215.28448486328</ele>
        <time>2014-09-10T12:35:24Z</time>
      </trkpt>
      <trkpt lat="43.41474" lon="6.07076">
        <ele>215.32397460938</ele>
        <time>2014-09-10T12:35:27Z</time>
      </trkpt>
      <trkpt lat="43.41473" lon="6.07076">
        <ele>215.3171081543</ele>
        <time>2014-09-10T12:35:28Z</time>
      </trkpt>
      <trkpt lat="43.41473" lon="6.07076">
        <ele>215.3171081543</ele>
        <time>2014-09-10T12:35:29Z</time>
      </trkpt>
      <trkpt lat="43.41471" lon="6.07075">
        <ele>215.30087280273</ele>
        <time>2014-09-10T12:35:30Z</time>
      </trkpt>
      <trkpt lat="43.41468" lon="6.07068">
        <ele>215.5514831543</ele>
        <time>2014-09-10T12:35:33Z</time>
      </trkpt>
      <trkpt lat="43.41467" lon="6.07066">
        <ele>215.63732910156</ele>
        <time>2014-09-10T12:35:34Z</time>
      </trkpt>
      <trkpt lat="43.4147" lon="6.07059">
        <ele>215.88793945312</ele>
        <time>2014-09-10T12:35:37Z</time>
      </trkpt>
      <trkpt lat="43.41472" lon="6.07051">
        <ele>216</ele>
        <time>2014-09-10T12:35:40Z</time>
      </trkpt>
      <trkpt lat="43.41475" lon="6.07043">
        <ele>216.11065673828</ele>
        <time>2014-09-10T12:35:42Z</time>
      </trkpt>
      <trkpt lat="43.41482" lon="6.07028">
        <ele>216.35784912109</ele>
        <time>2014-09-10T12:35:45Z</time>
      </trkpt>
      <trkpt lat="43.41485" lon="6.0702">
        <ele>216.61224365234</ele>
        <time>2014-09-10T12:35:47Z</time>
      </trkpt>
      <trkpt lat="43.41492" lon="6.07">
        <ele>217</ele>
        <time>2014-09-10T12:35:52Z</time>
      </trkpt>
      <trkpt lat="43.41493" lon="6.06988">
        <ele>217</ele>
        <time>2014-09-10T12:35:55Z</time>
      </trkpt>
      <trkpt lat="43.41488" lon="6.06969">
        <ele>217.05590820312</ele>
        <time>2014-09-10T12:36:00Z</time>
      </trkpt>
      <trkpt lat="43.41487" lon="6.06965">
        <ele>217.11972045898</ele>
        <time>2014-09-10T12:36:01Z</time>
      </trkpt>
      <trkpt lat="43.41477" lon="6.06946">
        <ele>217.76652526856</ele>
        <time>2014-09-10T12:36:07Z</time>
      </trkpt>
      <trkpt lat="43.41468" lon="6.06925">
        <ele>218</ele>
        <time>2014-09-10T12:36:13Z</time>
      </trkpt>
      <trkpt lat="43.41473" lon="6.06913">
        <ele>217.96356201172</ele>
        <time>2014-09-10T12:36:16Z</time>
      </trkpt>
      <trkpt lat="43.41477" lon="6.06903">
        <ele>217.91429138184</ele>
        <time>2014-09-10T12:36:20Z</time>
      </trkpt>
      <trkpt lat="43.41478" lon="6.06899">
        <ele>217.92456054688</ele>
        <time>2014-09-10T12:36:25Z</time>
      </trkpt>
      <trkpt lat="43.41476" lon="6.06894">
        <ele>217.97511291504</ele>
        <time>2014-09-10T12:36:31Z</time>
      </trkpt>
      <trkpt lat="43.41476" lon="6.06878">
        <ele>218.34136962891</ele>
        <time>2014-09-10T12:36:36Z</time>
      </trkpt>
      <trkpt lat="43.41477" lon="6.06874">
        <ele>218.42893981934</ele>
        <time>2014-09-10T12:36:37Z</time>
      </trkpt>
      <trkpt lat="43.41476" lon="6.06871">
        <ele>218.54229736328</ele>
        <time>2014-09-10T12:36:38Z</time>
      </trkpt>
      <trkpt lat="43.41475" lon="6.06865">
        <ele>218.80339050293</ele>
        <time>2014-09-10T12:36:40Z</time>
      </trkpt>
      <trkpt lat="43.41476" lon="6.06845">
        <ele>219.45227050781</ele>
        <time>2014-09-10T12:36:44Z</time>
      </trkpt>
      <trkpt lat="43.41483" lon="6.0682">
        <ele>219.61468505859</ele>
        <time>2014-09-10T12:36:49Z</time>
      </trkpt>
      <trkpt lat="43.41492" lon="6.06791">
        <ele>219.298828125</ele>
        <time>2014-09-10T12:36:55Z</time>
      </trkpt>
      <trkpt lat="43.41495" lon="6.06769">
        <ele>219.43441772461</ele>
        <time>2014-09-10T12:36:59Z</time>
      </trkpt>
      <trkpt lat="43.41496" lon="6.06764">
        <ele>219.57099914551</ele>
        <time>2014-09-10T12:37:00Z</time>
      </trkpt>
      <trkpt lat="43.41497" lon="6.06759">
        <ele>219.7278137207</ele>
        <time>2014-09-10T12:37:01Z</time>
      </trkpt>
      <trkpt lat="43.41497" lon="6.06753">
        <ele>219.89533996582</ele>
        <time>2014-09-10T12:37:02Z</time>
      </trkpt>
      <trkpt lat="43.41498" lon="6.06743">
        <ele>219.75009155273</ele>
        <time>2014-09-10T12:37:04Z</time>
      </trkpt>
      <trkpt lat="43.415" lon="6.06713">
        <ele>219.01043701172</ele>
        <time>2014-09-10T12:37:10Z</time>
      </trkpt>
      <trkpt lat="43.41501" lon="6.06677">
        <ele>219</ele>
        <time>2014-09-10T12:37:17Z</time>
      </trkpt>
      <trkpt lat="43.41502" lon="6.06672">
        <ele>219</ele>
        <time>2014-09-10T12:37:18Z</time>
      </trkpt>
      <trkpt lat="43.41504" lon="6.06653">
        <ele>219</ele>
        <time>2014-09-10T12:37:22Z</time>
      </trkpt>
      <trkpt lat="43.41506" lon="6.06644">
        <ele>219</ele>
        <time>2014-09-10T12:37:24Z</time>
      </trkpt>
      <trkpt lat="43.41508" lon="6.06634">
        <ele>219</ele>
        <time>2014-09-10T12:37:26Z</time>
      </trkpt>
      <trkpt lat="43.41513" lon="6.06611">
        <ele>219.0050201416</ele>
        <time>2014-09-10T12:37:31Z</time>
      </trkpt>
      <trkpt lat="43.41516" lon="6.06579">
        <ele>219.64747619629</ele>
        <time>2014-09-10T12:37:37Z</time>
      </trkpt>
      <trkpt lat="43.41523" lon="6.06538">
        <ele>220</ele>
        <time>2014-09-10T12:37:45Z</time>
      </trkpt>
      <trkpt lat="43.41531" lon="6.06506">
        <ele>220</ele>
        <time>2014-09-10T12:37:52Z</time>
      </trkpt>
      <trkpt lat="43.41543" lon="6.06485">
        <ele>220</ele>
        <time>2014-09-10T12:37:58Z</time>
      </trkpt>
      <trkpt lat="43.41545" lon="6.06481">
        <ele>220</ele>
        <time>2014-09-10T12:37:59Z</time>
      </trkpt>
      <trkpt lat="43.41546" lon="6.06477">
        <ele>220</ele>
        <time>2014-09-10T12:38:00Z</time>
      </trkpt>
      <trkpt lat="43.41547" lon="6.06472">
        <ele>220</ele>
        <time>2014-09-10T12:38:01Z</time>
      </trkpt>
      <trkpt lat="43.41548" lon="6.06467">
        <ele>220</ele>
        <time>2014-09-10T12:38:02Z</time>
      </trkpt>
      <trkpt lat="43.41548" lon="6.06462">
        <ele>220</ele>
        <time>2014-09-10T12:38:03Z</time>
      </trkpt>
      <trkpt lat="43.41546" lon="6.0644">
        <ele>220</ele>
        <time>2014-09-10T12:38:07Z</time>
      </trkpt>
      <trkpt lat="43.4155" lon="6.06419">
        <ele>220</ele>
        <time>2014-09-10T12:38:11Z</time>
      </trkpt>
      <trkpt lat="43.41552" lon="6.06407">
        <ele>220</ele>
        <time>2014-09-10T12:38:13Z</time>
      </trkpt>
      <trkpt lat="43.41554" lon="6.06395">
        <ele>220</ele>
        <time>2014-09-10T12:38:15Z</time>
      </trkpt>
      <trkpt lat="43.41557" lon="6.06383">
        <ele>220.2039642334</ele>
        <time>2014-09-10T12:38:17Z</time>
      </trkpt>
      <trkpt lat="43.41558" lon="6.06377">
        <ele>220.44880676269</ele>
        <time>2014-09-10T12:38:18Z</time>
      </trkpt>
      <trkpt lat="43.4156" lon="6.06365">
        <ele>220.9962310791</ele>
        <time>2014-09-10T12:38:20Z</time>
      </trkpt>
      <trkpt lat="43.41562" lon="6.0636">
        <ele>221.22802734375</ele>
        <time>2014-09-10T12:38:21Z</time>
      </trkpt>
      <trkpt lat="43.41569" lon="6.06344">
        <ele>221.47521972656</ele>
        <time>2014-09-10T12:38:24Z</time>
      </trkpt>
      <trkpt lat="43.41571" lon="6.06339">
        <ele>221.57135009766</ele>
        <time>2014-09-10T12:38:25Z</time>
      </trkpt>
      <trkpt lat="43.41578" lon="6.0633">
        <ele>221.91232299805</ele>
        <time>2014-09-10T12:38:27Z</time>
      </trkpt>
      <trkpt lat="43.41581" lon="6.06326">
        <ele>222.18182373047</ele>
        <time>2014-09-10T12:38:28Z</time>
      </trkpt>
      <trkpt lat="43.41588" lon="6.0631">
        <ele>223.47079467773</ele>
        <time>2014-09-10T12:38:31Z</time>
      </trkpt>
      <trkpt lat="43.41589" lon="6.06305">
        <ele>223.82878112793</ele>
        <time>2014-09-10T12:38:32Z</time>
      </trkpt>
      <trkpt lat="43.41589" lon="6.06299">
        <ele>224.04208374023</ele>
        <time>2014-09-10T12:38:33Z</time>
      </trkpt>
      <trkpt lat="43.41589" lon="6.06295">
        <ele>224.17518615723</ele>
        <time>2014-09-10T12:38:34Z</time>
      </trkpt>
      <trkpt lat="43.41589" lon="6.0629">
        <ele>224.2501373291</ele>
        <time>2014-09-10T12:38:35Z</time>
      </trkpt>
      <trkpt lat="43.41588" lon="6.06282">
        <ele>224.35545349121</ele>
        <time>2014-09-10T12:38:37Z</time>
      </trkpt>
      <trkpt lat="43.41587" lon="6.06276">
        <ele>224.4333190918</ele>
        <time>2014-09-10T12:38:39Z</time>
      </trkpt>
      <trkpt lat="43.41588" lon="6.0627">
        <ele>224.771484375</ele>
        <time>2014-09-10T12:38:41Z</time>
      </trkpt>
      <trkpt lat="43.4159" lon="6.06268">
        <ele>225.0478515625</ele>
        <time>2014-09-10T12:38:42Z</time>
      </trkpt>
      <trkpt lat="43.41593" lon="6.06264">
        <ele>225.56283569336</ele>
        <time>2014-09-10T12:38:44Z</time>
      </trkpt>
      <trkpt lat="43.41595" lon="6.06262">
        <ele>225.83749389648</ele>
        <time>2014-09-10T12:38:45Z</time>
      </trkpt>
      <trkpt lat="43.41599" lon="6.06259">
        <ele>226.39883422852</ele>
        <time>2014-09-10T12:38:47Z</time>
      </trkpt>
      <trkpt lat="43.41603" lon="6.06258">
        <ele>226.80052185059</ele>
        <time>2014-09-10T12:38:49Z</time>
      </trkpt>
      <trkpt lat="43.41605" lon="6.06257">
        <ele>227.07174682617</ele>
        <time>2014-09-10T12:38:54Z</time>
      </trkpt>
      <trkpt lat="43.41606" lon="6.06258">
        <ele>227.15071105957</ele>
        <time>2014-09-10T12:39:00Z</time>
      </trkpt>
      <trkpt lat="43.41606" lon="6.06258">
        <ele>227.15071105957</ele>
        <time>2014-09-10T12:39:04Z</time>
      </trkpt>
      <trkpt lat="43.41605" lon="6.06257">
        <ele>227.10437011719</ele>
        <time>2014-09-10T12:39:07Z</time>
      </trkpt>
      <trkpt lat="43.41605" lon="6.06256">
        <ele>227.13525390625</ele>
        <time>2014-09-10T12:39:13Z</time>
      </trkpt>
      <trkpt lat="43.41604" lon="6.06249">
        <ele>227.22625732422</ele>
        <time>2014-09-10T12:39:15Z</time>
      </trkpt>
      <trkpt lat="43.41607" lon="6.06231">
        <ele>227.65007019043</ele>
        <time>2014-09-10T12:39:19Z</time>
      </trkpt>
      <trkpt lat="43.41608" lon="6.06226">
        <ele>227.73310852051</ele>
        <time>2014-09-10T12:39:20Z</time>
      </trkpt>
      <trkpt lat="43.41607" lon="6.06216">
        <ele>227.93127441406</ele>
        <time>2014-09-10T12:39:23Z</time>
      </trkpt>
      <trkpt lat="43.41607" lon="6.06213">
        <ele>228.01194763184</ele>
        <time>2014-09-10T12:39:24Z</time>
      </trkpt>
      <trkpt lat="43.41607" lon="6.06207">
        <ele>228.2282409668</ele>
        <time>2014-09-10T12:39:26Z</time>
      </trkpt>
      <trkpt lat="43.41601" lon="6.06194">
        <ele>228.29479980469</ele>
        <time>2014-09-10T12:39:30Z</time>
      </trkpt>
      <trkpt lat="43.416" lon="6.06178">
        <ele>228.43252563477</ele>
        <time>2014-09-10T12:39:33Z</time>
      </trkpt>
      <trkpt lat="43.41601" lon="6.06172">
        <ele>228.5715637207</ele>
        <time>2014-09-10T12:39:34Z</time>
      </trkpt>
      <trkpt lat="43.41606" lon="6.0616">
        <ele>229.04141235352</ele>
        <time>2014-09-10T12:39:36Z</time>
      </trkpt>
      <trkpt lat="43.41614" lon="6.0615">
        <ele>229.80145263672</ele>
        <time>2014-09-10T12:39:38Z</time>
      </trkpt>
      <trkpt lat="43.41618" lon="6.06145">
        <ele>230.23918151856</ele>
        <time>2014-09-10T12:39:39Z</time>
      </trkpt>
      <trkpt lat="43.41624" lon="6.06136">
        <ele>230.91030883789</ele>
        <time>2014-09-10T12:39:41Z</time>
      </trkpt>
      <trkpt lat="43.4163" lon="6.06128">
        <ele>231.07850646973</ele>
        <time>2014-09-10T12:39:43Z</time>
      </trkpt>
      <trkpt lat="43.4163" lon="6.06124">
        <ele>230.9792175293</ele>
        <time>2014-09-10T12:39:44Z</time>
      </trkpt>
      <trkpt lat="43.41624" lon="6.06114">
        <ele>230.53356933594</ele>
        <time>2014-09-10T12:39:46Z</time>
      </trkpt>
      <trkpt lat="43.41616" lon="6.06083">
        <ele>231.32873535156</ele>
        <time>2014-09-10T12:39:51Z</time>
      </trkpt>
      <trkpt lat="43.41615" lon="6.0607">
        <ele>231.30126953125</ele>
        <time>2014-09-10T12:39:53Z</time>
      </trkpt>
      <trkpt lat="43.41616" lon="6.06052">
        <ele>231.38366699219</ele>
        <time>2014-09-10T12:39:56Z</time>
      </trkpt>
      <trkpt lat="43.41619" lon="6.06025">
        <ele>231.54846191406</ele>
        <time>2014-09-10T12:40:01Z</time>
      </trkpt>
      <trkpt lat="43.41621" lon="6.06007">
        <ele>231.74072265625</ele>
        <time>2014-09-10T12:40:04Z</time>
      </trkpt>
      <trkpt lat="43.41623" lon="6.05994">
        <ele>231.87805175781</ele>
        <time>2014-09-10T12:40:06Z</time>
      </trkpt>
      <trkpt lat="43.41624" lon="6.05983">
        <ele>231.96044921875</ele>
        <time>2014-09-10T12:40:08Z</time>
      </trkpt>
      <trkpt lat="43.41628" lon="6.05969">
        <ele>232.23510742188</ele>
        <time>2014-09-10T12:40:11Z</time>
      </trkpt>
      <trkpt lat="43.4163" lon="6.05965">
        <ele>232.37243652344</ele>
        <time>2014-09-10T12:40:12Z</time>
      </trkpt>
      <trkpt lat="43.41631" lon="6.05961">
        <ele>232.45483398438</ele>
        <time>2014-09-10T12:40:13Z</time>
      </trkpt>
      <trkpt lat="43.41632" lon="6.05957">
        <ele>232.48229980469</ele>
        <time>2014-09-10T12:40:14Z</time>
      </trkpt>
      <trkpt lat="43.41632" lon="6.05954">
        <ele>232.509765625</ele>
        <time>2014-09-10T12:40:15Z</time>
      </trkpt>
      <trkpt lat="43.41636" lon="6.05931">
        <ele>232.75695800781</ele>
        <time>2014-09-10T12:40:20Z</time>
      </trkpt>
      <trkpt lat="43.4164" lon="6.05895">
        <ele>233.02954101562</ele>
        <time>2014-09-10T12:40:27Z</time>
      </trkpt>
      <trkpt lat="43.41644" lon="6.05866">
        <ele>233.16687011719</ele>
        <time>2014-09-10T12:40:33Z</time>
      </trkpt>
      <trkpt lat="43.41644" lon="6.05861">
        <ele>233.1943359375</ele>
        <time>2014-09-10T12:40:34Z</time>
      </trkpt>
      <trkpt lat="43.41645" lon="6.0585">
        <ele>233.22180175781</ele>
        <time>2014-09-10T12:40:36Z</time>
      </trkpt>
      <trkpt lat="43.41645" lon="6.05845">
        <ele>233.23553466797</ele>
        <time>2014-09-10T12:40:37Z</time>
      </trkpt>
      <trkpt lat="43.41645" lon="6.05822">
        <ele>233.23553466797</ele>
        <time>2014-09-10T12:40:41Z</time>
      </trkpt>
      <trkpt lat="43.41648" lon="6.0578">
        <ele>233.31793212891</ele>
        <time>2014-09-10T12:40:48Z</time>
      </trkpt>
      <trkpt lat="43.41648" lon="6.05735">
        <ele>233.17720031738</ele>
        <time>2014-09-10T12:40:55Z</time>
      </trkpt>
      <trkpt lat="43.41645" lon="6.05693">
        <ele>233.23553466797</ele>
        <time>2014-09-10T12:41:01Z</time>
      </trkpt>
      <trkpt lat="43.41642" lon="6.05641">
        <ele>233.09820556641</ele>
        <time>2014-09-10T12:41:08Z</time>
      </trkpt>
      <trkpt lat="43.41632" lon="6.05586">
        <ele>233.53723144531</ele>
        <time>2014-09-10T12:41:15Z</time>
      </trkpt>
      <trkpt lat="43.41624" lon="6.05549">
        <ele>233.05519104004</ele>
        <time>2014-09-10T12:41:20Z</time>
      </trkpt>
      <trkpt lat="43.41619" lon="6.05529">
        <ele>233.265625</ele>
        <time>2014-09-10T12:41:23Z</time>
      </trkpt>
      <trkpt lat="43.41616" lon="6.05517">
        <ele>233.24716186523</ele>
        <time>2014-09-10T12:41:25Z</time>
      </trkpt>
      <trkpt lat="43.41609" lon="6.05493">
        <ele>232.91717529297</ele>
        <time>2014-09-10T12:41:29Z</time>
      </trkpt>
      <trkpt lat="43.41598" lon="6.05452">
        <ele>233.26361083984</ele>
        <time>2014-09-10T12:41:36Z</time>
      </trkpt>
      <trkpt lat="43.41587" lon="6.05416">
        <ele>233.12066650391</ele>
        <time>2014-09-10T12:41:42Z</time>
      </trkpt>
      <trkpt lat="43.4157" lon="6.05364">
        <ele>233.44197082519</ele>
        <time>2014-09-10T12:41:50Z</time>
      </trkpt>
      <trkpt lat="43.41552" lon="6.05318">
        <ele>233.79365539551</ele>
        <time>2014-09-10T12:41:57Z</time>
      </trkpt>
      <trkpt lat="43.41547" lon="6.05296">
        <ele>233.6787109375</ele>
        <time>2014-09-10T12:42:00Z</time>
      </trkpt>
      <trkpt lat="43.41543" lon="6.05282">
        <ele>233.54138183594</ele>
        <time>2014-09-10T12:42:02Z</time>
      </trkpt>
      <trkpt lat="43.41541" lon="6.05275">
        <ele>233.47271728516</ele>
        <time>2014-09-10T12:42:03Z</time>
      </trkpt>
      <trkpt lat="43.41539" lon="6.05269">
        <ele>233.39031982422</ele>
        <time>2014-09-10T12:42:04Z</time>
      </trkpt>
      <trkpt lat="43.41517" lon="6.05221">
        <ele>233.60754394531</ele>
        <time>2014-09-10T12:42:11Z</time>
      </trkpt>
      <trkpt lat="43.41514" lon="6.05214">
        <ele>233.49768066406</ele>
        <time>2014-09-10T12:42:12Z</time>
      </trkpt>
      <trkpt lat="43.41505" lon="6.05195">
        <ele>233.16809082031</ele>
        <time>2014-09-10T12:42:15Z</time>
      </trkpt>
      <trkpt lat="43.41502" lon="6.05189">
        <ele>233.07006835938</ele>
        <time>2014-09-10T12:42:16Z</time>
      </trkpt>
      <trkpt lat="43.41499" lon="6.05183">
        <ele>232.96209716797</ele>
        <time>2014-09-10T12:42:17Z</time>
      </trkpt>
      <trkpt lat="43.41497" lon="6.05177">
        <ele>232.87969970703</ele>
        <time>2014-09-10T12:42:18Z</time>
      </trkpt>
      <trkpt lat="43.41497" lon="6.0517">
        <ele>232.87969970703</ele>
        <time>2014-09-10T12:42:19Z</time>
      </trkpt>
      <trkpt lat="43.41503" lon="6.05159">
        <ele>233.44906616211</ele>
        <time>2014-09-10T12:42:22Z</time>
      </trkpt>
      <trkpt lat="43.41508" lon="6.05157">
        <ele>233.85270690918</ele>
        <time>2014-09-10T12:42:24Z</time>
      </trkpt>
      <trkpt lat="43.41516" lon="6.05154">
        <ele>234.37229919434</ele>
        <time>2014-09-10T12:42:27Z</time>
      </trkpt>
      <trkpt lat="43.41528" lon="6.05153">
        <ele>235.00283813477</ele>
        <time>2014-09-10T12:42:30Z</time>
      </trkpt>
      <trkpt lat="43.41536" lon="6.05153">
        <ele>235.14436340332</ele>
        <time>2014-09-10T12:42:32Z</time>
      </trkpt>
      <trkpt lat="43.4155" lon="6.05152">
        <ele>235.42620849609</ele>
        <time>2014-09-10T12:42:36Z</time>
      </trkpt>
      <trkpt lat="43.41559" lon="6.05153">
        <ele>235.55340576172</ele>
        <time>2014-09-10T12:42:39Z</time>
      </trkpt>
      <trkpt lat="43.41566" lon="6.05154">
        <ele>235.66261291504</ele>
        <time>2014-09-10T12:42:41Z</time>
      </trkpt>
      <trkpt lat="43.41577" lon="6.05157">
        <ele>235.84632873535</ele>
        <time>2014-09-10T12:42:45Z</time>
      </trkpt>
      <trkpt lat="43.41592" lon="6.0516">
        <ele>236.29919433594</ele>
        <time>2014-09-10T12:42:51Z</time>
      </trkpt>
      <trkpt lat="43.41594" lon="6.0516">
        <ele>236.38159179688</ele>
        <time>2014-09-10T12:42:52Z</time>
      </trkpt>
      <trkpt lat="43.41599" lon="6.0516">
        <ele>236.54638671875</ele>
        <time>2014-09-10T12:42:54Z</time>
      </trkpt>
      <trkpt lat="43.41603" lon="6.05161">
        <ele>236.72491455078</ele>
        <time>2014-09-10T12:42:57Z</time>
      </trkpt>
      <trkpt lat="43.41604" lon="6.05161">
        <ele>236.73864746094</ele>
        <time>2014-09-10T12:43:02Z</time>
      </trkpt>
      <trkpt lat="43.41604" lon="6.05161">
        <ele>236.73864746094</ele>
        <time>2014-09-10T12:43:09Z</time>
      </trkpt>
      <trkpt lat="43.41603" lon="6.05161">
        <ele>236.72491455078</ele>
        <time>2014-09-10T12:43:21Z</time>
      </trkpt>
      <trkpt lat="43.41604" lon="6.05162">
        <ele>236.75238037109</ele>
        <time>2014-09-10T12:43:26Z</time>
      </trkpt>
      <trkpt lat="43.41605" lon="6.05162">
        <ele>236.79357910156</ele>
        <time>2014-09-10T12:43:27Z</time>
      </trkpt>
      <trkpt lat="43.41607" lon="6.05161">
        <ele>236.84851074219</ele>
        <time>2014-09-10T12:43:28Z</time>
      </trkpt>
      <trkpt lat="43.41615" lon="6.05161">
        <ele>237.02793884277</ele>
        <time>2014-09-10T12:43:31Z</time>
      </trkpt>
      <trkpt lat="43.41623" lon="6.05162">
        <ele>237.07054138184</ele>
        <time>2014-09-10T12:43:33Z</time>
      </trkpt>
      <trkpt lat="43.41626" lon="6.05162">
        <ele>237.08654785156</ele>
        <time>2014-09-10T12:43:34Z</time>
      </trkpt>
      <trkpt lat="43.4163" lon="6.05163">
        <ele>237.09996032715</ele>
        <time>2014-09-10T12:43:35Z</time>
      </trkpt>
      <trkpt lat="43.41634" lon="6.05163">
        <ele>237.10545349121</ele>
        <time>2014-09-10T12:43:36Z</time>
      </trkpt>
      <trkpt lat="43.41637" lon="6.05163">
        <ele>237.11352539062</ele>
        <time>2014-09-10T12:43:37Z</time>
      </trkpt>
      <trkpt lat="43.41647" lon="6.05164">
        <ele>237.38285827637</ele>
        <time>2014-09-10T12:43:40Z</time>
      </trkpt>
      <trkpt lat="43.41662" lon="6.05164">
        <ele>237.85487365723</ele>
        <time>2014-09-10T12:43:44Z</time>
      </trkpt>
      <trkpt lat="43.41669" lon="6.05161">
        <ele>238.08697509766</ele>
        <time>2014-09-10T12:43:46Z</time>
      </trkpt>
      <trkpt lat="43.41678" lon="6.05151">
        <ele>238.40283203125</ele>
        <time>2014-09-10T12:43:49Z</time>
      </trkpt>
      <trkpt lat="43.41681" lon="6.05148">
        <ele>238.49896240234</ele>
        <time>2014-09-10T12:43:50Z</time>
      </trkpt>
      <trkpt lat="43.41685" lon="6.05141">
        <ele>238.67749023438</ele>
        <time>2014-09-10T12:43:52Z</time>
      </trkpt>
      <trkpt lat="43.41688" lon="6.05138">
        <ele>238.77362060547</ele>
        <time>2014-09-10T12:43:53Z</time>
      </trkpt>
      <trkpt lat="43.41691" lon="6.05135">
        <ele>238.88348388672</ele>
        <time>2014-09-10T12:43:54Z</time>
      </trkpt>
      <trkpt lat="43.41697" lon="6.0513">
        <ele>239.12393188477</ele>
        <time>2014-09-10T12:43:56Z</time>
      </trkpt>
      <trkpt lat="43.41729" lon="6.05107">
        <ele>242.52270507812</ele>
        <time>2014-09-10T12:44:07Z</time>
      </trkpt>
      <trkpt lat="43.41735" lon="6.05109">
        <ele>242.9871673584</ele>
        <time>2014-09-10T12:44:09Z</time>
      </trkpt>
      <trkpt lat="43.41737" lon="6.05113">
        <ele>242.94320678711</ele>
        <time>2014-09-10T12:44:10Z</time>
      </trkpt>
      <trkpt lat="43.41737" lon="6.05121">
        <ele>242.53288269043</ele>
        <time>2014-09-10T12:44:12Z</time>
      </trkpt>
      <trkpt lat="43.41737" lon="6.05126">
        <ele>242.25364685059</ele>
        <time>2014-09-10T12:44:13Z</time>
      </trkpt>
      <trkpt lat="43.41736" lon="6.05131">
        <ele>241.95698547363</ele>
        <time>2014-09-10T12:44:14Z</time>
      </trkpt>
      <trkpt lat="43.41737" lon="6.05135">
        <ele>241.73710632324</ele>
        <time>2014-09-10T12:44:15Z</time>
      </trkpt>
      <trkpt lat="43.41737" lon="6.05165">
        <ele>240.09538269043</ele>
        <time>2014-09-10T12:44:21Z</time>
      </trkpt>
      <trkpt lat="43.41746" lon="6.05177">
        <ele>240</ele>
        <time>2014-09-10T12:44:25Z</time>
      </trkpt>
      <trkpt lat="43.41761" lon="6.0518">
        <ele>243.08819580078</ele>
        <time>2014-09-10T12:44:30Z</time>
      </trkpt>
      <trkpt lat="43.41764" lon="6.0518">
        <ele>243.91413879394</ele>
        <time>2014-09-10T12:44:31Z</time>
      </trkpt>
      <trkpt lat="43.41768" lon="6.0518">
        <ele>244.73968505859</ele>
        <time>2014-09-10T12:44:32Z</time>
      </trkpt>
      <trkpt lat="43.41771" lon="6.0518">
        <ele>245.56359863281</ele>
        <time>2014-09-10T12:44:33Z</time>
      </trkpt>
      <trkpt lat="43.41773" lon="6.0518">
        <ele>246.2864074707</ele>
        <time>2014-09-10T12:44:34Z</time>
      </trkpt>
      <trkpt lat="43.41786" lon="6.05181">
        <ele>248.21472167969</ele>
        <time>2014-09-10T12:44:38Z</time>
      </trkpt>
      <trkpt lat="43.41803" lon="6.05183">
        <ele>249.75981140137</ele>
        <time>2014-09-10T12:44:44Z</time>
      </trkpt>
      <trkpt lat="43.41806" lon="6.05183">
        <ele>250.00810241699</ele>
        <time>2014-09-10T12:44:45Z</time>
      </trkpt>
      <trkpt lat="43.41811" lon="6.05183">
        <ele>250.50509643555</ele>
        <time>2014-09-10T12:44:47Z</time>
      </trkpt>
      <trkpt lat="43.41815" lon="6.05183">
        <ele>250.79814147949</ele>
        <time>2014-09-10T12:44:48Z</time>
      </trkpt>
      <trkpt lat="43.41824" lon="6.05184">
        <ele>251.55198669434</ele>
        <time>2014-09-10T12:44:51Z</time>
      </trkpt>
      <trkpt lat="43.41841" lon="6.05184">
        <ele>253.45062255859</ele>
        <time>2014-09-10T12:44:57Z</time>
      </trkpt>
      <trkpt lat="43.41843" lon="6.05184">
        <ele>253.83343505859</ele>
        <time>2014-09-10T12:44:58Z</time>
      </trkpt>
      <trkpt lat="43.4185" lon="6.05184">
        <ele>254.70889282227</ele>
        <time>2014-09-10T12:45:00Z</time>
      </trkpt>
      <trkpt lat="43.41852" lon="6.05183">
        <ele>255.1174621582</ele>
        <time>2014-09-10T12:45:01Z</time>
      </trkpt>
      <trkpt lat="43.41866" lon="6.05179">
        <ele>256.89801025391</ele>
        <time>2014-09-10T12:45:06Z</time>
      </trkpt>
      <trkpt lat="43.41877" lon="6.05176">
        <ele>257.77520751953</ele>
        <time>2014-09-10T12:45:10Z</time>
      </trkpt>
      <trkpt lat="43.41879" lon="6.05176">
        <ele>257.92971801758</ele>
        <time>2014-09-10T12:45:11Z</time>
      </trkpt>
      <trkpt lat="43.41881" lon="6.05175">
        <ele>258.14086914062</ele>
        <time>2014-09-10T12:45:12Z</time>
      </trkpt>
      <trkpt lat="43.41883" lon="6.05175">
        <ele>258.32452392578</ele>
        <time>2014-09-10T12:45:13Z</time>
      </trkpt>
      <trkpt lat="43.41896" lon="6.05171">
        <ele>259.15411376953</ele>
        <time>2014-09-10T12:45:20Z</time>
      </trkpt>
      <trkpt lat="43.41903" lon="6.05172">
        <ele>259.42721557617</ele>
        <time>2014-09-10T12:45:24Z</time>
      </trkpt>
      <trkpt lat="43.41905" lon="6.05173">
        <ele>259.47946166992</ele>
        <time>2014-09-10T12:45:25Z</time>
      </trkpt>
      <trkpt lat="43.41906" lon="6.05174">
        <ele>259.53573608398</ele>
        <time>2014-09-10T12:45:26Z</time>
      </trkpt>
      <trkpt lat="43.41908" lon="6.05175">
        <ele>259.58923339844</ele>
        <time>2014-09-10T12:45:27Z</time>
      </trkpt>
      <trkpt lat="43.41909" lon="6.05176">
        <ele>259.64624023438</ele>
        <time>2014-09-10T12:45:28Z</time>
      </trkpt>
      <trkpt lat="43.4192" lon="6.05159">
        <ele>260</ele>
        <time>2014-09-10T12:45:31Z</time>
      </trkpt>
      <trkpt lat="43.41926" lon="6.05155">
        <ele>260</ele>
        <time>2014-09-10T12:45:32Z</time>
      </trkpt>
      <trkpt lat="43.41946" lon="6.05146">
        <ele>260</ele>
        <time>2014-09-10T12:45:37Z</time>
      </trkpt>
      <trkpt lat="43.41949" lon="6.05145">
        <ele>260</ele>
        <time>2014-09-10T12:45:38Z</time>
      </trkpt>
      <trkpt lat="43.41952" lon="6.05144">
        <ele>260</ele>
        <time>2014-09-10T12:45:39Z</time>
      </trkpt>
      <trkpt lat="43.41955" lon="6.05142">
        <ele>260</ele>
        <time>2014-09-10T12:45:40Z</time>
      </trkpt>
      <trkpt lat="43.41957" lon="6.05141">
        <ele>260</ele>
        <time>2014-09-10T12:45:41Z</time>
      </trkpt>
      <trkpt lat="43.41969" lon="6.05135">
        <ele>260.35763549805</ele>
        <time>2014-09-10T12:45:46Z</time>
      </trkpt>
      <trkpt lat="43.41981" lon="6.05134">
        <ele>260.55264282227</ele>
        <time>2014-09-10T12:45:51Z</time>
      </trkpt>
      <trkpt lat="43.41985" lon="6.05134">
        <ele>260.54748535156</ele>
        <time>2014-09-10T12:45:53Z</time>
      </trkpt>
      <trkpt lat="43.41988" lon="6.05134">
        <ele>260.53717041016</ele>
        <time>2014-09-10T12:45:54Z</time>
      </trkpt>
      <trkpt lat="43.4199" lon="6.05134">
        <ele>260.47540283203</ele>
        <time>2014-09-10T12:45:55Z</time>
      </trkpt>
      <trkpt lat="43.41992" lon="6.05134">
        <ele>260.52172851562</ele>
        <time>2014-09-10T12:45:56Z</time>
      </trkpt>
      <trkpt lat="43.41994" lon="6.05134">
        <ele>260.53204345703</ele>
        <time>2014-09-10T12:45:57Z</time>
      </trkpt>
      <trkpt lat="43.41998" lon="6.05133">
        <ele>260.64532470703</ele>
        <time>2014-09-10T12:45:58Z</time>
      </trkpt>
      <trkpt lat="43.42025" lon="6.05123">
        <ele>261.68045043945</ele>
        <time>2014-09-10T12:46:06Z</time>
      </trkpt>
      <trkpt lat="43.42048" lon="6.05118">
        <ele>262.26239013672</ele>
        <time>2014-09-10T12:46:13Z</time>
      </trkpt>
      <trkpt lat="43.42059" lon="6.05115">
        <ele>262.67156982422</ele>
        <time>2014-09-10T12:46:16Z</time>
      </trkpt>
      <trkpt lat="43.42063" lon="6.05115">
        <ele>262.8616027832</ele>
        <time>2014-09-10T12:46:17Z</time>
      </trkpt>
      <trkpt lat="43.42075" lon="6.05115">
        <ele>263.20205688477</ele>
        <time>2014-09-10T12:46:20Z</time>
      </trkpt>
      <trkpt lat="43.42083" lon="6.05115">
        <ele>263.42449951172</ele>
        <time>2014-09-10T12:46:22Z</time>
      </trkpt>
      <trkpt lat="43.42094" lon="6.05116">
        <ele>264.60269165039</ele>
        <time>2014-09-10T12:46:25Z</time>
      </trkpt>
      <trkpt lat="43.42103" lon="6.05116">
        <ele>265.51220703125</ele>
        <time>2014-09-10T12:46:27Z</time>
      </trkpt>
      <trkpt lat="43.42107" lon="6.05116">
        <ele>265.98822021484</ele>
        <time>2014-09-10T12:46:28Z</time>
      </trkpt>
      <trkpt lat="43.4211" lon="6.05115">
        <ele>266.48541259766</ele>
        <time>2014-09-10T12:46:29Z</time>
      </trkpt>
      <trkpt lat="43.42115" lon="6.05115">
        <ele>267.08459472656</ele>
        <time>2014-09-10T12:46:30Z</time>
      </trkpt>
      <trkpt lat="43.42117" lon="6.05115">
        <ele>267.46395874023</ele>
        <time>2014-09-10T12:46:31Z</time>
      </trkpt>
      <trkpt lat="43.42126" lon="6.05117">
        <ele>268.4973449707</ele>
        <time>2014-09-10T12:46:34Z</time>
      </trkpt>
      <trkpt lat="43.42134" lon="6.05121">
        <ele>269.20803833008</ele>
        <time>2014-09-10T12:46:39Z</time>
      </trkpt>
      <trkpt lat="43.42135" lon="6.05121">
        <ele>269.41229248047</ele>
        <time>2014-09-10T12:46:40Z</time>
      </trkpt>
      <trkpt lat="43.42137" lon="6.05121">
        <ele>269.5959777832</ele>
        <time>2014-09-10T12:46:41Z</time>
      </trkpt>
      <trkpt lat="43.42139" lon="6.05123">
        <ele>269.79760742188</ele>
        <time>2014-09-10T12:46:43Z</time>
      </trkpt>
      <trkpt lat="43.42141" lon="6.05123">
        <ele>269.97442626953</ele>
        <time>2014-09-10T12:46:47Z</time>
      </trkpt>
      <trkpt lat="43.42141" lon="6.05123">
        <ele>269.97442626953</ele>
        <time>2014-09-10T12:46:53Z</time>
      </trkpt>
      <trkpt lat="43.42141" lon="6.05123">
        <ele>269.97442626953</ele>
        <time>2014-09-10T12:47:01Z</time>
      </trkpt>
      <trkpt lat="43.4214" lon="6.05123">
        <ele>269.8473815918</ele>
        <time>2014-09-10T12:47:03Z</time>
      </trkpt>
      <trkpt lat="43.42141" lon="6.05123">
        <ele>269.97442626953</ele>
        <time>2014-09-10T12:47:06Z</time>
      </trkpt>
      <trkpt lat="43.42141" lon="6.05123">
        <ele>269.97442626953</ele>
        <time>2014-09-10T12:47:12Z</time>
      </trkpt>
      <trkpt lat="43.42141" lon="6.05123">
        <ele>269.97442626953</ele>
        <time>2014-09-10T12:47:18Z</time>
      </trkpt>
      <trkpt lat="43.4214" lon="6.05123">
        <ele>269.8525390625</ele>
        <time>2014-09-10T12:47:22Z</time>
      </trkpt>
      <trkpt lat="43.4214" lon="6.05123">
        <ele>269.8525390625</ele>
        <time>2014-09-10T12:47:35Z</time>
      </trkpt>
      <trkpt lat="43.4214" lon="6.05124">
        <ele>269.80102539062</ele>
        <time>2014-09-10T12:47:43Z</time>
      </trkpt>
      <trkpt lat="43.4214" lon="6.05124">
        <ele>269.80102539062</ele>
        <time>2014-09-10T12:48:03Z</time>
      </trkpt>
      <trkpt lat="43.4214" lon="6.05124">
        <ele>269.77526855469</ele>
        <time>2014-09-10T12:48:23Z</time>
      </trkpt>
      <trkpt lat="43.4214" lon="6.05124">
        <ele>269.77526855469</ele>
        <time>2014-09-10T12:48:42Z</time>
      </trkpt>
      <trkpt lat="43.4214" lon="6.05124">
        <ele>269.77526855469</ele>
        <time>2014-09-10T12:48:47Z</time>
      </trkpt>
      <trkpt lat="43.4214" lon="6.05126">
        <ele>269.59503173828</ele>
        <time>2014-09-10T12:48:51Z</time>
      </trkpt>
      <trkpt lat="43.4214" lon="6.05126">
        <ele>269.59503173828</ele>
        <time>2014-09-10T12:48:56Z</time>
      </trkpt>
      <trkpt lat="43.4214" lon="6.05126">
        <ele>269.59503173828</ele>
        <time>2014-09-10T12:49:26Z</time>
      </trkpt>
      <trkpt lat="43.4214" lon="6.05126">
        <ele>269.67401123047</ele>
        <time>2014-09-10T12:49:31Z</time>
      </trkpt>
      <trkpt lat="43.4214" lon="6.05126">
        <ele>269.67401123047</ele>
        <time>2014-09-10T12:49:46Z</time>
      </trkpt>
      <trkpt lat="43.4214" lon="6.05126">
        <ele>269.67401123047</ele>
        <time>2014-09-10T12:50:10Z</time>
      </trkpt>
      <trkpt lat="43.42139" lon="6.05127">
        <ele>269.36672973633</ele>
        <time>2014-09-10T12:50:20Z</time>
      </trkpt>
      <trkpt lat="43.42139" lon="6.05127">
        <ele>269.36672973633</ele>
        <time>2014-09-10T12:50:31Z</time>
      </trkpt>
      <trkpt lat="43.42139" lon="6.05127">
        <ele>269.36672973633</ele>
        <time>2014-09-10T12:50:44Z</time>
      </trkpt>
      <trkpt lat="43.42139" lon="6.05128">
        <ele>269.26889038086</ele>
        <time>2014-09-10T12:50:51Z</time>
      </trkpt>
      <trkpt lat="43.42139" lon="6.05128">
        <ele>269.26889038086</ele>
        <time>2014-09-10T12:50:59Z</time>
      </trkpt>
      <trkpt lat="43.42139" lon="6.05129">
        <ele>268.99517822266</ele>
        <time>2014-09-10T12:51:08Z</time>
      </trkpt>
      <trkpt lat="43.42138" lon="6.05131">
        <ele>268.76000976562</ele>
        <time>2014-09-10T12:51:09Z</time>
      </trkpt>
      <trkpt lat="43.42139" lon="6.05137">
        <ele>268.34704589844</ele>
        <time>2014-09-10T12:51:12Z</time>
      </trkpt>
      <trkpt lat="43.42144" lon="6.05139">
        <ele>268.80764770508</ele>
        <time>2014-09-10T12:51:15Z</time>
      </trkpt>
      <trkpt lat="43.42153" lon="6.05153">
        <ele>268.42999267578</ele>
        <time>2014-09-10T12:51:22Z</time>
      </trkpt>
      <trkpt lat="43.42163" lon="6.05159">
        <ele>269.41189575195</ele>
        <time>2014-09-10T12:51:27Z</time>
      </trkpt>
      <trkpt lat="43.42169" lon="6.05164">
        <ele>269.89727783203</ele>
        <time>2014-09-10T12:51:31Z</time>
      </trkpt>
      <trkpt lat="43.42174" lon="6.05166">
        <ele>270.66275024414</ele>
        <time>2014-09-10T12:51:34Z</time>
      </trkpt>
      <trkpt lat="43.42186" lon="6.05173">
        <ele>273.39093017578</ele>
        <time>2014-09-10T12:51:41Z</time>
      </trkpt>
      <trkpt lat="43.42188" lon="6.05175">
        <ele>273.79251098633</ele>
        <time>2014-09-10T12:51:42Z</time>
      </trkpt>
      <trkpt lat="43.42192" lon="6.05178">
        <ele>274.55932617188</ele>
        <time>2014-09-10T12:51:44Z</time>
      </trkpt>
      <trkpt lat="43.42194" lon="6.05179">
        <ele>274.98571777344</ele>
        <time>2014-09-10T12:51:45Z</time>
      </trkpt>
      <trkpt lat="43.42207" lon="6.05187">
        <ele>276.30993652344</ele>
        <time>2014-09-10T12:51:51Z</time>
      </trkpt>
      <trkpt lat="43.42218" lon="6.05193">
        <ele>277.58709716797</ele>
        <time>2014-09-10T12:51:55Z</time>
      </trkpt>
      <trkpt lat="43.42224" lon="6.05199">
        <ele>278.20156860352</ele>
        <time>2014-09-10T12:51:57Z</time>
      </trkpt>
      <trkpt lat="43.42231" lon="6.05208">
        <ele>278.828125</ele>
        <time>2014-09-10T12:52:00Z</time>
      </trkpt>
      <trkpt lat="43.42234" lon="6.0521">
        <ele>279.00152587891</ele>
        <time>2014-09-10T12:52:01Z</time>
      </trkpt>
      <trkpt lat="43.42238" lon="6.05211">
        <ele>279.16461181641</ele>
        <time>2014-09-10T12:52:02Z</time>
      </trkpt>
      <trkpt lat="43.42241" lon="6.05212">
        <ele>279.31051635742</ele>
        <time>2014-09-10T12:52:03Z</time>
      </trkpt>
      <trkpt lat="43.42252" lon="6.05212">
        <ele>279.64477539062</ele>
        <time>2014-09-10T12:52:06Z</time>
      </trkpt>
      <trkpt lat="43.4226" lon="6.05213">
        <ele>279.66708374023</ele>
        <time>2014-09-10T12:52:08Z</time>
      </trkpt>
      <trkpt lat="43.42275" lon="6.05215">
        <ele>279.73574829102</ele>
        <time>2014-09-10T12:52:12Z</time>
      </trkpt>
      <trkpt lat="43.42279" lon="6.05216">
        <ele>279.78216552734</ele>
        <time>2014-09-10T12:52:13Z</time>
      </trkpt>
      <trkpt lat="43.42283" lon="6.05217">
        <ele>279.84429931641</ele>
        <time>2014-09-10T12:52:14Z</time>
      </trkpt>
      <trkpt lat="43.42287" lon="6.05218">
        <ele>279.90325927734</ele>
        <time>2014-09-10T12:52:15Z</time>
      </trkpt>
      <trkpt lat="43.42291" lon="6.0522">
        <ele>279.95199584961</ele>
        <time>2014-09-10T12:52:16Z</time>
      </trkpt>
      <trkpt lat="43.42295" lon="6.05221">
        <ele>279.98324584961</ele>
        <time>2014-09-10T12:52:17Z</time>
      </trkpt>
      <trkpt lat="43.42317" lon="6.05227">
        <ele>280</ele>
        <time>2014-09-10T12:52:24Z</time>
      </trkpt>
      <trkpt lat="43.42326" lon="6.05228">
        <ele>280</ele>
        <time>2014-09-10T12:52:27Z</time>
      </trkpt>
      <trkpt lat="43.42327" lon="6.05229">
        <ele>280</ele>
        <time>2014-09-10T12:52:28Z</time>
      </trkpt>
      <trkpt lat="43.42332" lon="6.0523">
        <ele>280</ele>
        <time>2014-09-10T12:52:30Z</time>
      </trkpt>
      <trkpt lat="43.42334" lon="6.05231">
        <ele>280</ele>
        <time>2014-09-10T12:52:31Z</time>
      </trkpt>
      <trkpt lat="43.4234" lon="6.05232">
        <ele>280</ele>
        <time>2014-09-10T12:52:34Z</time>
      </trkpt>
      <trkpt lat="43.42343" lon="6.05233">
        <ele>280</ele>
        <time>2014-09-10T12:52:35Z</time>
      </trkpt>
      <trkpt lat="43.42349" lon="6.05233">
        <ele>280</ele>
        <time>2014-09-10T12:52:38Z</time>
      </trkpt>
      <trkpt lat="43.42362" lon="6.0523">
        <ele>280</ele>
        <time>2014-09-10T12:52:44Z</time>
      </trkpt>
      <trkpt lat="43.42368" lon="6.05229">
        <ele>280</ele>
        <time>2014-09-10T12:52:47Z</time>
      </trkpt>
      <trkpt lat="43.42376" lon="6.05228">
        <ele>280</ele>
        <time>2014-09-10T12:52:51Z</time>
      </trkpt>
      <trkpt lat="43.42378" lon="6.05228">
        <ele>280</ele>
        <time>2014-09-10T12:52:52Z</time>
      </trkpt>
      <trkpt lat="43.4238" lon="6.05228">
        <ele>280</ele>
        <time>2014-09-10T12:52:53Z</time>
      </trkpt>
      <trkpt lat="43.42381" lon="6.05228">
        <ele>280</ele>
        <time>2014-09-10T12:52:54Z</time>
      </trkpt>
      <trkpt lat="43.42382" lon="6.05228">
        <ele>280</ele>
        <time>2014-09-10T12:52:55Z</time>
      </trkpt>
      <trkpt lat="43.42384" lon="6.05228">
        <ele>280</ele>
        <time>2014-09-10T12:52:56Z</time>
      </trkpt>
      <trkpt lat="43.4239" lon="6.05227">
        <ele>280.17611694336</ele>
        <time>2014-09-10T12:53:00Z</time>
      </trkpt>
      <trkpt lat="43.42393" lon="6.05227">
        <ele>280.70071411133</ele>
        <time>2014-09-10T12:53:02Z</time>
      </trkpt>
      <trkpt lat="43.42395" lon="6.05226">
        <ele>280.89263916016</ele>
        <time>2014-09-10T12:53:03Z</time>
      </trkpt>
      <trkpt lat="43.42396" lon="6.05225">
        <ele>281.20147705078</ele>
        <time>2014-09-10T12:53:07Z</time>
      </trkpt>
      <trkpt lat="43.42396" lon="6.05225">
        <ele>281.20147705078</ele>
        <time>2014-09-10T12:53:15Z</time>
      </trkpt>
      <trkpt lat="43.42396" lon="6.05225">
        <ele>281.20147705078</ele>
        <time>2014-09-10T12:53:21Z</time>
      </trkpt>
      <trkpt lat="43.42397" lon="6.05224">
        <ele>281.40087890625</ele>
        <time>2014-09-10T12:53:23Z</time>
      </trkpt>
      <trkpt lat="43.42398" lon="6.05225">
        <ele>281.56469726562</ele>
        <time>2014-09-10T12:53:24Z</time>
      </trkpt>
      <trkpt lat="43.42402" lon="6.05224">
        <ele>282.14971923828</ele>
        <time>2014-09-10T12:53:28Z</time>
      </trkpt>
      <trkpt lat="43.42407" lon="6.05223">
        <ele>283.18182373047</ele>
        <time>2014-09-10T12:53:34Z</time>
      </trkpt>
      <trkpt lat="43.42411" lon="6.05223">
        <ele>283.85693359375</ele>
        <time>2014-09-10T12:53:38Z</time>
      </trkpt>
      <trkpt lat="43.42412" lon="6.05223">
        <ele>284.0110168457</ele>
        <time>2014-09-10T12:53:39Z</time>
      </trkpt>
      <trkpt lat="43.42412" lon="6.05223">
        <ele>284.10659790039</ele>
        <time>2014-09-10T12:53:44Z</time>
      </trkpt>
      <trkpt lat="43.42412" lon="6.05223">
        <ele>284.10659790039</ele>
        <time>2014-09-10T12:53:58Z</time>
      </trkpt>
      <trkpt lat="43.42412" lon="6.05223">
        <ele>284.10659790039</ele>
        <time>2014-09-10T12:54:03Z</time>
      </trkpt>
      <trkpt lat="43.42414" lon="6.05222">
        <ele>284.52069091797</ele>
        <time>2014-09-10T12:54:07Z</time>
      </trkpt>
      <trkpt lat="43.42415" lon="6.05223">
        <ele>284.68524169922</ele>
        <time>2014-09-10T12:54:08Z</time>
      </trkpt>
      <trkpt lat="43.42422" lon="6.05223">
        <ele>285.56393432617</ele>
        <time>2014-09-10T12:54:12Z</time>
      </trkpt>
      <trkpt lat="43.4243" lon="6.05223">
        <ele>286.74526977539</ele>
        <time>2014-09-10T12:54:17Z</time>
      </trkpt>
      <trkpt lat="43.42432" lon="6.05223">
        <ele>286.92568969727</ele>
        <time>2014-09-10T12:54:18Z</time>
      </trkpt>
      <trkpt lat="43.42445" lon="6.0522">
        <ele>289.67520141602</ele>
        <time>2014-09-10T12:54:22Z</time>
      </trkpt>
      <trkpt lat="43.42448" lon="6.05219">
        <ele>291.15264892578</ele>
        <time>2014-09-10T12:54:23Z</time>
      </trkpt>
      <trkpt lat="43.42455" lon="6.05216">
        <ele>293.56207275391</ele>
        <time>2014-09-10T12:54:25Z</time>
      </trkpt>
      <trkpt lat="43.42457" lon="6.05215">
        <ele>294.52514648438</ele>
        <time>2014-09-10T12:54:26Z</time>
      </trkpt>
      <trkpt lat="43.42459" lon="6.05214">
        <ele>295.3391418457</ele>
        <time>2014-09-10T12:54:27Z</time>
      </trkpt>
      <trkpt lat="43.42461" lon="6.05213">
        <ele>296.03564453125</ele>
        <time>2014-09-10T12:54:28Z</time>
      </trkpt>
      <trkpt lat="43.42463" lon="6.05212">
        <ele>296.61962890625</ele>
        <time>2014-09-10T12:54:29Z</time>
      </trkpt>
      <trkpt lat="43.42464" lon="6.05212">
        <ele>297.09606933594</ele>
        <time>2014-09-10T12:54:30Z</time>
      </trkpt>
      <trkpt lat="43.42466" lon="6.05213">
        <ele>297.33984375</ele>
        <time>2014-09-10T12:54:31Z</time>
      </trkpt>
      <trkpt lat="43.4247" lon="6.05214">
        <ele>297.82748413086</ele>
        <time>2014-09-10T12:54:33Z</time>
      </trkpt>
      <trkpt lat="43.42473" lon="6.05215">
        <ele>298.1799621582</ele>
        <time>2014-09-10T12:54:35Z</time>
      </trkpt>
      <trkpt lat="43.42475" lon="6.05215">
        <ele>298.40994262695</ele>
        <time>2014-09-10T12:54:36Z</time>
      </trkpt>
      <trkpt lat="43.4248" lon="6.05216">
        <ele>298.89486694336</ele>
        <time>2014-09-10T12:54:39Z</time>
      </trkpt>
      <trkpt lat="43.42482" lon="6.05216">
        <ele>299.00869750977</ele>
        <time>2014-09-10T12:54:40Z</time>
      </trkpt>
      <trkpt lat="43.42497" lon="6.05223">
        <ele>299.3899230957</ele>
        <time>2014-09-10T12:54:46Z</time>
      </trkpt>
      <trkpt lat="43.42509" lon="6.05225">
        <ele>299.5693359375</ele>
        <time>2014-09-10T12:54:51Z</time>
      </trkpt>
      <trkpt lat="43.42523" lon="6.05227">
        <ele>299.60568237305</ele>
        <time>2014-09-10T12:54:56Z</time>
      </trkpt>
      <trkpt lat="43.42535" lon="6.05224">
        <ele>299.8830871582</ele>
        <time>2014-09-10T12:55:01Z</time>
      </trkpt>
      <trkpt lat="43.42546" lon="6.05222">
        <ele>300.02236938477</ele>
        <time>2014-09-10T12:55:05Z</time>
      </trkpt>
      <trkpt lat="43.42554" lon="6.05218">
        <ele>300.33422851562</ele>
        <time>2014-09-10T12:55:08Z</time>
      </trkpt>
      <trkpt lat="43.42556" lon="6.05217">
        <ele>300.34100341797</ele>
        <time>2014-09-10T12:55:09Z</time>
      </trkpt>
      <trkpt lat="43.42558" lon="6.05217">
        <ele>300.33102416992</ele>
        <time>2014-09-10T12:55:10Z</time>
      </trkpt>
      <trkpt lat="43.4256" lon="6.05217">
        <ele>300.30502319336</ele>
        <time>2014-09-10T12:55:11Z</time>
      </trkpt>
      <trkpt lat="43.42561" lon="6.05217">
        <ele>300.28671264648</ele>
        <time>2014-09-10T12:55:12Z</time>
      </trkpt>
      <trkpt lat="43.42561" lon="6.05217">
        <ele>300.28466796875</ele>
        <time>2014-09-10T12:55:13Z</time>
      </trkpt>
      <trkpt lat="43.42561" lon="6.05217">
        <ele>300.28466796875</ele>
        <time>2014-09-10T12:55:26Z</time>
      </trkpt>
      <trkpt lat="43.42561" lon="6.05217">
        <ele>300.30401611328</ele>
        <time>2014-09-10T12:55:42Z</time>
      </trkpt>
      <trkpt lat="43.42561" lon="6.05217">
        <ele>300.30401611328</ele>
        <time>2014-09-10T12:55:51Z</time>
      </trkpt>
      <trkpt lat="43.42561" lon="6.05217">
        <ele>300.29513549805</ele>
        <time>2014-09-10T12:56:28Z</time>
      </trkpt>
      <trkpt lat="43.42561" lon="6.05217">
        <ele>300.29513549805</ele>
        <time>2014-09-10T12:56:54Z</time>
      </trkpt>
      <trkpt lat="43.42561" lon="6.05217">
        <ele>300.29232788086</ele>
        <time>2014-09-10T12:57:01Z</time>
      </trkpt>
      <trkpt lat="43.42561" lon="6.05217">
        <ele>300.28671264648</ele>
        <time>2014-09-10T12:57:03Z</time>
      </trkpt>
      <trkpt lat="43.42566" lon="6.0522">
        <ele>300.10104370117</ele>
        <time>2014-09-10T12:57:06Z</time>
      </trkpt>
      <trkpt lat="43.42577" lon="6.05223">
        <ele>300</ele>
        <time>2014-09-10T12:57:10Z</time>
      </trkpt>
      <trkpt lat="43.4258" lon="6.05224">
        <ele>300</ele>
        <time>2014-09-10T12:57:11Z</time>
      </trkpt>
      <trkpt lat="43.42595" lon="6.05236">
        <ele>300</ele>
        <time>2014-09-10T12:57:16Z</time>
      </trkpt>
      <trkpt lat="43.42603" lon="6.05244">
        <ele>300</ele>
        <time>2014-09-10T12:57:20Z</time>
      </trkpt>
      <trkpt lat="43.42613" lon="6.05253">
        <ele>300</ele>
        <time>2014-09-10T12:57:24Z</time>
      </trkpt>
      <trkpt lat="43.42617" lon="6.05256">
        <ele>300</ele>
        <time>2014-09-10T12:57:26Z</time>
      </trkpt>
      <trkpt lat="43.4262" lon="6.05259">
        <ele>300</ele>
        <time>2014-09-10T12:57:28Z</time>
      </trkpt>
      <trkpt lat="43.42621" lon="6.05259">
        <ele>300</ele>
        <time>2014-09-10T12:57:29Z</time>
      </trkpt>
      <trkpt lat="43.42626" lon="6.05261">
        <ele>300</ele>
        <time>2014-09-10T12:57:32Z</time>
      </trkpt>
      <trkpt lat="43.42627" lon="6.05263">
        <ele>300</ele>
        <time>2014-09-10T12:57:36Z</time>
      </trkpt>
      <trkpt lat="43.42627" lon="6.05263">
        <ele>300</ele>
        <time>2014-09-10T12:57:47Z</time>
      </trkpt>
      <trkpt lat="43.42627" lon="6.05263">
        <ele>300</ele>
        <time>2014-09-10T12:58:25Z</time>
      </trkpt>
      <trkpt lat="43.42627" lon="6.05263">
        <ele>300</ele>
        <time>2014-09-10T12:58:34Z</time>
      </trkpt>
      <trkpt lat="43.42627" lon="6.05264">
        <ele>300</ele>
        <time>2014-09-10T12:58:41Z</time>
      </trkpt>
      <trkpt lat="43.42628" lon="6.05264">
        <ele>300</ele>
        <time>2014-09-10T12:58:46Z</time>
      </trkpt>
      <trkpt lat="43.42628" lon="6.05265">
        <ele>300</ele>
        <time>2014-09-10T12:58:54Z</time>
      </trkpt>
      <trkpt lat="43.42632" lon="6.05268">
        <ele>300</ele>
        <time>2014-09-10T12:58:57Z</time>
      </trkpt>
      <trkpt lat="43.42632" lon="6.0527">
        <ele>300</ele>
        <time>2014-09-10T12:58:58Z</time>
      </trkpt>
      <trkpt lat="43.42634" lon="6.05272">
        <ele>300</ele>
        <time>2014-09-10T12:58:59Z</time>
      </trkpt>
      <trkpt lat="43.42642" lon="6.05279">
        <ele>300</ele>
        <time>2014-09-10T12:59:02Z</time>
      </trkpt>
      <trkpt lat="43.4265" lon="6.05291">
        <ele>300</ele>
        <time>2014-09-10T12:59:06Z</time>
      </trkpt>
      <trkpt lat="43.42653" lon="6.05297">
        <ele>300</ele>
        <time>2014-09-10T12:59:08Z</time>
      </trkpt>
      <trkpt lat="43.4266" lon="6.05306">
        <ele>300</ele>
        <time>2014-09-10T12:59:11Z</time>
      </trkpt>
      <trkpt lat="43.42665" lon="6.05312">
        <ele>300</ele>
        <time>2014-09-10T12:59:13Z</time>
      </trkpt>
      <trkpt lat="43.42673" lon="6.05324">
        <ele>300</ele>
        <time>2014-09-10T12:59:17Z</time>
      </trkpt>
      <trkpt lat="43.42674" lon="6.05326">
        <ele>300</ele>
        <time>2014-09-10T12:59:18Z</time>
      </trkpt>
      <trkpt lat="43.42674" lon="6.05327">
        <ele>300</ele>
        <time>2014-09-10T12:59:19Z</time>
      </trkpt>
      <trkpt lat="43.42675" lon="6.0533">
        <ele>300</ele>
        <time>2014-09-10T12:59:21Z</time>
      </trkpt>
      <trkpt lat="43.42676" lon="6.0533">
        <ele>300</ele>
        <time>2014-09-10T12:59:22Z</time>
      </trkpt>
      <trkpt lat="43.42676" lon="6.0533">
        <ele>300</ele>
        <time>2014-09-10T12:59:23Z</time>
      </trkpt>
      <trkpt lat="43.42676" lon="6.0533">
        <ele>300</ele>
        <time>2014-09-10T12:59:26Z</time>
      </trkpt>
      <trkpt lat="43.42677" lon="6.05331">
        <ele>300</ele>
        <time>2014-09-10T12:59:28Z</time>
      </trkpt>
      <trkpt lat="43.42678" lon="6.05332">
        <ele>300</ele>
        <time>2014-09-10T12:59:30Z</time>
      </trkpt>
      <trkpt lat="43.4268" lon="6.05335">
        <ele>300</ele>
        <time>2014-09-10T12:59:32Z</time>
      </trkpt>
      <trkpt lat="43.42682" lon="6.05339">
        <ele>300</ele>
        <time>2014-09-10T12:59:34Z</time>
      </trkpt>
      <trkpt lat="43.42686" lon="6.0534">
        <ele>300</ele>
        <time>2014-09-10T12:59:37Z</time>
      </trkpt>
      <trkpt lat="43.42688" lon="6.0534">
        <ele>300</ele>
        <time>2014-09-10T12:59:39Z</time>
      </trkpt>
      <trkpt lat="43.42689" lon="6.05342">
        <ele>300</ele>
        <time>2014-09-10T12:59:41Z</time>
      </trkpt>
      <trkpt lat="43.4269" lon="6.05341">
        <ele>300</ele>
        <time>2014-09-10T12:59:42Z</time>
      </trkpt>
      <trkpt lat="43.42689" lon="6.05339">
        <ele>300</ele>
        <time>2014-09-10T12:59:44Z</time>
      </trkpt>
      <trkpt lat="43.42686" lon="6.05339">
        <ele>300</ele>
        <time>2014-09-10T12:59:46Z</time>
      </trkpt>
      <trkpt lat="43.42685" lon="6.05339">
        <ele>300</ele>
        <time>2014-09-10T12:59:47Z</time>
      </trkpt>
      <trkpt lat="43.42684" lon="6.05338">
        <ele>300</ele>
        <time>2014-09-10T12:59:48Z</time>
      </trkpt>
      <trkpt lat="43.42672" lon="6.05324">
        <ele>300</ele>
        <time>2014-09-10T12:59:54Z</time>
      </trkpt>
      <trkpt lat="43.42667" lon="6.05318">
        <ele>300</ele>
        <time>2014-09-10T12:59:58Z</time>
      </trkpt>
      <trkpt lat="43.42667" lon="6.05317">
        <ele>300</ele>
        <time>2014-09-10T13:00:03Z</time>
      </trkpt>
      <trkpt lat="43.42667" lon="6.05317">
        <ele>300</ele>
        <time>2014-09-10T13:00:07Z</time>
      </trkpt>
      <trkpt lat="43.42667" lon="6.05316">
        <ele>300</ele>
        <time>2014-09-10T13:00:14Z</time>
      </trkpt>
      <trkpt lat="43.42667" lon="6.05316">
        <ele>300</ele>
        <time>2014-09-10T13:00:18Z</time>
      </trkpt>
      <trkpt lat="43.42667" lon="6.05316">
        <ele>300</ele>
        <time>2014-09-10T13:00:23Z</time>
      </trkpt>
      <trkpt lat="43.42667" lon="6.05316">
        <ele>300</ele>
        <time>2014-09-10T13:00:24Z</time>
      </trkpt>
      <trkpt lat="43.42669" lon="6.05319">
        <ele>300</ele>
        <time>2014-09-10T13:00:26Z</time>
      </trkpt>
      <trkpt lat="43.4267" lon="6.0532">
        <ele>300</ele>
        <time>2014-09-10T13:00:27Z</time>
      </trkpt>
      <trkpt lat="43.42675" lon="6.05328">
        <ele>300</ele>
        <time>2014-09-10T13:00:30Z</time>
      </trkpt>
      <trkpt lat="43.42676" lon="6.0533">
        <ele>300</ele>
        <time>2014-09-10T13:00:31Z</time>
      </trkpt>
      <trkpt lat="43.42678" lon="6.05332">
        <ele>300</ele>
        <time>2014-09-10T13:00:33Z</time>
      </trkpt>
      <trkpt lat="43.4268" lon="6.05334">
        <ele>300</ele>
        <time>2014-09-10T13:00:35Z</time>
      </trkpt>
      <trkpt lat="43.42682" lon="6.05336">
        <ele>300</ele>
        <time>2014-09-10T13:00:36Z</time>
      </trkpt>
      <trkpt lat="43.42684" lon="6.0534">
        <ele>300</ele>
        <time>2014-09-10T13:00:38Z</time>
      </trkpt>
      <trkpt lat="43.42687" lon="6.05342">
        <ele>300</ele>
        <time>2014-09-10T13:00:40Z</time>
      </trkpt>
      <trkpt lat="43.42693" lon="6.05343">
        <ele>300</ele>
        <time>2014-09-10T13:00:43Z</time>
      </trkpt>
      <trkpt lat="43.42695" lon="6.05342">
        <ele>300</ele>
        <time>2014-09-10T13:00:44Z</time>
      </trkpt>
      <trkpt lat="43.42698" lon="6.05341">
        <ele>300</ele>
        <time>2014-09-10T13:00:45Z</time>
      </trkpt>
      <trkpt lat="43.427" lon="6.0534">
        <ele>300</ele>
        <time>2014-09-10T13:00:46Z</time>
      </trkpt>
      <trkpt lat="43.42713" lon="6.05341">
        <ele>300</ele>
        <time>2014-09-10T13:00:51Z</time>
      </trkpt>
      <trkpt lat="43.42715" lon="6.05342">
        <ele>300</ele>
        <time>2014-09-10T13:00:52Z</time>
      </trkpt>
      <trkpt lat="43.42719" lon="6.0535">
        <ele>300</ele>
        <time>2014-09-10T13:00:56Z</time>
      </trkpt>
      <trkpt lat="43.42718" lon="6.05358">
        <ele>300</ele>
        <time>2014-09-10T13:00:59Z</time>
      </trkpt>
      <trkpt lat="43.42718" lon="6.05362">
        <ele>300</ele>
        <time>2014-09-10T13:01:00Z</time>
      </trkpt>
      <trkpt lat="43.42717" lon="6.05365">
        <ele>300</ele>
        <time>2014-09-10T13:01:01Z</time>
      </trkpt>
      <trkpt lat="43.42716" lon="6.05368">
        <ele>300</ele>
        <time>2014-09-10T13:01:02Z</time>
      </trkpt>
      <trkpt lat="43.42717" lon="6.05382">
        <ele>300</ele>
        <time>2014-09-10T13:01:07Z</time>
      </trkpt>
      <trkpt lat="43.42717" lon="6.05386">
        <ele>300</ele>
        <time>2014-09-10T13:01:09Z</time>
      </trkpt>
      <trkpt lat="43.4272" lon="6.05393">
        <ele>300</ele>
        <time>2014-09-10T13:01:12Z</time>
      </trkpt>
      <trkpt lat="43.42722" lon="6.05398">
        <ele>300</ele>
        <time>2014-09-10T13:01:14Z</time>
      </trkpt>
      <trkpt lat="43.42722" lon="6.054">
        <ele>300</ele>
        <time>2014-09-10T13:01:15Z</time>
      </trkpt>
      <trkpt lat="43.42724" lon="6.05406">
        <ele>300</ele>
        <time>2014-09-10T13:01:18Z</time>
      </trkpt>
      <trkpt lat="43.42725" lon="6.05408">
        <ele>300</ele>
        <time>2014-09-10T13:01:19Z</time>
      </trkpt>
      <trkpt lat="43.42727" lon="6.05414">
        <ele>300</ele>
        <time>2014-09-10T13:01:22Z</time>
      </trkpt>
      <trkpt lat="43.42728" lon="6.05416">
        <ele>300</ele>
        <time>2014-09-10T13:01:23Z</time>
      </trkpt>
      <trkpt lat="43.42728" lon="6.05421">
        <ele>300.11767578125</ele>
        <time>2014-09-10T13:01:25Z</time>
      </trkpt>
      <trkpt lat="43.4273" lon="6.05427">
        <ele>300.26895141602</ele>
        <time>2014-09-10T13:01:28Z</time>
      </trkpt>
      <trkpt lat="43.42731" lon="6.05433">
        <ele>300.40573120117</ele>
        <time>2014-09-10T13:01:30Z</time>
      </trkpt>
      <trkpt lat="43.42731" lon="6.05436">
        <ele>300.4616394043</ele>
        <time>2014-09-10T13:01:31Z</time>
      </trkpt>
      <trkpt lat="43.42731" lon="6.05438">
        <ele>300.52117919922</ele>
        <time>2014-09-10T13:01:32Z</time>
      </trkpt>
      <trkpt lat="43.42731" lon="6.05447">
        <ele>300.8444519043</ele>
        <time>2014-09-10T13:01:35Z</time>
      </trkpt>
      <trkpt lat="43.42731" lon="6.05451">
        <ele>301.17404174805</ele>
        <time>2014-09-10T13:01:37Z</time>
      </trkpt>
      <trkpt lat="43.4273" lon="6.05454">
        <ele>301.44525146484</ele>
        <time>2014-09-10T13:01:39Z</time>
      </trkpt>
      <trkpt lat="43.42726" lon="6.0546">
        <ele>301.99456787109</ele>
        <time>2014-09-10T13:01:42Z</time>
      </trkpt>
      <trkpt lat="43.42724" lon="6.05468">
        <ele>302.61944580078</ele>
        <time>2014-09-10T13:01:45Z</time>
      </trkpt>
      <trkpt lat="43.42724" lon="6.0548">
        <ele>303.23803710938</ele>
        <time>2014-09-10T13:01:49Z</time>
      </trkpt>
      <trkpt lat="43.42724" lon="6.05483">
        <ele>303.33673095703</ele>
        <time>2014-09-10T13:01:50Z</time>
      </trkpt>
      <trkpt lat="43.42725" lon="6.05491">
        <ele>303.65954589844</ele>
        <time>2014-09-10T13:01:53Z</time>
      </trkpt>
      <trkpt lat="43.42726" lon="6.05504">
        <ele>304.32366943359</ele>
        <time>2014-09-10T13:01:58Z</time>
      </trkpt>
      <trkpt lat="43.42728" lon="6.05522">
        <ele>305.73199462891</ele>
        <time>2014-09-10T13:02:05Z</time>
      </trkpt>
      <trkpt lat="43.42728" lon="6.05527">
        <ele>306.13403320312</ele>
        <time>2014-09-10T13:02:07Z</time>
      </trkpt>
      <trkpt lat="43.42728" lon="6.05529">
        <ele>306.36328125</ele>
        <time>2014-09-10T13:02:08Z</time>
      </trkpt>
      <trkpt lat="43.42733" lon="6.05544">
        <ele>307.86666870117</ele>
        <time>2014-09-10T13:02:14Z</time>
      </trkpt>
      <trkpt lat="43.42736" lon="6.05555">
        <ele>308.99377441406</ele>
        <time>2014-09-10T13:02:19Z</time>
      </trkpt>
      <trkpt lat="43.42736" lon="6.05558">
        <ele>309.11972045898</ele>
        <time>2014-09-10T13:02:20Z</time>
      </trkpt>
      <trkpt lat="43.42736" lon="6.0556">
        <ele>309.24276733398</ele>
        <time>2014-09-10T13:02:21Z</time>
      </trkpt>
      <trkpt lat="43.42736" lon="6.05562">
        <ele>309.36734008789</ele>
        <time>2014-09-10T13:02:22Z</time>
      </trkpt>
      <trkpt lat="43.42737" lon="6.05564">
        <ele>309.48849487305</ele>
        <time>2014-09-10T13:02:23Z</time>
      </trkpt>
      <trkpt lat="43.42738" lon="6.05567">
        <ele>309.6657409668</ele>
        <time>2014-09-10T13:02:26Z</time>
      </trkpt>
      <trkpt lat="43.42739" lon="6.05567">
        <ele>309.67739868164</ele>
        <time>2014-09-10T13:02:32Z</time>
      </trkpt>
      <trkpt lat="43.42739" lon="6.05567">
        <ele>309.67739868164</ele>
        <time>2014-09-10T13:02:49Z</time>
      </trkpt>
      <trkpt lat="43.42739" lon="6.05568">
        <ele>309.68560791016</ele>
        <time>2014-09-10T13:02:54Z</time>
      </trkpt>
      <trkpt lat="43.42739" lon="6.05567">
        <ele>309.67739868164</ele>
        <time>2014-09-10T13:02:58Z</time>
      </trkpt>
      <trkpt lat="43.42739" lon="6.05567">
        <ele>309.67739868164</ele>
        <time>2014-09-10T13:03:01Z</time>
      </trkpt>
      <trkpt lat="43.4274" lon="6.0557">
        <ele>309.8564453125</ele>
        <time>2014-09-10T13:03:04Z</time>
      </trkpt>
      <trkpt lat="43.42741" lon="6.05572">
        <ele>309.96853637695</ele>
        <time>2014-09-10T13:03:05Z</time>
      </trkpt>
      <trkpt lat="43.42747" lon="6.05577">
        <ele>310.43725585938</ele>
        <time>2014-09-10T13:03:11Z</time>
      </trkpt>
      <trkpt lat="43.42749" lon="6.05578">
        <ele>310.59948730469</ele>
        <time>2014-09-10T13:03:13Z</time>
      </trkpt>
      <trkpt lat="43.42749" lon="6.0558">
        <ele>310.72387695312</ele>
        <time>2014-09-10T13:03:14Z</time>
      </trkpt>
      <trkpt lat="43.42751" lon="6.05587">
        <ele>311.44177246094</ele>
        <time>2014-09-10T13:03:18Z</time>
      </trkpt>
      <trkpt lat="43.42753" lon="6.05595">
        <ele>312.51538085938</ele>
        <time>2014-09-10T13:03:22Z</time>
      </trkpt>
      <trkpt lat="43.42753" lon="6.056">
        <ele>313.04266357422</ele>
        <time>2014-09-10T13:03:24Z</time>
      </trkpt>
      <trkpt lat="43.42752" lon="6.05603">
        <ele>313.29959106445</ele>
        <time>2014-09-10T13:03:25Z</time>
      </trkpt>
      <trkpt lat="43.42751" lon="6.05608">
        <ele>313.71295166016</ele>
        <time>2014-09-10T13:03:27Z</time>
      </trkpt>
      <trkpt lat="43.4275" lon="6.05612">
        <ele>314.0419921875</ele>
        <time>2014-09-10T13:03:29Z</time>
      </trkpt>
      <trkpt lat="43.42749" lon="6.05616">
        <ele>314.28576660156</ele>
        <time>2014-09-10T13:03:31Z</time>
      </trkpt>
      <trkpt lat="43.42746" lon="6.05625">
        <ele>314.83508300781</ele>
        <time>2014-09-10T13:03:35Z</time>
      </trkpt>
      <trkpt lat="43.42744" lon="6.0563">
        <ele>315.13031005859</ele>
        <time>2014-09-10T13:03:37Z</time>
      </trkpt>
      <trkpt lat="43.42743" lon="6.05632">
        <ele>315.22988891602</ele>
        <time>2014-09-10T13:03:38Z</time>
      </trkpt>
      <trkpt lat="43.42739" lon="6.05635">
        <ele>315.31573486328</ele>
        <time>2014-09-10T13:03:40Z</time>
      </trkpt>
      <trkpt lat="43.42736" lon="6.05637">
        <ele>315.38781738281</ele>
        <time>2014-09-10T13:03:42Z</time>
      </trkpt>
      <trkpt lat="43.42733" lon="6.05641">
        <ele>315.49969482422</ele>
        <time>2014-09-10T13:03:44Z</time>
      </trkpt>
      <trkpt lat="43.42728" lon="6.0565">
        <ele>315.92651367188</ele>
        <time>2014-09-10T13:03:48Z</time>
      </trkpt>
      <trkpt lat="43.42722" lon="6.05666">
        <ele>316.92578125</ele>
        <time>2014-09-10T13:03:55Z</time>
      </trkpt>
      <trkpt lat="43.4272" lon="6.0567">
        <ele>317.3212890625</ele>
        <time>2014-09-10T13:03:57Z</time>
      </trkpt>
      <trkpt lat="43.4272" lon="6.05672">
        <ele>317.53756713867</ele>
        <time>2014-09-10T13:03:58Z</time>
      </trkpt>
      <trkpt lat="43.4272" lon="6.05673">
        <ele>317.70751953125</ele>
        <time>2014-09-10T13:03:59Z</time>
      </trkpt>
      <trkpt lat="43.42719" lon="6.05674">
        <ele>317.83627319336</ele>
        <time>2014-09-10T13:04:00Z</time>
      </trkpt>
      <trkpt lat="43.42717" lon="6.05675">
        <ele>317.90835571289</ele>
        <time>2014-09-10T13:04:01Z</time>
      </trkpt>
      <trkpt lat="43.42715" lon="6.05676">
        <ele>317.99075317383</ele>
        <time>2014-09-10T13:04:02Z</time>
      </trkpt>
      <trkpt lat="43.4271" lon="6.05679">
        <ele>318.32034301758</ele>
        <time>2014-09-10T13:04:05Z</time>
      </trkpt>
      <trkpt lat="43.42708" lon="6.05682">
        <ele>318.61389160156</ele>
        <time>2014-09-10T13:04:07Z</time>
      </trkpt>
      <trkpt lat="43.42707" lon="6.05683">
        <ele>318.78384399414</ele>
        <time>2014-09-10T13:04:08Z</time>
      </trkpt>
      <trkpt lat="43.42706" lon="6.05689">
        <ele>319.43786621094</ele>
        <time>2014-09-10T13:04:11Z</time>
      </trkpt>
      <trkpt lat="43.42705" lon="6.05692">
        <ele>319.77777099609</ele>
        <time>2014-09-10T13:04:12Z</time>
      </trkpt>
      <trkpt lat="43.42704" lon="6.05698">
        <ele>320.04248046875</ele>
        <time>2014-09-10T13:04:14Z</time>
      </trkpt>
      <trkpt lat="43.42702" lon="6.05708">
        <ele>320.13290405273</ele>
        <time>2014-09-10T13:04:18Z</time>
      </trkpt>
      <trkpt lat="43.42702" lon="6.0571">
        <ele>320.14294433594</ele>
        <time>2014-09-10T13:04:19Z</time>
      </trkpt>
      <trkpt lat="43.42701" lon="6.05712">
        <ele>320.14846801758</ele>
        <time>2014-09-10T13:04:20Z</time>
      </trkpt>
      <trkpt lat="43.42701" lon="6.05715">
        <ele>320.16632080078</ele>
        <time>2014-09-10T13:04:21Z</time>
      </trkpt>
      <trkpt lat="43.42699" lon="6.0572">
        <ele>320.1623840332</ele>
        <time>2014-09-10T13:04:23Z</time>
      </trkpt>
      <trkpt lat="43.42696" lon="6.05725">
        <ele>320.32272338867</ele>
        <time>2014-09-10T13:04:26Z</time>
      </trkpt>
      <trkpt lat="43.42696" lon="6.05729">
        <ele>320.79028320312</ele>
        <time>2014-09-10T13:04:28Z</time>
      </trkpt>
      <trkpt lat="43.42698" lon="6.05734">
        <ele>321.30087280273</ele>
        <time>2014-09-10T13:04:31Z</time>
      </trkpt>
      <trkpt lat="43.42699" lon="6.05735">
        <ele>321.41488647461</ele>
        <time>2014-09-10T13:04:32Z</time>
      </trkpt>
      <trkpt lat="43.42699" lon="6.05735">
        <ele>321.46405029297</ele>
        <time>2014-09-10T13:04:33Z</time>
      </trkpt>
      <trkpt lat="43.427" lon="6.05736">
        <ele>321.56530761719</ele>
        <time>2014-09-10T13:04:34Z</time>
      </trkpt>
      <trkpt lat="43.42701" lon="6.05736">
        <ele>321.63638305664</ele>
        <time>2014-09-10T13:04:35Z</time>
      </trkpt>
      <trkpt lat="43.42702" lon="6.05737">
        <ele>321.68942260742</ele>
        <time>2014-09-10T13:04:37Z</time>
      </trkpt>
      <trkpt lat="43.42703" lon="6.05737">
        <ele>321.73687744141</ele>
        <time>2014-09-10T13:04:38Z</time>
      </trkpt>
      <trkpt lat="43.42708" lon="6.05737">
        <ele>321.82092285156</ele>
        <time>2014-09-10T13:04:41Z</time>
      </trkpt>
      <trkpt lat="43.42712" lon="6.05737">
        <ele>321.89776611328</ele>
        <time>2014-09-10T13:04:43Z</time>
      </trkpt>
      <trkpt lat="43.42727" lon="6.05739">
        <ele>322.21640014648</ele>
        <time>2014-09-10T13:04:50Z</time>
      </trkpt>
      <trkpt lat="43.4273" lon="6.0574">
        <ele>322.25759887695</ele>
        <time>2014-09-10T13:04:52Z</time>
      </trkpt>
      <trkpt lat="43.42742" lon="6.0574">
        <ele>322.26446533203</ele>
        <time>2014-09-10T13:04:59Z</time>
      </trkpt>
      <trkpt lat="43.4275" lon="6.05742">
        <ele>322.39147949219</ele>
        <time>2014-09-10T13:05:04Z</time>
      </trkpt>
      <trkpt lat="43.42754" lon="6.0574">
        <ele>322.31857299805</ele>
        <time>2014-09-10T13:05:06Z</time>
      </trkpt>
      <trkpt lat="43.42756" lon="6.05736">
        <ele>322.1282043457</ele>
        <time>2014-09-10T13:05:08Z</time>
      </trkpt>
      <trkpt lat="43.42762" lon="6.05731">
        <ele>321.91036987305</ele>
        <time>2014-09-10T13:05:11Z</time>
      </trkpt>
      <trkpt lat="43.42775" lon="6.05729">
        <ele>322.1799621582</ele>
        <time>2014-09-10T13:05:17Z</time>
      </trkpt>
      <trkpt lat="43.42781" lon="6.05732">
        <ele>322.46911621094</ele>
        <time>2014-09-10T13:05:20Z</time>
      </trkpt>
      <trkpt lat="43.42783" lon="6.05734">
        <ele>322.61676025391</ele>
        <time>2014-09-10T13:05:22Z</time>
      </trkpt>
      <trkpt lat="43.42788" lon="6.05735">
        <ele>322.81243896484</ele>
        <time>2014-09-10T13:05:26Z</time>
      </trkpt>
      <trkpt lat="43.42789" lon="6.05735">
        <ele>322.86050415039</ele>
        <time>2014-09-10T13:05:27Z</time>
      </trkpt>
      <trkpt lat="43.4279" lon="6.05737">
        <ele>322.96520996094</ele>
        <time>2014-09-10T13:05:28Z</time>
      </trkpt>
      <trkpt lat="43.42793" lon="6.0574">
        <ele>323.17636108398</ele>
        <time>2014-09-10T13:05:31Z</time>
      </trkpt>
      <trkpt lat="43.42794" lon="6.0574">
        <ele>323.24847412109</ele>
        <time>2014-09-10T13:05:32Z</time>
      </trkpt>
      <trkpt lat="43.42797" lon="6.05742">
        <ele>323.39437866211</ele>
        <time>2014-09-10T13:05:35Z</time>
      </trkpt>
      <trkpt lat="43.42799" lon="6.05742">
        <ele>323.45101928711</ele>
        <time>2014-09-10T13:05:36Z</time>
      </trkpt>
      <trkpt lat="43.42801" lon="6.05742">
        <ele>323.55572509766</ele>
        <time>2014-09-10T13:05:38Z</time>
      </trkpt>
      <trkpt lat="43.42803" lon="6.05742">
        <ele>323.62268066406</ele>
        <time>2014-09-10T13:05:39Z</time>
      </trkpt>
      <trkpt lat="43.42809" lon="6.05739">
        <ele>323.54672241211</ele>
        <time>2014-09-10T13:05:42Z</time>
      </trkpt>
      <trkpt lat="43.42814" lon="6.05735">
        <ele>323.31396484375</ele>
        <time>2014-09-10T13:05:45Z</time>
      </trkpt>
      <trkpt lat="43.42818" lon="6.05735">
        <ele>323.24859619141</ele>
        <time>2014-09-10T13:05:47Z</time>
      </trkpt>
      <trkpt lat="43.42825" lon="6.05734">
        <ele>323.11904907227</ele>
        <time>2014-09-10T13:05:50Z</time>
      </trkpt>
      <trkpt lat="43.42828" lon="6.05734">
        <ele>323.07278442383</ele>
        <time>2014-09-10T13:05:52Z</time>
      </trkpt>
      <trkpt lat="43.4283" lon="6.05739">
        <ele>323.06561279297</ele>
        <time>2014-09-10T13:05:56Z</time>
      </trkpt>
      <trkpt lat="43.4283" lon="6.0574">
        <ele>323.08123779297</ele>
        <time>2014-09-10T13:05:57Z</time>
      </trkpt>
      <trkpt lat="43.4283" lon="6.05755">
        <ele>323.28643798828</ele>
        <time>2014-09-10T13:06:03Z</time>
      </trkpt>
      <trkpt lat="43.42826" lon="6.05777">
        <ele>324.20654296875</ele>
        <time>2014-09-10T13:06:09Z</time>
      </trkpt>
      <trkpt lat="43.42823" lon="6.05804">
        <ele>324.37097167969</ele>
        <time>2014-09-10T13:06:15Z</time>
      </trkpt>
      <trkpt lat="43.42823" lon="6.05808">
        <ele>324.52655029297</ele>
        <time>2014-09-10T13:06:16Z</time>
      </trkpt>
      <trkpt lat="43.42821" lon="6.05823">
        <ele>325.31860351562</ele>
        <time>2014-09-10T13:06:19Z</time>
      </trkpt>
      <trkpt lat="43.42818" lon="6.05831">
        <ele>325.93743896484</ele>
        <time>2014-09-10T13:06:21Z</time>
      </trkpt>
      <trkpt lat="43.42817" lon="6.05834">
        <ele>326.25677490234</ele>
        <time>2014-09-10T13:06:23Z</time>
      </trkpt>
      <trkpt lat="43.42817" lon="6.05836">
        <ele>326.43685913086</ele>
        <time>2014-09-10T13:06:24Z</time>
      </trkpt>
      <trkpt lat="43.42816" lon="6.05838">
        <ele>326.62841796875</ele>
        <time>2014-09-10T13:06:25Z</time>
      </trkpt>
      <trkpt lat="43.42816" lon="6.0584">
        <ele>326.74359130859</ele>
        <time>2014-09-10T13:06:26Z</time>
      </trkpt>
      <trkpt lat="43.42815" lon="6.05843">
        <ele>327.13922119141</ele>
        <time>2014-09-10T13:06:28Z</time>
      </trkpt>
      <trkpt lat="43.42815" lon="6.05845">
        <ele>327.33749389648</ele>
        <time>2014-09-10T13:06:29Z</time>
      </trkpt>
      <trkpt lat="43.42813" lon="6.0585">
        <ele>327.96343994141</ele>
        <time>2014-09-10T13:06:32Z</time>
      </trkpt>
      <trkpt lat="43.42812" lon="6.05852">
        <ele>328.23846435547</ele>
        <time>2014-09-10T13:06:33Z</time>
      </trkpt>
      <trkpt lat="43.42811" lon="6.05854">
        <ele>328.52163696289</ele>
        <time>2014-09-10T13:06:34Z</time>
      </trkpt>
      <trkpt lat="43.42811" lon="6.05856">
        <ele>328.74948120117</ele>
        <time>2014-09-10T13:06:35Z</time>
      </trkpt>
      <trkpt lat="43.42808" lon="6.05863">
        <ele>329.63256835938</ele>
        <time>2014-09-10T13:06:38Z</time>
      </trkpt>
      <trkpt lat="43.42807" lon="6.05864">
        <ele>329.79733276367</ele>
        <time>2014-09-10T13:06:39Z</time>
      </trkpt>
      <trkpt lat="43.42805" lon="6.05868">
        <ele>330</ele>
        <time>2014-09-10T13:06:41Z</time>
      </trkpt>
      <trkpt lat="43.42805" lon="6.05869">
        <ele>330</ele>
        <time>2014-09-10T13:06:42Z</time>
      </trkpt>
      <trkpt lat="43.42804" lon="6.05871">
        <ele>330</ele>
        <time>2014-09-10T13:06:43Z</time>
      </trkpt>
      <trkpt lat="43.42804" lon="6.05873">
        <ele>330</ele>
        <time>2014-09-10T13:06:44Z</time>
      </trkpt>
      <trkpt lat="43.42803" lon="6.05874">
        <ele>330</ele>
        <time>2014-09-10T13:06:45Z</time>
      </trkpt>
      <trkpt lat="43.42798" lon="6.05884">
        <ele>330</ele>
        <time>2014-09-10T13:06:51Z</time>
      </trkpt>
      <trkpt lat="43.42798" lon="6.05886">
        <ele>330</ele>
        <time>2014-09-10T13:06:52Z</time>
      </trkpt>
      <trkpt lat="43.42797" lon="6.05888">
        <ele>330</ele>
        <time>2014-09-10T13:06:53Z</time>
      </trkpt>
      <trkpt lat="43.42797" lon="6.05889">
        <ele>330</ele>
        <time>2014-09-10T13:06:54Z</time>
      </trkpt>
      <trkpt lat="43.42796" lon="6.0589">
        <ele>330</ele>
        <time>2014-09-10T13:06:55Z</time>
      </trkpt>
      <trkpt lat="43.42796" lon="6.05891">
        <ele>330</ele>
        <time>2014-09-10T13:06:56Z</time>
      </trkpt>
      <trkpt lat="43.42794" lon="6.05893">
        <ele>330</ele>
        <time>2014-09-10T13:06:58Z</time>
      </trkpt>
      <trkpt lat="43.42793" lon="6.05897">
        <ele>330</ele>
        <time>2014-09-10T13:07:01Z</time>
      </trkpt>
      <trkpt lat="43.42792" lon="6.05899">
        <ele>330</ele>
        <time>2014-09-10T13:07:02Z</time>
      </trkpt>
      <trkpt lat="43.4279" lon="6.05901">
        <ele>330</ele>
        <time>2014-09-10T13:07:04Z</time>
      </trkpt>
      <trkpt lat="43.42789" lon="6.05906">
        <ele>330</ele>
        <time>2014-09-10T13:07:09Z</time>
      </trkpt>
      <trkpt lat="43.4279" lon="6.05905">
        <ele>330</ele>
        <time>2014-09-10T13:07:10Z</time>
      </trkpt>
      <trkpt lat="43.42791" lon="6.05903">
        <ele>330</ele>
        <time>2014-09-10T13:07:11Z</time>
      </trkpt>
      <trkpt lat="43.42791" lon="6.05901">
        <ele>330</ele>
        <time>2014-09-10T13:07:12Z</time>
      </trkpt>
      <trkpt lat="43.42791" lon="6.05898">
        <ele>330</ele>
        <time>2014-09-10T13:07:13Z</time>
      </trkpt>
      <trkpt lat="43.42793" lon="6.05895">
        <ele>330</ele>
        <time>2014-09-10T13:07:14Z</time>
      </trkpt>
      <trkpt lat="43.42797" lon="6.05887">
        <ele>330</ele>
        <time>2014-09-10T13:07:16Z</time>
      </trkpt>
      <trkpt lat="43.42804" lon="6.05871">
        <ele>330</ele>
        <time>2014-09-10T13:07:19Z</time>
      </trkpt>
      <trkpt lat="43.42807" lon="6.05864">
        <ele>329.7958984375</ele>
        <time>2014-09-10T13:07:20Z</time>
      </trkpt>
      <trkpt lat="43.4281" lon="6.05857">
        <ele>328.91333007812</ele>
        <time>2014-09-10T13:07:21Z</time>
      </trkpt>
      <trkpt lat="43.42813" lon="6.05849">
        <ele>327.86480712891</ele>
        <time>2014-09-10T13:07:22Z</time>
      </trkpt>
      <trkpt lat="43.42816" lon="6.05842">
        <ele>326.99099731445</ele>
        <time>2014-09-10T13:07:23Z</time>
      </trkpt>
      <trkpt lat="43.42822" lon="6.05827">
        <ele>325.51678466797</ele>
        <time>2014-09-10T13:07:25Z</time>
      </trkpt>
      <trkpt lat="43.42825" lon="6.05819">
        <ele>324.94110107422</ele>
        <time>2014-09-10T13:07:26Z</time>
      </trkpt>
      <trkpt lat="43.42825" lon="6.0581">
        <ele>324.48251342773</ele>
        <time>2014-09-10T13:07:27Z</time>
      </trkpt>
      <trkpt lat="43.42826" lon="6.058">
        <ele>324.26110839844</ele>
        <time>2014-09-10T13:07:28Z</time>
      </trkpt>
      <trkpt lat="43.42826" lon="6.05791">
        <ele>324.24737548828</ele>
        <time>2014-09-10T13:07:29Z</time>
      </trkpt>
      <trkpt lat="43.42827" lon="6.05781">
        <ele>324.21990966797</ele>
        <time>2014-09-10T13:07:30Z</time>
      </trkpt>
      <trkpt lat="43.42828" lon="6.05772">
        <ele>323.98852539062</ele>
        <time>2014-09-10T13:07:31Z</time>
      </trkpt>
      <trkpt lat="43.42829" lon="6.05764">
        <ele>323.6572265625</ele>
        <time>2014-09-10T13:07:32Z</time>
      </trkpt>
      <trkpt lat="43.4283" lon="6.05756">
        <ele>323.36883544922</ele>
        <time>2014-09-10T13:07:33Z</time>
      </trkpt>
      <trkpt lat="43.42831" lon="6.05742">
        <ele>323.05944824219</ele>
        <time>2014-09-10T13:07:35Z</time>
      </trkpt>
      <trkpt lat="43.42831" lon="6.05735">
        <ele>323.04302978516</ele>
        <time>2014-09-10T13:07:37Z</time>
      </trkpt>
      <trkpt lat="43.4283" lon="6.05735">
        <ele>323.04879760742</ele>
        <time>2014-09-10T13:07:38Z</time>
      </trkpt>
      <trkpt lat="43.4283" lon="6.05735">
        <ele>323.04992675781</ele>
        <time>2014-09-10T13:07:44Z</time>
      </trkpt>
      <trkpt lat="43.4283" lon="6.05735">
        <ele>323.04992675781</ele>
        <time>2014-09-10T13:07:54Z</time>
      </trkpt>
      <trkpt lat="43.4283" lon="6.05735">
        <ele>323.04992675781</ele>
        <time>2014-09-10T13:08:16Z</time>
      </trkpt>
      <trkpt lat="43.4283" lon="6.05735">
        <ele>323.05529785156</ele>
        <time>2014-09-10T13:08:22Z</time>
      </trkpt>
      <trkpt lat="43.4283" lon="6.05735">
        <ele>323.05529785156</ele>
        <time>2014-09-10T13:08:29Z</time>
      </trkpt>
      <trkpt lat="43.4283" lon="6.05734">
        <ele>323.05465698242</ele>
        <time>2014-09-10T13:09:23Z</time>
      </trkpt>
      <trkpt lat="43.4283" lon="6.05735">
        <ele>323.05572509766</ele>
        <time>2014-09-10T13:09:59Z</time>
      </trkpt>
      <trkpt lat="43.4283" lon="6.05735">
        <ele>323.05572509766</ele>
        <time>2014-09-10T13:10:10Z</time>
      </trkpt>
      <trkpt lat="43.4283" lon="6.05735">
        <ele>323.05572509766</ele>
        <time>2014-09-10T13:10:35Z</time>
      </trkpt>
      <trkpt lat="43.4283" lon="6.05735">
        <ele>323.06216430664</ele>
        <time>2014-09-10T13:10:40Z</time>
      </trkpt>
      <trkpt lat="43.4283" lon="6.05735">
        <ele>323.06216430664</ele>
        <time>2014-09-10T13:10:44Z</time>
      </trkpt>
      <trkpt lat="43.42829" lon="6.05735">
        <ele>323.07769775391</ele>
        <time>2014-09-10T13:10:54Z</time>
      </trkpt>
      <trkpt lat="43.42829" lon="6.05735">
        <ele>323.07684326172</ele>
        <time>2014-09-10T13:10:55Z</time>
      </trkpt>
      <trkpt lat="43.42829" lon="6.05735">
        <ele>323.07684326172</ele>
        <time>2014-09-10T13:11:22Z</time>
      </trkpt>
      <trkpt lat="43.42829" lon="6.05735">
        <ele>323.07626342773</ele>
        <time>2014-09-10T13:11:42Z</time>
      </trkpt>
      <trkpt lat="43.42829" lon="6.05735">
        <ele>323.07626342773</ele>
        <time>2014-09-10T13:12:01Z</time>
      </trkpt>
      <trkpt lat="43.42829" lon="6.05735">
        <ele>323.07626342773</ele>
        <time>2014-09-10T13:12:13Z</time>
      </trkpt>
      <trkpt lat="43.42829" lon="6.05735">
        <ele>323.06732177734</ele>
        <time>2014-09-10T13:12:18Z</time>
      </trkpt>
      <trkpt lat="43.42829" lon="6.05735">
        <ele>323.06732177734</ele>
        <time>2014-09-10T13:12:30Z</time>
      </trkpt>
      <trkpt lat="43.4283" lon="6.05735">
        <ele>323.06167602539</ele>
        <time>2014-09-10T13:12:33Z</time>
      </trkpt>
      <trkpt lat="43.4283" lon="6.05735">
        <ele>323.05508422852</ele>
        <time>2014-09-10T13:12:35Z</time>
      </trkpt>
      <trkpt lat="43.4283" lon="6.05734">
        <ele>323.04748535156</ele>
        <time>2014-09-10T13:12:36Z</time>
      </trkpt>
      <trkpt lat="43.42834" lon="6.0573">
        <ele>322.93731689453</ele>
        <time>2014-09-10T13:12:39Z</time>
      </trkpt>
      <trkpt lat="43.42839" lon="6.0572">
        <ele>322.5260925293</ele>
        <time>2014-09-10T13:12:45Z</time>
      </trkpt>
      <trkpt lat="43.42844" lon="6.05685">
        <ele>321.60192871094</ele>
        <time>2014-09-10T13:12:58Z</time>
      </trkpt>
      <trkpt lat="43.42847" lon="6.05667">
        <ele>321.51953125</ele>
        <time>2014-09-10T13:13:03Z</time>
      </trkpt>
      <trkpt lat="43.4285" lon="6.05644">
        <ele>321.88912963867</ele>
        <time>2014-09-10T13:13:08Z</time>
      </trkpt>
      <trkpt lat="43.42853" lon="6.05609">
        <ele>322.06958007812</ele>
        <time>2014-09-10T13:13:14Z</time>
      </trkpt>
      <trkpt lat="43.42855" lon="6.05588">
        <ele>322.82489013672</ele>
        <time>2014-09-10T13:13:19Z</time>
      </trkpt>
      <trkpt lat="43.42858" lon="6.05559">
        <ele>322.8955078125</ele>
        <time>2014-09-10T13:13:24Z</time>
      </trkpt>
      <trkpt lat="43.4286" lon="6.05547">
        <ele>322.97485351562</ele>
        <time>2014-09-10T13:13:26Z</time>
      </trkpt>
      <trkpt lat="43.42865" lon="6.05542">
        <ele>323</ele>
        <time>2014-09-10T13:13:28Z</time>
      </trkpt>
      <trkpt lat="43.42876" lon="6.05544">
        <ele>323</ele>
        <time>2014-09-10T13:13:32Z</time>
      </trkpt>
      <trkpt lat="43.42892" lon="6.05554">
        <ele>322.70449829102</ele>
        <time>2014-09-10T13:13:37Z</time>
      </trkpt>
      <trkpt lat="43.42899" lon="6.05555">
        <ele>321.91775512695</ele>
        <time>2014-09-10T13:13:39Z</time>
      </trkpt>
      <trkpt lat="43.42903" lon="6.05555">
        <ele>321.51477050781</ele>
        <time>2014-09-10T13:13:40Z</time>
      </trkpt>
      <trkpt lat="43.42913" lon="6.0555">
        <ele>320.56539916992</ele>
        <time>2014-09-10T13:13:43Z</time>
      </trkpt>
      <trkpt lat="43.42929" lon="6.05538">
        <ele>320.88668823242</ele>
        <time>2014-09-10T13:13:48Z</time>
      </trkpt>
      <trkpt lat="43.42936" lon="6.05531">
        <ele>321.48461914062</ele>
        <time>2014-09-10T13:13:51Z</time>
      </trkpt>
      <trkpt lat="43.42939" lon="6.05532">
        <ele>321.54580688477</ele>
        <time>2014-09-10T13:13:52Z</time>
      </trkpt>
      <trkpt lat="43.42949" lon="6.05529">
        <ele>322.23358154297</ele>
        <time>2014-09-10T13:13:55Z</time>
      </trkpt>
      <trkpt lat="43.42952" lon="6.05527">
        <ele>322.54580688477</ele>
        <time>2014-09-10T13:13:56Z</time>
      </trkpt>
      <trkpt lat="43.42964" lon="6.05518">
        <ele>323.49658203125</ele>
        <time>2014-09-10T13:14:01Z</time>
      </trkpt>
      <trkpt lat="43.42972" lon="6.05514">
        <ele>323.97720336914</ele>
        <time>2014-09-10T13:14:05Z</time>
      </trkpt>
      <trkpt lat="43.42976" lon="6.05511">
        <ele>323.70068359375</ele>
        <time>2014-09-10T13:14:07Z</time>
      </trkpt>
      <trkpt lat="43.42979" lon="6.0551">
        <ele>323.53588867188</ele>
        <time>2014-09-10T13:14:08Z</time>
      </trkpt>
      <trkpt lat="43.42981" lon="6.05508">
        <ele>323.37109375</ele>
        <time>2014-09-10T13:14:09Z</time>
      </trkpt>
      <trkpt lat="43.42983" lon="6.05506">
        <ele>323.20629882812</ele>
        <time>2014-09-10T13:14:10Z</time>
      </trkpt>
      <trkpt lat="43.42986" lon="6.05505">
        <ele>323.04150390625</ele>
        <time>2014-09-10T13:14:11Z</time>
      </trkpt>
      <trkpt lat="43.4299" lon="6.05503">
        <ele>322.7119140625</ele>
        <time>2014-09-10T13:14:13Z</time>
      </trkpt>
      <trkpt lat="43.42992" lon="6.05503">
        <ele>322.60205078125</ele>
        <time>2014-09-10T13:14:14Z</time>
      </trkpt>
      <trkpt lat="43.42993" lon="6.05503">
        <ele>322.51965332031</ele>
        <time>2014-09-10T13:14:15Z</time>
      </trkpt>
      <trkpt lat="43.42994" lon="6.05503">
        <ele>322.40979003906</ele>
        <time>2014-09-10T13:14:16Z</time>
      </trkpt>
      <trkpt lat="43.42996" lon="6.05503">
        <ele>322.2724609375</ele>
        <time>2014-09-10T13:14:17Z</time>
      </trkpt>
      <trkpt lat="43.42998" lon="6.05503">
        <ele>322.16259765625</ele>
        <time>2014-09-10T13:14:18Z</time>
      </trkpt>
      <trkpt lat="43.43002" lon="6.05503">
        <ele>321.91650390625</ele>
        <time>2014-09-10T13:14:21Z</time>
      </trkpt>
      <trkpt lat="43.43003" lon="6.05502">
        <ele>321.87530517578</ele>
        <time>2014-09-10T13:14:22Z</time>
      </trkpt>
      <trkpt lat="43.43005" lon="6.05502">
        <ele>321.83410644531</ele>
        <time>2014-09-10T13:14:23Z</time>
      </trkpt>
      <trkpt lat="43.43005" lon="6.05501">
        <ele>321.806640625</ele>
        <time>2014-09-10T13:14:24Z</time>
      </trkpt>
      <trkpt lat="43.43005" lon="6.05501">
        <ele>321.806640625</ele>
        <time>2014-09-10T13:14:25Z</time>
      </trkpt>
      <trkpt lat="43.43005" lon="6.05501">
        <ele>321.806640625</ele>
        <time>2014-09-10T13:14:30Z</time>
      </trkpt>
      <trkpt lat="43.43006" lon="6.05502">
        <ele>321.79290771484</ele>
        <time>2014-09-10T13:15:00Z</time>
      </trkpt>
      <trkpt lat="43.43006" lon="6.05502">
        <ele>321.79290771484</ele>
        <time>2014-09-10T13:15:03Z</time>
      </trkpt>
      <trkpt lat="43.43007" lon="6.05505">
        <ele>321.73797607422</ele>
        <time>2014-09-10T13:15:05Z</time>
      </trkpt>
      <trkpt lat="43.43014" lon="6.05515">
        <ele>321.50451660156</ele>
        <time>2014-09-10T13:15:09Z</time>
      </trkpt>
      <trkpt lat="43.43016" lon="6.05531">
        <ele>321.40838623047</ele>
        <time>2014-09-10T13:15:12Z</time>
      </trkpt>
      <trkpt lat="43.43017" lon="6.05538">
        <ele>321.38092041016</ele>
        <time>2014-09-10T13:15:13Z</time>
      </trkpt>
      <trkpt lat="43.43021" lon="6.0555">
        <ele>321.24359130859</ele>
        <time>2014-09-10T13:15:15Z</time>
      </trkpt>
      <trkpt lat="43.43023" lon="6.05556">
        <ele>321.16540527344</ele>
        <time>2014-09-10T13:15:16Z</time>
      </trkpt>
      <trkpt lat="43.43024" lon="6.05562">
        <ele>320.9147644043</ele>
        <time>2014-09-10T13:15:17Z</time>
      </trkpt>
      <trkpt lat="43.43024" lon="6.05568">
        <ele>320.69848632812</ele>
        <time>2014-09-10T13:15:18Z</time>
      </trkpt>
      <trkpt lat="43.43024" lon="6.05573">
        <ele>320.52166748047</ele>
        <time>2014-09-10T13:15:19Z</time>
      </trkpt>
      <trkpt lat="43.43026" lon="6.05578">
        <ele>320.22640991211</ele>
        <time>2014-09-10T13:15:21Z</time>
      </trkpt>
      <trkpt lat="43.43029" lon="6.05591">
        <ele>320</ele>
        <time>2014-09-10T13:15:24Z</time>
      </trkpt>
      <trkpt lat="43.4303" lon="6.05609">
        <ele>320</ele>
        <time>2014-09-10T13:15:27Z</time>
      </trkpt>
      <trkpt lat="43.43029" lon="6.05615">
        <ele>320</ele>
        <time>2014-09-10T13:15:28Z</time>
      </trkpt>
      <trkpt lat="43.43028" lon="6.05626">
        <ele>320</ele>
        <time>2014-09-10T13:15:30Z</time>
      </trkpt>
      <trkpt lat="43.43027" lon="6.05632">
        <ele>320.01013183594</ele>
        <time>2014-09-10T13:15:31Z</time>
      </trkpt>
      <trkpt lat="43.43026" lon="6.05645">
        <ele>320.07879638672</ele>
        <time>2014-09-10T13:15:33Z</time>
      </trkpt>
      <trkpt lat="43.43025" lon="6.05652">
        <ele>320.09252929688</ele>
        <time>2014-09-10T13:15:34Z</time>
      </trkpt>
      <trkpt lat="43.43026" lon="6.05668">
        <ele>320.06506347656</ele>
        <time>2014-09-10T13:15:37Z</time>
      </trkpt>
      <trkpt lat="43.43027" lon="6.05672">
        <ele>320.02386474609</ele>
        <time>2014-09-10T13:15:38Z</time>
      </trkpt>
      <trkpt lat="43.43029" lon="6.05682">
        <ele>320</ele>
        <time>2014-09-10T13:15:40Z</time>
      </trkpt>
      <trkpt lat="43.4303" lon="6.05688">
        <ele>320</ele>
        <time>2014-09-10T13:15:41Z</time>
      </trkpt>
      <trkpt lat="43.43029" lon="6.05693">
        <ele>320</ele>
        <time>2014-09-10T13:15:42Z</time>
      </trkpt>
      <trkpt lat="43.43027" lon="6.05698">
        <ele>320.02096557617</ele>
        <time>2014-09-10T13:15:43Z</time>
      </trkpt>
      <trkpt lat="43.43024" lon="6.05706">
        <ele>320.07888793945</ele>
        <time>2014-09-10T13:15:45Z</time>
      </trkpt>
      <trkpt lat="43.43023" lon="6.05711">
        <ele>320.06631469727</ele>
        <time>2014-09-10T13:15:46Z</time>
      </trkpt>
      <trkpt lat="43.43023" lon="6.05716">
        <ele>320.03652954102</ele>
        <time>2014-09-10T13:15:47Z</time>
      </trkpt>
      <trkpt lat="43.43018" lon="6.05732">
        <ele>320</ele>
        <time>2014-09-10T13:15:50Z</time>
      </trkpt>
      <trkpt lat="43.43016" lon="6.05736">
        <ele>320</ele>
        <time>2014-09-10T13:15:51Z</time>
      </trkpt>
      <trkpt lat="43.43013" lon="6.05738">
        <ele>320</ele>
        <time>2014-09-10T13:15:52Z</time>
      </trkpt>
      <trkpt lat="43.43011" lon="6.0574">
        <ele>320</ele>
        <time>2014-09-10T13:15:53Z</time>
      </trkpt>
      <trkpt lat="43.4301" lon="6.05743">
        <ele>320</ele>
        <time>2014-09-10T13:15:54Z</time>
      </trkpt>
      <trkpt lat="43.43008" lon="6.05747">
        <ele>320</ele>
        <time>2014-09-10T13:15:55Z</time>
      </trkpt>
      <trkpt lat="43.43002" lon="6.05772">
        <ele>320</ele>
        <time>2014-09-10T13:16:00Z</time>
      </trkpt>
      <trkpt lat="43.42999" lon="6.05789">
        <ele>320.04010009766</ele>
        <time>2014-09-10T13:16:04Z</time>
      </trkpt>
      <trkpt lat="43.43002" lon="6.05801">
        <ele>320</ele>
        <time>2014-09-10T13:16:07Z</time>
      </trkpt>
      <trkpt lat="43.43002" lon="6.05804">
        <ele>320</ele>
        <time>2014-09-10T13:16:08Z</time>
      </trkpt>
      <trkpt lat="43.43002" lon="6.05806">
        <ele>319.95989990234</ele>
        <time>2014-09-10T13:16:09Z</time>
      </trkpt>
      <trkpt lat="43.43003" lon="6.05807">
        <ele>319.90982055664</ele>
        <time>2014-09-10T13:16:10Z</time>
      </trkpt>
      <trkpt lat="43.43002" lon="6.05808">
        <ele>319.8948059082</ele>
        <time>2014-09-10T13:16:13Z</time>
      </trkpt>
      <trkpt lat="43.43002" lon="6.05808">
        <ele>319.8948059082</ele>
        <time>2014-09-10T13:16:17Z</time>
      </trkpt>
      <trkpt lat="43.43002" lon="6.05809">
        <ele>319.86331176758</ele>
        <time>2014-09-10T13:16:27Z</time>
      </trkpt>
      <trkpt lat="43.43002" lon="6.05809">
        <ele>319.86331176758</ele>
        <time>2014-09-10T13:16:36Z</time>
      </trkpt>
      <trkpt lat="43.43002" lon="6.05809">
        <ele>319.85256958008</ele>
        <time>2014-09-10T13:16:41Z</time>
      </trkpt>
      <trkpt lat="43.43002" lon="6.05809">
        <ele>319.85256958008</ele>
        <time>2014-09-10T13:16:57Z</time>
      </trkpt>
      <trkpt lat="43.43002" lon="6.05809">
        <ele>319.85256958008</ele>
        <time>2014-09-10T13:17:10Z</time>
      </trkpt>
      <trkpt lat="43.43003" lon="6.0581">
        <ele>319.76507568359</ele>
        <time>2014-09-10T13:17:15Z</time>
      </trkpt>
      <trkpt lat="43.43003" lon="6.05815">
        <ele>319.55914306641</ele>
        <time>2014-09-10T13:17:17Z</time>
      </trkpt>
      <trkpt lat="43.43003" lon="6.05834">
        <ele>318.58227539062</ele>
        <time>2014-09-10T13:17:23Z</time>
      </trkpt>
      <trkpt lat="43.43005" lon="6.05848">
        <ele>316.80599975586</ele>
        <time>2014-09-10T13:17:26Z</time>
      </trkpt>
      <trkpt lat="43.43006" lon="6.05852">
        <ele>316.27496337891</ele>
        <time>2014-09-10T13:17:27Z</time>
      </trkpt>
      <trkpt lat="43.43008" lon="6.05854">
        <ele>315.72024536133</ele>
        <time>2014-09-10T13:17:28Z</time>
      </trkpt>
      <trkpt lat="43.4301" lon="6.05856">
        <ele>315.15774536133</ele>
        <time>2014-09-10T13:17:29Z</time>
      </trkpt>
      <trkpt lat="43.43012" lon="6.05858">
        <ele>314.62411499023</ele>
        <time>2014-09-10T13:17:30Z</time>
      </trkpt>
      <trkpt lat="43.43015" lon="6.0586">
        <ele>314.10418701172</ele>
        <time>2014-09-10T13:17:31Z</time>
      </trkpt>
      <trkpt lat="43.43017" lon="6.05861">
        <ele>313.51654052734</ele>
        <time>2014-09-10T13:17:32Z</time>
      </trkpt>
      <trkpt lat="43.43019" lon="6.05862">
        <ele>313.13107299805</ele>
        <time>2014-09-10T13:17:33Z</time>
      </trkpt>
      <trkpt lat="43.43022" lon="6.05862">
        <ele>312.6962890625</ele>
        <time>2014-09-10T13:17:34Z</time>
      </trkpt>
      <trkpt lat="43.43024" lon="6.05862">
        <ele>312.34356689453</ele>
        <time>2014-09-10T13:17:35Z</time>
      </trkpt>
      <trkpt lat="43.43026" lon="6.05862">
        <ele>312.06567382812</ele>
        <time>2014-09-10T13:17:36Z</time>
      </trkpt>
      <trkpt lat="43.43029" lon="6.05863">
        <ele>311.62152099609</ele>
        <time>2014-09-10T13:17:37Z</time>
      </trkpt>
      <trkpt lat="43.43032" lon="6.05862">
        <ele>310.89279174805</ele>
        <time>2014-09-10T13:17:38Z</time>
      </trkpt>
      <trkpt lat="43.43035" lon="6.05861">
        <ele>310.15112304688</ele>
        <time>2014-09-10T13:17:39Z</time>
      </trkpt>
      <trkpt lat="43.43039" lon="6.0586">
        <ele>309.50567626953</ele>
        <time>2014-09-10T13:17:40Z</time>
      </trkpt>
      <trkpt lat="43.43042" lon="6.05859">
        <ele>308.77096557617</ele>
        <time>2014-09-10T13:17:41Z</time>
      </trkpt>
      <trkpt lat="43.43045" lon="6.05858">
        <ele>308.24224853516</ele>
        <time>2014-09-10T13:17:42Z</time>
      </trkpt>
      <trkpt lat="43.43047" lon="6.05856">
        <ele>307.86459350586</ele>
        <time>2014-09-10T13:17:43Z</time>
      </trkpt>
      <trkpt lat="43.4305" lon="6.05855">
        <ele>307.37020874023</ele>
        <time>2014-09-10T13:17:44Z</time>
      </trkpt>
      <trkpt lat="43.43056" lon="6.05853">
        <ele>306.09994506836</ele>
        <time>2014-09-10T13:17:46Z</time>
      </trkpt>
      <trkpt lat="43.43061" lon="6.05852">
        <ele>305.21133422852</ele>
        <time>2014-09-10T13:17:47Z</time>
      </trkpt>
      <trkpt lat="43.43065" lon="6.05852">
        <ele>304.25274658203</ele>
        <time>2014-09-10T13:17:48Z</time>
      </trkpt>
      <trkpt lat="43.43068" lon="6.05852">
        <ele>303.46844482422</ele>
        <time>2014-09-10T13:17:49Z</time>
      </trkpt>
      <trkpt lat="43.43071" lon="6.05851">
        <ele>302.77716064453</ele>
        <time>2014-09-10T13:17:50Z</time>
      </trkpt>
      <trkpt lat="43.43074" lon="6.05851">
        <ele>302.21276855469</ele>
        <time>2014-09-10T13:17:51Z</time>
      </trkpt>
      <trkpt lat="43.43077" lon="6.05851">
        <ele>301.55267333984</ele>
        <time>2014-09-10T13:17:52Z</time>
      </trkpt>
      <trkpt lat="43.4308" lon="6.0585">
        <ele>301.03131103516</ele>
        <time>2014-09-10T13:17:53Z</time>
      </trkpt>
      <trkpt lat="43.43081" lon="6.05849">
        <ele>300.88412475586</ele>
        <time>2014-09-10T13:17:54Z</time>
      </trkpt>
      <trkpt lat="43.43081" lon="6.05849">
        <ele>300.83264160156</ele>
        <time>2014-09-10T13:17:55Z</time>
      </trkpt>
      <trkpt lat="43.43081" lon="6.05848">
        <ele>300.89068603516</ele>
        <time>2014-09-10T13:17:56Z</time>
      </trkpt>
      <trkpt lat="43.43082" lon="6.05848">
        <ele>300.84909057617</ele>
        <time>2014-09-10T13:17:57Z</time>
      </trkpt>
      <trkpt lat="43.43082" lon="6.05848">
        <ele>300.84909057617</ele>
        <time>2014-09-10T13:18:09Z</time>
      </trkpt>
      <trkpt lat="43.43082" lon="6.05848">
        <ele>300.84909057617</ele>
        <time>2014-09-10T13:18:19Z</time>
      </trkpt>
      <trkpt lat="43.43082" lon="6.05847">
        <ele>300.88586425781</ele>
        <time>2014-09-10T13:18:21Z</time>
      </trkpt>
      <trkpt lat="43.43082" lon="6.05848">
        <ele>300.84909057617</ele>
        <time>2014-09-10T13:18:24Z</time>
      </trkpt>
      <trkpt lat="43.43082" lon="6.05848">
        <ele>300.84909057617</ele>
        <time>2014-09-10T13:18:28Z</time>
      </trkpt>
      <trkpt lat="43.43081" lon="6.05848">
        <ele>300.93817138672</ele>
        <time>2014-09-10T13:19:44Z</time>
      </trkpt>
      <trkpt lat="43.43081" lon="6.05848">
        <ele>300.93817138672</ele>
        <time>2014-09-10T13:19:56Z</time>
      </trkpt>
      <trkpt lat="43.43082" lon="6.05848">
        <ele>300.74432373047</ele>
        <time>2014-09-10T13:20:00Z</time>
      </trkpt>
      <trkpt lat="43.43088" lon="6.05846">
        <ele>300.16589355469</ele>
        <time>2014-09-10T13:20:03Z</time>
      </trkpt>
      <trkpt lat="43.43098" lon="6.05845">
        <ele>299.16168212891</ele>
        <time>2014-09-10T13:20:08Z</time>
      </trkpt>
      <trkpt lat="43.431" lon="6.05844">
        <ele>298.99688720703</ele>
        <time>2014-09-10T13:20:09Z</time>
      </trkpt>
      <trkpt lat="43.43103" lon="6.05843">
        <ele>298.88873291016</ele>
        <time>2014-09-10T13:20:10Z</time>
      </trkpt>
      <trkpt lat="43.43105" lon="6.05842">
        <ele>298.75485229492</ele>
        <time>2014-09-10T13:20:11Z</time>
      </trkpt>
      <trkpt lat="43.43106" lon="6.05842">
        <ele>298.69818115234</ele>
        <time>2014-09-10T13:20:12Z</time>
      </trkpt>
      <trkpt lat="43.43106" lon="6.05842">
        <ele>298.69305419922</ele>
        <time>2014-09-10T13:20:13Z</time>
      </trkpt>
      <trkpt lat="43.43105" lon="6.05842">
        <ele>298.69818115234</ele>
        <time>2014-09-10T13:20:14Z</time>
      </trkpt>
      <trkpt lat="43.43106" lon="6.05842">
        <ele>298.69818115234</ele>
        <time>2014-09-10T13:20:16Z</time>
      </trkpt>
      <trkpt lat="43.43106" lon="6.05842">
        <ele>298.65698242188</ele>
        <time>2014-09-10T13:20:17Z</time>
      </trkpt>
      <trkpt lat="43.43106" lon="6.05842">
        <ele>298.65698242188</ele>
        <time>2014-09-10T13:20:34Z</time>
      </trkpt>
      <trkpt lat="43.43106" lon="6.05842">
        <ele>298.66213989258</ele>
        <time>2014-09-10T13:21:00Z</time>
      </trkpt>
      <trkpt lat="43.43106" lon="6.05842">
        <ele>298.66213989258</ele>
        <time>2014-09-10T13:21:14Z</time>
      </trkpt>
      <trkpt lat="43.43106" lon="6.05842">
        <ele>298.66213989258</ele>
        <time>2014-09-10T13:21:20Z</time>
      </trkpt>
      <trkpt lat="43.43106" lon="6.05842">
        <ele>298.63125610352</ele>
        <time>2014-09-10T13:21:24Z</time>
      </trkpt>
      <trkpt lat="43.43108" lon="6.05843">
        <ele>298.30166625977</ele>
        <time>2014-09-10T13:21:28Z</time>
      </trkpt>
      <trkpt lat="43.43111" lon="6.05843">
        <ele>297.98751831055</ele>
        <time>2014-09-10T13:21:29Z</time>
      </trkpt>
      <trkpt lat="43.43119" lon="6.05844">
        <ele>296.5315246582</ele>
        <time>2014-09-10T13:21:32Z</time>
      </trkpt>
      <trkpt lat="43.43126" lon="6.05844">
        <ele>295.3310546875</ele>
        <time>2014-09-10T13:21:35Z</time>
      </trkpt>
      <trkpt lat="43.43129" lon="6.05844">
        <ele>294.97897338867</ele>
        <time>2014-09-10T13:21:36Z</time>
      </trkpt>
      <trkpt lat="43.43134" lon="6.05843">
        <ele>294.18991088867</ele>
        <time>2014-09-10T13:21:38Z</time>
      </trkpt>
      <trkpt lat="43.43136" lon="6.05843">
        <ele>293.83590698242</ele>
        <time>2014-09-10T13:21:39Z</time>
      </trkpt>
      <trkpt lat="43.43138" lon="6.05843">
        <ele>293.45529174805</ele>
        <time>2014-09-10T13:21:40Z</time>
      </trkpt>
      <trkpt lat="43.4314" lon="6.05842">
        <ele>293.01110839844</ele>
        <time>2014-09-10T13:21:41Z</time>
      </trkpt>
      <trkpt lat="43.43149" lon="6.05841">
        <ele>290.35848999023</ele>
        <time>2014-09-10T13:21:46Z</time>
      </trkpt>
      <trkpt lat="43.43151" lon="6.0584">
        <ele>289.68399047852</ele>
        <time>2014-09-10T13:21:47Z</time>
      </trkpt>
      <trkpt lat="43.43153" lon="6.05838">
        <ele>289.27987670898</ele>
        <time>2014-09-10T13:21:48Z</time>
      </trkpt>
      <trkpt lat="43.43155" lon="6.05838">
        <ele>288.68170166016</ele>
        <time>2014-09-10T13:21:49Z</time>
      </trkpt>
      <trkpt lat="43.43156" lon="6.05838">
        <ele>288.10864257812</ele>
        <time>2014-09-10T13:21:50Z</time>
      </trkpt>
      <trkpt lat="43.43161" lon="6.05836">
        <ele>286.85971069336</ele>
        <time>2014-09-10T13:21:52Z</time>
      </trkpt>
      <trkpt lat="43.43162" lon="6.05835">
        <ele>286.38763427734</ele>
        <time>2014-09-10T13:21:53Z</time>
      </trkpt>
      <trkpt lat="43.43163" lon="6.05835">
        <ele>286.15777587891</ele>
        <time>2014-09-10T13:21:54Z</time>
      </trkpt>
      <trkpt lat="43.43164" lon="6.05835">
        <ele>285.79656982422</ele>
        <time>2014-09-10T13:21:55Z</time>
      </trkpt>
      <trkpt lat="43.43165" lon="6.05835">
        <ele>285.41491699219</ele>
        <time>2014-09-10T13:21:56Z</time>
      </trkpt>
      <trkpt lat="43.43166" lon="6.05834">
        <ele>285.2096862793</ele>
        <time>2014-09-10T13:21:57Z</time>
      </trkpt>
      <trkpt lat="43.43171" lon="6.05832">
        <ele>284.34414672852</ele>
        <time>2014-09-10T13:21:59Z</time>
      </trkpt>
      <trkpt lat="43.43173" lon="6.05831">
        <ele>283.89266967773</ele>
        <time>2014-09-10T13:22:00Z</time>
      </trkpt>
      <trkpt lat="43.43176" lon="6.05829">
        <ele>283.47897338867</ele>
        <time>2014-09-10T13:22:01Z</time>
      </trkpt>
      <trkpt lat="43.43178" lon="6.05829">
        <ele>283.16653442383</ele>
        <time>2014-09-10T13:22:02Z</time>
      </trkpt>
      <trkpt lat="43.43179" lon="6.05828">
        <ele>282.98284912109</ele>
        <time>2014-09-10T13:22:03Z</time>
      </trkpt>
      <trkpt lat="43.43179" lon="6.05828">
        <ele>282.98629760742</ele>
        <time>2014-09-10T13:22:05Z</time>
      </trkpt>
      <trkpt lat="43.43179" lon="6.05828">
        <ele>282.98629760742</ele>
        <time>2014-09-10T13:22:20Z</time>
      </trkpt>
      <trkpt lat="43.43179" lon="6.05828">
        <ele>282.91247558594</ele>
        <time>2014-09-10T13:23:00Z</time>
      </trkpt>
      <trkpt lat="43.4318" lon="6.05828">
        <ele>282.83694458008</ele>
        <time>2014-09-10T13:23:05Z</time>
      </trkpt>
      <trkpt lat="43.4318" lon="6.05828">
        <ele>282.83694458008</ele>
        <time>2014-09-10T13:23:26Z</time>
      </trkpt>
      <trkpt lat="43.4318" lon="6.05828">
        <ele>282.830078125</ele>
        <time>2014-09-10T13:23:36Z</time>
      </trkpt>
      <trkpt lat="43.43179" lon="6.05829">
        <ele>282.95025634766</ele>
        <time>2014-09-10T13:23:50Z</time>
      </trkpt>
      <trkpt lat="43.43177" lon="6.05831">
        <ele>283.29013061523</ele>
        <time>2014-09-10T13:23:55Z</time>
      </trkpt>
      <trkpt lat="43.43171" lon="6.05832">
        <ele>284.19995117188</ele>
        <time>2014-09-10T13:23:58Z</time>
      </trkpt>
      <trkpt lat="43.43169" lon="6.05832">
        <ele>284.56387329102</ele>
        <time>2014-09-10T13:23:59Z</time>
      </trkpt>
      <trkpt lat="43.43167" lon="6.05832">
        <ele>284.89346313477</ele>
        <time>2014-09-10T13:24:00Z</time>
      </trkpt>
      <trkpt lat="43.43163" lon="6.05833">
        <ele>286.35168457031</ele>
        <time>2014-09-10T13:24:03Z</time>
      </trkpt>
      <trkpt lat="43.43161" lon="6.05833">
        <ele>286.70660400391</ele>
        <time>2014-09-10T13:24:04Z</time>
      </trkpt>
      <trkpt lat="43.43158" lon="6.05834">
        <ele>287.78491210938</ele>
        <time>2014-09-10T13:24:06Z</time>
      </trkpt>
      <trkpt lat="43.43156" lon="6.05835">
        <ele>288.35592651367</ele>
        <time>2014-09-10T13:24:07Z</time>
      </trkpt>
      <trkpt lat="43.43153" lon="6.05836">
        <ele>289.16198730469</ele>
        <time>2014-09-10T13:24:09Z</time>
      </trkpt>
      <trkpt lat="43.43151" lon="6.05837">
        <ele>289.95034790039</ele>
        <time>2014-09-10T13:24:11Z</time>
      </trkpt>
      <trkpt lat="43.43149" lon="6.05838">
        <ele>290.53619384766</ele>
        <time>2014-09-10T13:24:12Z</time>
      </trkpt>
      <trkpt lat="43.43147" lon="6.05838">
        <ele>290.98135375977</ele>
        <time>2014-09-10T13:24:13Z</time>
      </trkpt>
      <trkpt lat="43.43144" lon="6.05839">
        <ele>291.9967956543</ele>
        <time>2014-09-10T13:24:15Z</time>
      </trkpt>
      <trkpt lat="43.43143" lon="6.0584">
        <ele>292.19357299805</ele>
        <time>2014-09-10T13:24:16Z</time>
      </trkpt>
      <trkpt lat="43.43142" lon="6.0584">
        <ele>292.53491210938</ele>
        <time>2014-09-10T13:24:17Z</time>
      </trkpt>
      <trkpt lat="43.4314" lon="6.0584">
        <ele>293.01876831055</ele>
        <time>2014-09-10T13:24:18Z</time>
      </trkpt>
      <trkpt lat="43.43139" lon="6.05841">
        <ele>293.48458862305</ele>
        <time>2014-09-10T13:24:19Z</time>
      </trkpt>
      <trkpt lat="43.43137" lon="6.05842">
        <ele>293.72909545898</ele>
        <time>2014-09-10T13:24:20Z</time>
      </trkpt>
      <trkpt lat="43.43135" lon="6.05842">
        <ele>294.0446472168</ele>
        <time>2014-09-10T13:24:21Z</time>
      </trkpt>
      <trkpt lat="43.43126" lon="6.05843">
        <ele>295.55160522461</ele>
        <time>2014-09-10T13:24:27Z</time>
      </trkpt>
      <trkpt lat="43.43122" lon="6.05843">
        <ele>296.05426025391</ele>
        <time>2014-09-10T13:24:29Z</time>
      </trkpt>
      <trkpt lat="43.43122" lon="6.05843">
        <ele>296.10028076172</ele>
        <time>2014-09-10T13:24:30Z</time>
      </trkpt>
      <trkpt lat="43.43122" lon="6.05843">
        <ele>296.08688354492</ele>
        <time>2014-09-10T13:24:31Z</time>
      </trkpt>
      <trkpt lat="43.43122" lon="6.05843">
        <ele>296.08688354492</ele>
        <time>2014-09-10T13:24:33Z</time>
      </trkpt>
      <trkpt lat="43.4312" lon="6.05843">
        <ele>296.478515625</ele>
        <time>2014-09-10T13:24:39Z</time>
      </trkpt>
      <trkpt lat="43.43115" lon="6.05844">
        <ele>297.18026733398</ele>
        <time>2014-09-10T13:24:45Z</time>
      </trkpt>
      <trkpt lat="43.43114" lon="6.05844">
        <ele>297.31213378906</ele>
        <time>2014-09-10T13:24:46Z</time>
      </trkpt>
      <trkpt lat="43.43112" lon="6.05843">
        <ele>297.83834838867</ele>
        <time>2014-09-10T13:24:50Z</time>
      </trkpt>
      <trkpt lat="43.4311" lon="6.05843">
        <ele>298.04931640625</ele>
        <time>2014-09-10T13:24:52Z</time>
      </trkpt>
      <trkpt lat="43.43108" lon="6.05843">
        <ele>298.3737487793</ele>
        <time>2014-09-10T13:24:59Z</time>
      </trkpt>
      <trkpt lat="43.43108" lon="6.05843">
        <ele>298.3737487793</ele>
        <time>2014-09-10T13:25:07Z</time>
      </trkpt>
      <trkpt lat="43.43107" lon="6.05843">
        <ele>298.41494750977</ele>
        <time>2014-09-10T13:25:13Z</time>
      </trkpt>
      <trkpt lat="43.43108" lon="6.05842">
        <ele>298.39434814453</ele>
        <time>2014-09-10T13:25:21Z</time>
      </trkpt>
      <trkpt lat="43.43109" lon="6.05843">
        <ele>298.18835449219</ele>
        <time>2014-09-10T13:25:26Z</time>
      </trkpt>
      <trkpt lat="43.43109" lon="6.05843">
        <ele>298.18835449219</ele>
        <time>2014-09-10T13:25:31Z</time>
      </trkpt>
      <trkpt lat="43.43109" lon="6.05843">
        <ele>298.18835449219</ele>
        <time>2014-09-10T13:25:45Z</time>
      </trkpt>
      <trkpt lat="43.43109" lon="6.05843">
        <ele>298.23471069336</ele>
        <time>2014-09-10T13:25:50Z</time>
      </trkpt>
      <trkpt lat="43.43108" lon="6.05843">
        <ele>298.28106689453</ele>
        <time>2014-09-10T13:25:52Z</time>
      </trkpt>
      <trkpt lat="43.43111" lon="6.05843">
        <ele>298.01327514648</ele>
        <time>2014-09-10T13:25:57Z</time>
      </trkpt>
      <trkpt lat="43.43111" lon="6.05843">
        <ele>297.94631958008</ele>
        <time>2014-09-10T13:26:01Z</time>
      </trkpt>
      <trkpt lat="43.43111" lon="6.05844">
        <ele>297.80474853516</ele>
        <time>2014-09-10T13:26:06Z</time>
      </trkpt>
      <trkpt lat="43.43114" lon="6.05844">
        <ele>297.42916870117</ele>
        <time>2014-09-10T13:26:08Z</time>
      </trkpt>
      <trkpt lat="43.43121" lon="6.05843">
        <ele>296.20080566406</ele>
        <time>2014-09-10T13:26:10Z</time>
      </trkpt>
      <trkpt lat="43.43138" lon="6.05842">
        <ele>293.5368347168</ele>
        <time>2014-09-10T13:26:13Z</time>
      </trkpt>
      <trkpt lat="43.43141" lon="6.05841">
        <ele>292.69616699219</ele>
        <time>2014-09-10T13:26:14Z</time>
      </trkpt>
      <trkpt lat="43.43145" lon="6.05841">
        <ele>291.53720092773</ele>
        <time>2014-09-10T13:26:15Z</time>
      </trkpt>
      <trkpt lat="43.4315" lon="6.05839">
        <ele>290.20169067383</ele>
        <time>2014-09-10T13:26:16Z</time>
      </trkpt>
      <trkpt lat="43.43154" lon="6.05838">
        <ele>288.95928955078</ele>
        <time>2014-09-10T13:26:17Z</time>
      </trkpt>
      <trkpt lat="43.43158" lon="6.05835">
        <ele>287.84432983398</ele>
        <time>2014-09-10T13:26:18Z</time>
      </trkpt>
      <trkpt lat="43.43162" lon="6.05835">
        <ele>286.41159057617</ele>
        <time>2014-09-10T13:26:19Z</time>
      </trkpt>
      <trkpt lat="43.4317" lon="6.05832">
        <ele>284.47973632812</ele>
        <time>2014-09-10T13:26:20Z</time>
      </trkpt>
      <trkpt lat="43.43175" lon="6.05831">
        <ele>283.55621337891</ele>
        <time>2014-09-10T13:26:21Z</time>
      </trkpt>
      <trkpt lat="43.43176" lon="6.0583">
        <ele>283.37768554688</ele>
        <time>2014-09-10T13:26:22Z</time>
      </trkpt>
      <trkpt lat="43.43176" lon="6.0583">
        <ele>283.37426757812</ele>
        <time>2014-09-10T13:26:24Z</time>
      </trkpt>
      <trkpt lat="43.43176" lon="6.0583">
        <ele>283.37426757812</ele>
        <time>2014-09-10T13:26:26Z</time>
      </trkpt>
      <trkpt lat="43.43176" lon="6.0583">
        <ele>283.37426757812</ele>
        <time>2014-09-10T13:26:27Z</time>
      </trkpt>
      <trkpt lat="43.43176" lon="6.05832">
        <ele>283.46694946289</ele>
        <time>2014-09-10T13:26:30Z</time>
      </trkpt>
      <trkpt lat="43.43176" lon="6.05832">
        <ele>283.46524047852</ele>
        <time>2014-09-10T13:26:35Z</time>
      </trkpt>
      <trkpt lat="43.43176" lon="6.05832">
        <ele>283.45837402344</ele>
        <time>2014-09-10T13:26:38Z</time>
      </trkpt>
      <trkpt lat="43.43176" lon="6.05832">
        <ele>283.46008300781</ele>
        <time>2014-09-10T13:26:42Z</time>
      </trkpt>
      <trkpt lat="43.43176" lon="6.05832">
        <ele>283.46008300781</ele>
        <time>2014-09-10T13:26:47Z</time>
      </trkpt>
      <trkpt lat="43.43176" lon="6.05831">
        <ele>283.41372680664</ele>
        <time>2014-09-10T13:26:50Z</time>
      </trkpt>
      <trkpt lat="43.43176" lon="6.05831">
        <ele>283.41372680664</ele>
        <time>2014-09-10T13:26:55Z</time>
      </trkpt>
      <trkpt lat="43.43176" lon="6.05831">
        <ele>283.4274597168</ele>
        <time>2014-09-10T13:26:59Z</time>
      </trkpt>
      <trkpt lat="43.43176" lon="6.05831">
        <ele>283.4274597168</ele>
        <time>2014-09-10T13:27:06Z</time>
      </trkpt>
      <trkpt lat="43.43176" lon="6.0583">
        <ele>283.3759765625</ele>
        <time>2014-09-10T13:27:43Z</time>
      </trkpt>
      <trkpt lat="43.43176" lon="6.0583">
        <ele>283.3759765625</ele>
        <time>2014-09-10T13:27:49Z</time>
      </trkpt>
      <trkpt lat="43.43176" lon="6.05831">
        <ele>283.36224365234</ele>
        <time>2014-09-10T13:28:17Z</time>
      </trkpt>
      <trkpt lat="43.43176" lon="6.05831">
        <ele>283.36224365234</ele>
        <time>2014-09-10T13:28:36Z</time>
      </trkpt>
      <trkpt lat="43.43176" lon="6.05831">
        <ele>283.36224365234</ele>
        <time>2014-09-10T13:28:42Z</time>
      </trkpt>
      <trkpt lat="43.43177" lon="6.05829">
        <ele>283.27297973633</ele>
        <time>2014-09-10T13:28:51Z</time>
      </trkpt>
      <trkpt lat="43.43177" lon="6.05829">
        <ele>283.27297973633</ele>
        <time>2014-09-10T13:29:04Z</time>
      </trkpt>
      <trkpt lat="43.43177" lon="6.05829">
        <ele>283.27297973633</ele>
        <time>2014-09-10T13:29:26Z</time>
      </trkpt>
      <trkpt lat="43.43176" lon="6.05829">
        <ele>283.4326171875</ele>
        <time>2014-09-10T13:29:30Z</time>
      </trkpt>
      <trkpt lat="43.43177" lon="6.05829">
        <ele>283.36395263672</ele>
        <time>2014-09-10T13:29:32Z</time>
      </trkpt>
      <trkpt lat="43.43178" lon="6.05826">
        <ele>283.24551391602</ele>
        <time>2014-09-10T13:29:40Z</time>
      </trkpt>
      <trkpt lat="43.43179" lon="6.05825">
        <ele>283.1510925293</ele>
        <time>2014-09-10T13:29:43Z</time>
      </trkpt>
      <trkpt lat="43.4318" lon="6.05821">
        <ele>282.97601318359</ele>
        <time>2014-09-10T13:29:46Z</time>
      </trkpt>
      <trkpt lat="43.43184" lon="6.05811">
        <ele>282.71334838867</ele>
        <time>2014-09-10T13:29:50Z</time>
      </trkpt>
      <trkpt lat="43.43194" lon="6.05791">
        <ele>281.12475585938</ele>
        <time>2014-09-10T13:29:56Z</time>
      </trkpt>
      <trkpt lat="43.43199" lon="6.05782">
        <ele>280.29849243164</ele>
        <time>2014-09-10T13:29:58Z</time>
      </trkpt>
      <trkpt lat="43.43203" lon="6.05778">
        <ele>279.77883911133</ele>
        <time>2014-09-10T13:29:59Z</time>
      </trkpt>
      <trkpt lat="43.43206" lon="6.05773">
        <ele>279.42538452148</ele>
        <time>2014-09-10T13:30:00Z</time>
      </trkpt>
      <trkpt lat="43.4321" lon="6.05769">
        <ele>278.91925048828</ele>
        <time>2014-09-10T13:30:01Z</time>
      </trkpt>
      <trkpt lat="43.43212" lon="6.05764">
        <ele>278.62753295898</ele>
        <time>2014-09-10T13:30:02Z</time>
      </trkpt>
      <trkpt lat="43.43213" lon="6.05753">
        <ele>278.57409667969</ele>
        <time>2014-09-10T13:30:04Z</time>
      </trkpt>
      <trkpt lat="43.43216" lon="6.05728">
        <ele>280.06097412109</ele>
        <time>2014-09-10T13:30:09Z</time>
      </trkpt>
      <trkpt lat="43.43221" lon="6.057">
        <ele>280.18383789062</ele>
        <time>2014-09-10T13:30:14Z</time>
      </trkpt>
      <trkpt lat="43.43221" lon="6.05694">
        <ele>280.18383789062</ele>
        <time>2014-09-10T13:30:15Z</time>
      </trkpt>
      <trkpt lat="43.43222" lon="6.05676">
        <ele>279.93103027344</ele>
        <time>2014-09-10T13:30:19Z</time>
      </trkpt>
      <trkpt lat="43.43224" lon="6.0565">
        <ele>279.31555175781</ele>
        <time>2014-09-10T13:30:24Z</time>
      </trkpt>
      <trkpt lat="43.43227" lon="6.05628">
        <ele>278.51571655273</ele>
        <time>2014-09-10T13:30:27Z</time>
      </trkpt>
      <trkpt lat="43.43227" lon="6.05621">
        <ele>278.44552612305</ele>
        <time>2014-09-10T13:30:28Z</time>
      </trkpt>
      <trkpt lat="43.43228" lon="6.05614">
        <ele>278.38107299805</ele>
        <time>2014-09-10T13:30:29Z</time>
      </trkpt>
      <trkpt lat="43.43228" lon="6.05608">
        <ele>278.31991577148</ele>
        <time>2014-09-10T13:30:30Z</time>
      </trkpt>
      <trkpt lat="43.43229" lon="6.05602">
        <ele>278.25933837891</ele>
        <time>2014-09-10T13:30:31Z</time>
      </trkpt>
      <trkpt lat="43.43232" lon="6.05571">
        <ele>277.64117431641</ele>
        <time>2014-09-10T13:30:36Z</time>
      </trkpt>
      <trkpt lat="43.43234" lon="6.05559">
        <ele>277.06439208984</ele>
        <time>2014-09-10T13:30:38Z</time>
      </trkpt>
      <trkpt lat="43.43238" lon="6.05544">
        <ele>276.34051513672</ele>
        <time>2014-09-10T13:30:41Z</time>
      </trkpt>
      <trkpt lat="43.43248" lon="6.05509">
        <ele>275.12905883789</ele>
        <time>2014-09-10T13:30:47Z</time>
      </trkpt>
      <trkpt lat="43.4325" lon="6.05504">
        <ele>274.96371459961</ele>
        <time>2014-09-10T13:30:48Z</time>
      </trkpt>
      <trkpt lat="43.43251" lon="6.05497">
        <ele>274.90213012695</ele>
        <time>2014-09-10T13:30:49Z</time>
      </trkpt>
      <trkpt lat="43.43253" lon="6.0549">
        <ele>274.84188842773</ele>
        <time>2014-09-10T13:30:50Z</time>
      </trkpt>
      <trkpt lat="43.43256" lon="6.05483">
        <ele>274.62420654297</ele>
        <time>2014-09-10T13:30:51Z</time>
      </trkpt>
      <trkpt lat="43.43258" lon="6.05475">
        <ele>274.49600219727</ele>
        <time>2014-09-10T13:30:52Z</time>
      </trkpt>
      <trkpt lat="43.4326" lon="6.05469">
        <ele>274.21368408203</ele>
        <time>2014-09-10T13:30:53Z</time>
      </trkpt>
      <trkpt lat="43.43263" lon="6.05461">
        <ele>273.81060791016</ele>
        <time>2014-09-10T13:30:54Z</time>
      </trkpt>
      <trkpt lat="43.43266" lon="6.05453">
        <ele>273.5373840332</ele>
        <time>2014-09-10T13:30:55Z</time>
      </trkpt>
      <trkpt lat="43.43269" lon="6.05445">
        <ele>273.26208496094</ele>
        <time>2014-09-10T13:30:56Z</time>
      </trkpt>
      <trkpt lat="43.43272" lon="6.05437">
        <ele>273.09075927734</ele>
        <time>2014-09-10T13:30:57Z</time>
      </trkpt>
      <trkpt lat="43.43276" lon="6.05423">
        <ele>272.98260498047</ele>
        <time>2014-09-10T13:30:59Z</time>
      </trkpt>
      <trkpt lat="43.43279" lon="6.05417">
        <ele>272.87481689453</ele>
        <time>2014-09-10T13:31:00Z</time>
      </trkpt>
      <trkpt lat="43.43282" lon="6.0541">
        <ele>272.82159423828</ele>
        <time>2014-09-10T13:31:01Z</time>
      </trkpt>
      <trkpt lat="43.43284" lon="6.05404">
        <ele>272.75637817383</ele>
        <time>2014-09-10T13:31:02Z</time>
      </trkpt>
      <trkpt lat="43.43287" lon="6.05398">
        <ele>272.6962890625</ele>
        <time>2014-09-10T13:31:03Z</time>
      </trkpt>
      <trkpt lat="43.43296" lon="6.05379">
        <ele>272.22299194336</ele>
        <time>2014-09-10T13:31:06Z</time>
      </trkpt>
      <trkpt lat="43.43303" lon="6.05367">
        <ele>272.02255249023</ele>
        <time>2014-09-10T13:31:08Z</time>
      </trkpt>
      <trkpt lat="43.4331" lon="6.0535">
        <ele>271.30230712891</ele>
        <time>2014-09-10T13:31:11Z</time>
      </trkpt>
      <trkpt lat="43.43324" lon="6.05314">
        <ele>270.09698486328</ele>
        <time>2014-09-10T13:31:17Z</time>
      </trkpt>
      <trkpt lat="43.43343" lon="6.05269">
        <ele>268.99661254883</ele>
        <time>2014-09-10T13:31:24Z</time>
      </trkpt>
      <trkpt lat="43.43349" lon="6.0525">
        <ele>268.66876220703</ele>
        <time>2014-09-10T13:31:27Z</time>
      </trkpt>
      <trkpt lat="43.43354" lon="6.05239">
        <ele>267.66461181641</ele>
        <time>2014-09-10T13:31:29Z</time>
      </trkpt>
      <trkpt lat="43.43363" lon="6.05213">
        <ele>265.51571655273</ele>
        <time>2014-09-10T13:31:34Z</time>
      </trkpt>
      <trkpt lat="43.43372" lon="6.05186">
        <ele>264.06939697266</ele>
        <time>2014-09-10T13:31:40Z</time>
      </trkpt>
      <trkpt lat="43.43379" lon="6.05172">
        <ele>263.17172241211</ele>
        <time>2014-09-10T13:31:44Z</time>
      </trkpt>
      <trkpt lat="43.43379" lon="6.0517">
        <ele>263.11468505859</ele>
        <time>2014-09-10T13:31:45Z</time>
      </trkpt>
      <trkpt lat="43.4338" lon="6.05166">
        <ele>262.9983215332</ele>
        <time>2014-09-10T13:31:47Z</time>
      </trkpt>
      <trkpt lat="43.43379" lon="6.05166">
        <ele>263.03866577148</ele>
        <time>2014-09-10T13:31:49Z</time>
      </trkpt>
      <trkpt lat="43.43379" lon="6.05166">
        <ele>263.03689575195</ele>
        <time>2014-09-10T13:31:58Z</time>
      </trkpt>
      <trkpt lat="43.43379" lon="6.05166">
        <ele>263.03689575195</ele>
        <time>2014-09-10T13:32:04Z</time>
      </trkpt>
      <trkpt lat="43.43379" lon="6.05166">
        <ele>263.07339477539</ele>
        <time>2014-09-10T13:32:05Z</time>
      </trkpt>
      <trkpt lat="43.43378" lon="6.05165">
        <ele>263.10314941406</ele>
        <time>2014-09-10T13:32:14Z</time>
      </trkpt>
      <trkpt lat="43.43378" lon="6.05165">
        <ele>263.10314941406</ele>
        <time>2014-09-10T13:32:26Z</time>
      </trkpt>
      <trkpt lat="43.43378" lon="6.05165">
        <ele>263.10314941406</ele>
        <time>2014-09-10T13:32:35Z</time>
      </trkpt>
      <trkpt lat="43.43377" lon="6.05162">
        <ele>263.26498413086</ele>
        <time>2014-09-10T13:32:41Z</time>
      </trkpt>
      <trkpt lat="43.43375" lon="6.0516">
        <ele>263.3447265625</ele>
        <time>2014-09-10T13:32:42Z</time>
      </trkpt>
      <trkpt lat="43.43367" lon="6.05149">
        <ele>263.86196899414</ele>
        <time>2014-09-10T13:32:46Z</time>
      </trkpt>
      <trkpt lat="43.43358" lon="6.05145">
        <ele>264.5302734375</ele>
        <time>2014-09-10T13:32:50Z</time>
      </trkpt>
      <trkpt lat="43.43345" lon="6.05137">
        <ele>265.84118652344</ele>
        <time>2014-09-10T13:32:56Z</time>
      </trkpt>
      <trkpt lat="43.43333" lon="6.05128">
        <ele>268.14276123047</ele>
        <time>2014-09-10T13:33:00Z</time>
      </trkpt>
      <trkpt lat="43.4333" lon="6.05126">
        <ele>268.76214599609</ele>
        <time>2014-09-10T13:33:01Z</time>
      </trkpt>
      <trkpt lat="43.43327" lon="6.05123">
        <ele>269.33892822266</ele>
        <time>2014-09-10T13:33:02Z</time>
      </trkpt>
      <trkpt lat="43.43325" lon="6.05121">
        <ele>269.87966918945</ele>
        <time>2014-09-10T13:33:03Z</time>
      </trkpt>
      <trkpt lat="43.43322" lon="6.05117">
        <ele>270.55944824219</ele>
        <time>2014-09-10T13:33:04Z</time>
      </trkpt>
      <trkpt lat="43.4332" lon="6.05114">
        <ele>271.13110351562</ele>
        <time>2014-09-10T13:33:05Z</time>
      </trkpt>
      <trkpt lat="43.43318" lon="6.05112">
        <ele>271.55853271484</ele>
        <time>2014-09-10T13:33:06Z</time>
      </trkpt>
      <trkpt lat="43.43314" lon="6.05109">
        <ele>272.16564941406</ele>
        <time>2014-09-10T13:33:07Z</time>
      </trkpt>
      <trkpt lat="43.43304" lon="6.051">
        <ele>273.90325927734</ele>
        <time>2014-09-10T13:33:10Z</time>
      </trkpt>
      <trkpt lat="43.43301" lon="6.05098">
        <ele>274.29119873047</ele>
        <time>2014-09-10T13:33:11Z</time>
      </trkpt>
      <trkpt lat="43.43297" lon="6.05096">
        <ele>274.69290161133</ele>
        <time>2014-09-10T13:33:12Z</time>
      </trkpt>
      <trkpt lat="43.43295" lon="6.05095">
        <ele>274.91262817383</ele>
        <time>2014-09-10T13:33:13Z</time>
      </trkpt>
      <trkpt lat="43.4329" lon="6.0509">
        <ele>275.58898925781</ele>
        <time>2014-09-10T13:33:15Z</time>
      </trkpt>
      <trkpt lat="43.43288" lon="6.05088">
        <ele>275.91168212891</ele>
        <time>2014-09-10T13:33:16Z</time>
      </trkpt>
      <trkpt lat="43.4328" lon="6.05082">
        <ele>277.05191040039</ele>
        <time>2014-09-10T13:33:19Z</time>
      </trkpt>
      <trkpt lat="43.43277" lon="6.05081">
        <ele>277.38919067383</ele>
        <time>2014-09-10T13:33:20Z</time>
      </trkpt>
      <trkpt lat="43.43269" lon="6.05078">
        <ele>278.20364379883</ele>
        <time>2014-09-10T13:33:22Z</time>
      </trkpt>
      <trkpt lat="43.43266" lon="6.05078">
        <ele>278.50765991211</ele>
        <time>2014-09-10T13:33:23Z</time>
      </trkpt>
      <trkpt lat="43.43249" lon="6.05076">
        <ele>280.10543823242</ele>
        <time>2014-09-10T13:33:28Z</time>
      </trkpt>
      <trkpt lat="43.43239" lon="6.05076">
        <ele>280.93099975586</ele>
        <time>2014-09-10T13:33:31Z</time>
      </trkpt>
      <trkpt lat="43.43233" lon="6.05077">
        <ele>281.27795410156</ele>
        <time>2014-09-10T13:33:33Z</time>
      </trkpt>
      <trkpt lat="43.4323" lon="6.05077">
        <ele>281.54083251953</ele>
        <time>2014-09-10T13:33:34Z</time>
      </trkpt>
      <trkpt lat="43.43222" lon="6.05078">
        <ele>281.92990112305</ele>
        <time>2014-09-10T13:33:37Z</time>
      </trkpt>
      <trkpt lat="43.43207" lon="6.05075">
        <ele>284.02798461914</ele>
        <time>2014-09-10T13:33:44Z</time>
      </trkpt>
      <trkpt lat="43.43205" lon="6.05074">
        <ele>284.27267456055</ele>
        <time>2014-09-10T13:33:45Z</time>
      </trkpt>
      <trkpt lat="43.43203" lon="6.05073">
        <ele>284.63327026367</ele>
        <time>2014-09-10T13:33:46Z</time>
      </trkpt>
      <trkpt lat="43.43198" lon="6.05071">
        <ele>285.34552001953</ele>
        <time>2014-09-10T13:33:48Z</time>
      </trkpt>
      <trkpt lat="43.4319" lon="6.0507">
        <ele>286.57754516602</ele>
        <time>2014-09-10T13:33:53Z</time>
      </trkpt>
      <trkpt lat="43.43179" lon="6.05068">
        <ele>288.32162475586</ele>
        <time>2014-09-10T13:33:59Z</time>
      </trkpt>
      <trkpt lat="43.43177" lon="6.05068">
        <ele>288.6237487793</ele>
        <time>2014-09-10T13:34:00Z</time>
      </trkpt>
      <trkpt lat="43.43176" lon="6.05068">
        <ele>288.89840698242</ele>
        <time>2014-09-10T13:34:01Z</time>
      </trkpt>
      <trkpt lat="43.43174" lon="6.05067">
        <ele>289.27606201172</ele>
        <time>2014-09-10T13:34:02Z</time>
      </trkpt>
      <trkpt lat="43.43172" lon="6.05066">
        <ele>289.64685058594</ele>
        <time>2014-09-10T13:34:03Z</time>
      </trkpt>
      <trkpt lat="43.4317" lon="6.05066">
        <ele>289.94897460938</ele>
        <time>2014-09-10T13:34:04Z</time>
      </trkpt>
      <trkpt lat="43.43169" lon="6.05065">
        <ele>290.36782836914</ele>
        <time>2014-09-10T13:34:05Z</time>
      </trkpt>
      <trkpt lat="43.43158" lon="6.05059">
        <ele>292.54333496094</ele>
        <time>2014-09-10T13:34:11Z</time>
      </trkpt>
      <trkpt lat="43.43151" lon="6.05055">
        <ele>293.76986694336</ele>
        <time>2014-09-10T13:34:15Z</time>
      </trkpt>
      <trkpt lat="43.43149" lon="6.05054">
        <ele>294.00662231445</ele>
        <time>2014-09-10T13:34:16Z</time>
      </trkpt>
      <trkpt lat="43.43148" lon="6.05053">
        <ele>294.15878295898</ele>
        <time>2014-09-10T13:34:17Z</time>
      </trkpt>
      <trkpt lat="43.43147" lon="6.05052">
        <ele>294.35372924805</ele>
        <time>2014-09-10T13:34:18Z</time>
      </trkpt>
      <trkpt lat="43.43145" lon="6.05052">
        <ele>294.5876159668</ele>
        <time>2014-09-10T13:34:19Z</time>
      </trkpt>
      <trkpt lat="43.43144" lon="6.0505">
        <ele>294.72723388672</ele>
        <time>2014-09-10T13:34:20Z</time>
      </trkpt>
      <trkpt lat="43.43138" lon="6.05045">
        <ele>295.439453125</ele>
        <time>2014-09-10T13:34:24Z</time>
      </trkpt>
      <trkpt lat="43.43132" lon="6.05037">
        <ele>296.26605224609</ele>
        <time>2014-09-10T13:34:29Z</time>
      </trkpt>
      <trkpt lat="43.43129" lon="6.05032">
        <ele>296.64801025391</ele>
        <time>2014-09-10T13:34:33Z</time>
      </trkpt>
      <trkpt lat="43.43124" lon="6.05026">
        <ele>297.16647338867</ele>
        <time>2014-09-10T13:34:36Z</time>
      </trkpt>
      <trkpt lat="43.43122" lon="6.05023">
        <ele>297.47137451172</ele>
        <time>2014-09-10T13:34:38Z</time>
      </trkpt>
      <trkpt lat="43.43118" lon="6.05017">
        <ele>297.99346923828</ele>
        <time>2014-09-10T13:34:41Z</time>
      </trkpt>
      <trkpt lat="43.4311" lon="6.05003">
        <ele>298.92639160156</ele>
        <time>2014-09-10T13:34:47Z</time>
      </trkpt>
      <trkpt lat="43.43109" lon="6.05">
        <ele>299.05514526367</ele>
        <time>2014-09-10T13:34:48Z</time>
      </trkpt>
      <trkpt lat="43.43108" lon="6.04997">
        <ele>299.11248779297</ele>
        <time>2014-09-10T13:34:49Z</time>
      </trkpt>
      <trkpt lat="43.43107" lon="6.04994">
        <ele>299.15368652344</ele>
        <time>2014-09-10T13:34:50Z</time>
      </trkpt>
      <trkpt lat="43.43105" lon="6.04989">
        <ele>299.23608398438</ele>
        <time>2014-09-10T13:34:52Z</time>
      </trkpt>
      <trkpt lat="43.43101" lon="6.04984">
        <ele>299.35968017578</ele>
        <time>2014-09-10T13:34:54Z</time>
      </trkpt>
      <trkpt lat="43.43093" lon="6.04972">
        <ele>299.66180419922</ele>
        <time>2014-09-10T13:34:59Z</time>
      </trkpt>
      <trkpt lat="43.43087" lon="6.04966">
        <ele>299.89889526367</ele>
        <time>2014-09-10T13:35:03Z</time>
      </trkpt>
      <trkpt lat="43.43084" lon="6.04961">
        <ele>299.97842407227</ele>
        <time>2014-09-10T13:35:05Z</time>
      </trkpt>
      <trkpt lat="43.43081" lon="6.04957">
        <ele>300</ele>
        <time>2014-09-10T13:35:07Z</time>
      </trkpt>
      <trkpt lat="43.43075" lon="6.04946">
        <ele>300</ele>
        <time>2014-09-10T13:35:12Z</time>
      </trkpt>
      <trkpt lat="43.43068" lon="6.04933">
        <ele>300</ele>
        <time>2014-09-10T13:35:17Z</time>
      </trkpt>
      <trkpt lat="43.43063" lon="6.04925">
        <ele>300</ele>
        <time>2014-09-10T13:35:22Z</time>
      </trkpt>
      <trkpt lat="43.43062" lon="6.04923">
        <ele>300</ele>
        <time>2014-09-10T13:35:23Z</time>
      </trkpt>
      <trkpt lat="43.43062" lon="6.04921">
        <ele>300</ele>
        <time>2014-09-10T13:35:24Z</time>
      </trkpt>
      <trkpt lat="43.4306" lon="6.04919">
        <ele>300</ele>
        <time>2014-09-10T13:35:25Z</time>
      </trkpt>
      <trkpt lat="43.43056" lon="6.04913">
        <ele>300</ele>
        <time>2014-09-10T13:35:28Z</time>
      </trkpt>
      <trkpt lat="43.43054" lon="6.04909">
        <ele>300</ele>
        <time>2014-09-10T13:35:30Z</time>
      </trkpt>
      <trkpt lat="43.43049" lon="6.049">
        <ele>300</ele>
        <time>2014-09-10T13:35:34Z</time>
      </trkpt>
      <trkpt lat="43.43047" lon="6.04896">
        <ele>300</ele>
        <time>2014-09-10T13:35:36Z</time>
      </trkpt>
      <trkpt lat="43.43045" lon="6.04894">
        <ele>300</ele>
        <time>2014-09-10T13:35:37Z</time>
      </trkpt>
      <trkpt lat="43.43044" lon="6.04892">
        <ele>300</ele>
        <time>2014-09-10T13:35:38Z</time>
      </trkpt>
      <trkpt lat="43.43043" lon="6.04889">
        <ele>300</ele>
        <time>2014-09-10T13:35:39Z</time>
      </trkpt>
      <trkpt lat="43.43041" lon="6.04886">
        <ele>300</ele>
        <time>2014-09-10T13:35:40Z</time>
      </trkpt>
      <trkpt lat="43.43034" lon="6.04871">
        <ele>300</ele>
        <time>2014-09-10T13:35:46Z</time>
      </trkpt>
      <trkpt lat="43.43032" lon="6.04867">
        <ele>300</ele>
        <time>2014-09-10T13:35:48Z</time>
      </trkpt>
      <trkpt lat="43.43028" lon="6.04861">
        <ele>300</ele>
        <time>2014-09-10T13:35:50Z</time>
      </trkpt>
      <trkpt lat="43.43028" lon="6.04858">
        <ele>300</ele>
        <time>2014-09-10T13:35:51Z</time>
      </trkpt>
      <trkpt lat="43.43024" lon="6.0484">
        <ele>301.24533081055</ele>
        <time>2014-09-10T13:35:58Z</time>
      </trkpt>
      <trkpt lat="43.43024" lon="6.04827">
        <ele>301.39031982422</ele>
        <time>2014-09-10T13:36:03Z</time>
      </trkpt>
      <trkpt lat="43.43026" lon="6.0482">
        <ele>301.55511474609</ele>
        <time>2014-09-10T13:36:06Z</time>
      </trkpt>
      <trkpt lat="43.43026" lon="6.04818">
        <ele>301.64093017578</ele>
        <time>2014-09-10T13:36:07Z</time>
      </trkpt>
      <trkpt lat="43.43026" lon="6.04815">
        <ele>301.81259155273</ele>
        <time>2014-09-10T13:36:08Z</time>
      </trkpt>
      <trkpt lat="43.43026" lon="6.04807">
        <ele>302.56103515625</ele>
        <time>2014-09-10T13:36:11Z</time>
      </trkpt>
      <trkpt lat="43.43028" lon="6.04794">
        <ele>302.83325195312</ele>
        <time>2014-09-10T13:36:16Z</time>
      </trkpt>
      <trkpt lat="43.4303" lon="6.04784">
        <ele>303.42034912109</ele>
        <time>2014-09-10T13:36:20Z</time>
      </trkpt>
      <trkpt lat="43.43029" lon="6.04781">
        <ele>303.650390625</ele>
        <time>2014-09-10T13:36:21Z</time>
      </trkpt>
      <trkpt lat="43.43029" lon="6.04777">
        <ele>303.90713500977</ele>
        <time>2014-09-10T13:36:22Z</time>
      </trkpt>
      <trkpt lat="43.43031" lon="6.04772">
        <ele>304.10330200195</ele>
        <time>2014-09-10T13:36:24Z</time>
      </trkpt>
      <trkpt lat="43.43036" lon="6.04761">
        <ele>304.42181396484</ele>
        <time>2014-09-10T13:36:28Z</time>
      </trkpt>
      <trkpt lat="43.43042" lon="6.04748">
        <ele>304.57766723633</ele>
        <time>2014-09-10T13:36:33Z</time>
      </trkpt>
      <trkpt lat="43.43045" lon="6.0474">
        <ele>304.49011230469</ele>
        <time>2014-09-10T13:36:36Z</time>
      </trkpt>
      <trkpt lat="43.43047" lon="6.04735">
        <ele>304.42144775391</ele>
        <time>2014-09-10T13:36:38Z</time>
      </trkpt>
      <trkpt lat="43.43049" lon="6.04733">
        <ele>304.32702636719</ele>
        <time>2014-09-10T13:36:39Z</time>
      </trkpt>
      <trkpt lat="43.43052" lon="6.04725">
        <ele>304.23950195312</ele>
        <time>2014-09-10T13:36:42Z</time>
      </trkpt>
      <trkpt lat="43.43058" lon="6.04715">
        <ele>304.36688232422</ele>
        <time>2014-09-10T13:36:46Z</time>
      </trkpt>
      <trkpt lat="43.43061" lon="6.04702">
        <ele>304.90075683594</ele>
        <time>2014-09-10T13:36:51Z</time>
      </trkpt>
      <trkpt lat="43.43061" lon="6.04699">
        <ele>305.00375366211</ele>
        <time>2014-09-10T13:36:52Z</time>
      </trkpt>
      <trkpt lat="43.4306" lon="6.04696">
        <ele>305.087890625</ele>
        <time>2014-09-10T13:36:53Z</time>
      </trkpt>
      <trkpt lat="43.43057" lon="6.04688">
        <ele>305.30072021484</ele>
        <time>2014-09-10T13:36:55Z</time>
      </trkpt>
      <trkpt lat="43.43056" lon="6.04685">
        <ele>305.39001464844</ele>
        <time>2014-09-10T13:36:56Z</time>
      </trkpt>
      <trkpt lat="43.43055" lon="6.04675">
        <ele>305.77584838867</ele>
        <time>2014-09-10T13:36:59Z</time>
      </trkpt>
      <trkpt lat="43.43055" lon="6.04665">
        <ele>306.17926025391</ele>
        <time>2014-09-10T13:37:02Z</time>
      </trkpt>
      <trkpt lat="43.43052" lon="6.04645">
        <ele>307.18692016602</ele>
        <time>2014-09-10T13:37:07Z</time>
      </trkpt>
      <trkpt lat="43.43047" lon="6.04624">
        <ele>308.48297119141</ele>
        <time>2014-09-10T13:37:13Z</time>
      </trkpt>
      <trkpt lat="43.43047" lon="6.0462">
        <ele>308.63745117188</ele>
        <time>2014-09-10T13:37:14Z</time>
      </trkpt>
      <trkpt lat="43.43046" lon="6.04613">
        <ele>308.96704101562</ele>
        <time>2014-09-10T13:37:16Z</time>
      </trkpt>
      <trkpt lat="43.43045" lon="6.046">
        <ele>309.5661315918</ele>
        <time>2014-09-10T13:37:20Z</time>
      </trkpt>
      <trkpt lat="43.43046" lon="6.04585">
        <ele>310.00903320312</ele>
        <time>2014-09-10T13:37:25Z</time>
      </trkpt>
      <trkpt lat="43.43048" lon="6.0457">
        <ele>310.47302246094</ele>
        <time>2014-09-10T13:37:30Z</time>
      </trkpt>
      <trkpt lat="43.43051" lon="6.04551">
        <ele>310.85437011719</ele>
        <time>2014-09-10T13:37:35Z</time>
      </trkpt>
      <trkpt lat="43.43054" lon="6.04538">
        <ele>310.88525390625</ele>
        <time>2014-09-10T13:37:38Z</time>
      </trkpt>
      <trkpt lat="43.43055" lon="6.04533">
        <ele>310.94879150391</ele>
        <time>2014-09-10T13:37:39Z</time>
      </trkpt>
      <trkpt lat="43.43056" lon="6.0452">
        <ele>311.30715942383</ele>
        <time>2014-09-10T13:37:42Z</time>
      </trkpt>
      <trkpt lat="43.43061" lon="6.04495">
        <ele>312.37661743164</ele>
        <time>2014-09-10T13:37:47Z</time>
      </trkpt>
      <trkpt lat="43.43067" lon="6.04462">
        <ele>313.79968261719</ele>
        <time>2014-09-10T13:37:54Z</time>
      </trkpt>
      <trkpt lat="43.43069" lon="6.04451">
        <ele>314.25115966797</ele>
        <time>2014-09-10T13:37:56Z</time>
      </trkpt>
      <trkpt lat="43.43072" lon="6.04447">
        <ele>314.49319458008</ele>
        <time>2014-09-10T13:37:57Z</time>
      </trkpt>
      <trkpt lat="43.43076" lon="6.04441">
        <ele>314.88803100586</ele>
        <time>2014-09-10T13:37:59Z</time>
      </trkpt>
      <trkpt lat="43.43078" lon="6.04437">
        <ele>315.08200073242</ele>
        <time>2014-09-10T13:38:00Z</time>
      </trkpt>
      <trkpt lat="43.43079" lon="6.04427">
        <ele>315.45965576172</ele>
        <time>2014-09-10T13:38:02Z</time>
      </trkpt>
      <trkpt lat="43.43079" lon="6.04423">
        <ele>315.61929321289</ele>
        <time>2014-09-10T13:38:03Z</time>
      </trkpt>
      <trkpt lat="43.43084" lon="6.044">
        <ele>316.03442382812</ele>
        <time>2014-09-10T13:38:08Z</time>
      </trkpt>
      <trkpt lat="43.43088" lon="6.04391">
        <ele>316.638671875</ele>
        <time>2014-09-10T13:38:10Z</time>
      </trkpt>
      <trkpt lat="43.43089" lon="6.04388">
        <ele>316.89569091797</ele>
        <time>2014-09-10T13:38:11Z</time>
      </trkpt>
      <trkpt lat="43.43092" lon="6.04384">
        <ele>317.30706787109</ele>
        <time>2014-09-10T13:38:12Z</time>
      </trkpt>
      <trkpt lat="43.43094" lon="6.04382">
        <ele>317.68023681641</ele>
        <time>2014-09-10T13:38:13Z</time>
      </trkpt>
      <trkpt lat="43.43096" lon="6.04379">
        <ele>317.98803710938</ele>
        <time>2014-09-10T13:38:14Z</time>
      </trkpt>
      <trkpt lat="43.43101" lon="6.04365">
        <ele>318.82791137695</ele>
        <time>2014-09-10T13:38:18Z</time>
      </trkpt>
      <trkpt lat="43.43101" lon="6.04357">
        <ele>318.93176269531</ele>
        <time>2014-09-10T13:38:20Z</time>
      </trkpt>
      <trkpt lat="43.43102" lon="6.04353">
        <ele>319.05902099609</ele>
        <time>2014-09-10T13:38:21Z</time>
      </trkpt>
      <trkpt lat="43.43103" lon="6.04345">
        <ele>319.25793457031</ele>
        <time>2014-09-10T13:38:23Z</time>
      </trkpt>
      <trkpt lat="43.43103" lon="6.04341">
        <ele>319.30395507812</ele>
        <time>2014-09-10T13:38:24Z</time>
      </trkpt>
      <trkpt lat="43.43103" lon="6.04323">
        <ele>319.50588989258</ele>
        <time>2014-09-10T13:38:29Z</time>
      </trkpt>
      <trkpt lat="43.431" lon="6.04305">
        <ele>319.62619018555</ele>
        <time>2014-09-10T13:38:34Z</time>
      </trkpt>
      <trkpt lat="43.43099" lon="6.04298">
        <ele>319.67861938477</ele>
        <time>2014-09-10T13:38:36Z</time>
      </trkpt>
      <trkpt lat="43.43098" lon="6.04295">
        <ele>319.70541381836</ele>
        <time>2014-09-10T13:38:37Z</time>
      </trkpt>
      <trkpt lat="43.43097" lon="6.04287">
        <ele>319.83746337891</ele>
        <time>2014-09-10T13:38:39Z</time>
      </trkpt>
      <trkpt lat="43.43097" lon="6.04283">
        <ele>319.91278076172</ele>
        <time>2014-09-10T13:38:40Z</time>
      </trkpt>
      <trkpt lat="43.43097" lon="6.04279">
        <ele>319.98425292969</ele>
        <time>2014-09-10T13:38:41Z</time>
      </trkpt>
      <trkpt lat="43.43089" lon="6.04249">
        <ele>320.6526184082</ele>
        <time>2014-09-10T13:38:48Z</time>
      </trkpt>
      <trkpt lat="43.43081" lon="6.04224">
        <ele>320.29809570312</ele>
        <time>2014-09-10T13:38:54Z</time>
      </trkpt>
      <trkpt lat="43.43073" lon="6.04207">
        <ele>322.20379638672</ele>
        <time>2014-09-10T13:38:58Z</time>
      </trkpt>
      <trkpt lat="43.43073" lon="6.04202">
        <ele>322.65353393555</ele>
        <time>2014-09-10T13:38:59Z</time>
      </trkpt>
      <trkpt lat="43.43073" lon="6.04196">
        <ele>322.99685668945</ele>
        <time>2014-09-10T13:39:00Z</time>
      </trkpt>
      <trkpt lat="43.43074" lon="6.04191">
        <ele>323.11724853516</ele>
        <time>2014-09-10T13:39:01Z</time>
      </trkpt>
      <trkpt lat="43.43075" lon="6.04186">
        <ele>323.16873168945</ele>
        <time>2014-09-10T13:39:02Z</time>
      </trkpt>
      <trkpt lat="43.43078" lon="6.04168">
        <ele>323.49487304688</ele>
        <time>2014-09-10T13:39:06Z</time>
      </trkpt>
      <trkpt lat="43.43075" lon="6.0415">
        <ele>324.48880004883</ele>
        <time>2014-09-10T13:39:10Z</time>
      </trkpt>
      <trkpt lat="43.43076" lon="6.0414">
        <ele>324.72055053711</ele>
        <time>2014-09-10T13:39:12Z</time>
      </trkpt>
      <trkpt lat="43.43079" lon="6.04132">
        <ele>324.96221923828</ele>
        <time>2014-09-10T13:39:14Z</time>
      </trkpt>
      <trkpt lat="43.43082" lon="6.04118">
        <ele>325.59393310547</ele>
        <time>2014-09-10T13:39:18Z</time>
      </trkpt>
      <trkpt lat="43.43084" lon="6.04109">
        <ele>326.06912231445</ele>
        <time>2014-09-10T13:39:20Z</time>
      </trkpt>
      <trkpt lat="43.43083" lon="6.04092">
        <ele>326.75396728516</ele>
        <time>2014-09-10T13:39:24Z</time>
      </trkpt>
      <trkpt lat="43.43082" lon="6.04088">
        <ele>326.93249511719</ele>
        <time>2014-09-10T13:39:25Z</time>
      </trkpt>
      <trkpt lat="43.43081" lon="6.04084">
        <ele>327.1916809082</ele>
        <time>2014-09-10T13:39:26Z</time>
      </trkpt>
      <trkpt lat="43.43081" lon="6.04078">
        <ele>327.49038696289</ele>
        <time>2014-09-10T13:39:28Z</time>
      </trkpt>
      <trkpt lat="43.43081" lon="6.04067">
        <ele>327.81823730469</ele>
        <time>2014-09-10T13:39:32Z</time>
      </trkpt>
      <trkpt lat="43.43081" lon="6.04065">
        <ele>327.91952514648</ele>
        <time>2014-09-10T13:39:33Z</time>
      </trkpt>
      <trkpt lat="43.43081" lon="6.04061">
        <ele>328.03454589844</ele>
        <time>2014-09-10T13:39:37Z</time>
      </trkpt>
      <trkpt lat="43.43081" lon="6.04055">
        <ele>328.32550048828</ele>
        <time>2014-09-10T13:39:41Z</time>
      </trkpt>
      <trkpt lat="43.4308" lon="6.04053">
        <ele>328.55374145508</ele>
        <time>2014-09-10T13:39:42Z</time>
      </trkpt>
      <trkpt lat="43.43077" lon="6.04055">
        <ele>328.72991943359</ele>
        <time>2014-09-10T13:39:45Z</time>
      </trkpt>
      <trkpt lat="43.43079" lon="6.04059">
        <ele>328.35556030273</ele>
        <time>2014-09-10T13:39:48Z</time>
      </trkpt>
      <trkpt lat="43.43081" lon="6.04059">
        <ele>328.13925170898</ele>
        <time>2014-09-10T13:39:49Z</time>
      </trkpt>
      <trkpt lat="43.43086" lon="6.0406">
        <ele>327.93505859375</ele>
        <time>2014-09-10T13:39:52Z</time>
      </trkpt>
      <trkpt lat="43.4309" lon="6.04061">
        <ele>328.03463745117</ele>
        <time>2014-09-10T13:39:54Z</time>
      </trkpt>
      <trkpt lat="43.43098" lon="6.04064">
        <ele>328.22344970703</ele>
        <time>2014-09-10T13:39:59Z</time>
      </trkpt>
      <trkpt lat="43.43103" lon="6.04065">
        <ele>328.37796020508</ele>
        <time>2014-09-10T13:40:02Z</time>
      </trkpt>
      <trkpt lat="43.43105" lon="6.04064">
        <ele>328.45520019531</ele>
        <time>2014-09-10T13:40:03Z</time>
      </trkpt>
      <trkpt lat="43.43106" lon="6.04065">
        <ele>328.50671386719</ele>
        <time>2014-09-10T13:40:04Z</time>
      </trkpt>
      <trkpt lat="43.43108" lon="6.04064">
        <ele>328.57537841797</ele>
        <time>2014-09-10T13:40:05Z</time>
      </trkpt>
      <trkpt lat="43.43111" lon="6.04066">
        <ele>328.61999511719</ele>
        <time>2014-09-10T13:40:08Z</time>
      </trkpt>
      <trkpt lat="43.43112" lon="6.04067">
        <ele>328.69454956055</ele>
        <time>2014-09-10T13:40:09Z</time>
      </trkpt>
      <trkpt lat="43.43113" lon="6.04067">
        <ele>328.80279541016</ele>
        <time>2014-09-10T13:40:10Z</time>
      </trkpt>
      <trkpt lat="43.43113" lon="6.04068">
        <ele>328.86199951172</ele>
        <time>2014-09-10T13:40:11Z</time>
      </trkpt>
      <trkpt lat="43.43113" lon="6.04068">
        <ele>328.78164672852</ele>
        <time>2014-09-10T13:40:12Z</time>
      </trkpt>
      <trkpt lat="43.43113" lon="6.04068">
        <ele>328.84115600586</ele>
        <time>2014-09-10T13:40:13Z</time>
      </trkpt>
      <trkpt lat="43.43113" lon="6.04068">
        <ele>328.84115600586</ele>
        <time>2014-09-10T13:40:21Z</time>
      </trkpt>
      <trkpt lat="43.43111" lon="6.04068">
        <ele>328.61184692383</ele>
        <time>2014-09-10T13:40:27Z</time>
      </trkpt>
      <trkpt lat="43.43112" lon="6.04068">
        <ele>328.67779541016</ele>
        <time>2014-09-10T13:40:28Z</time>
      </trkpt>
      <trkpt lat="43.43111" lon="6.04067">
        <ele>328.62710571289</ele>
        <time>2014-09-10T13:40:34Z</time>
      </trkpt>
      <trkpt lat="43.43111" lon="6.04067">
        <ele>328.56677246094</ele>
        <time>2014-09-10T13:40:36Z</time>
      </trkpt>
      <trkpt lat="43.4311" lon="6.04066">
        <ele>328.57537841797</ele>
        <time>2014-09-10T13:40:39Z</time>
      </trkpt>
      <trkpt lat="43.4311" lon="6.04066">
        <ele>328.57537841797</ele>
        <time>2014-09-10T13:40:44Z</time>
      </trkpt>
      <trkpt lat="43.4311" lon="6.04066">
        <ele>328.57537841797</ele>
        <time>2014-09-10T13:41:00Z</time>
      </trkpt>
      <trkpt lat="43.43108" lon="6.04066">
        <ele>328.49127197266</ele>
        <time>2014-09-10T13:41:03Z</time>
      </trkpt>
      <trkpt lat="43.43102" lon="6.04065">
        <ele>328.30584716797</ele>
        <time>2014-09-10T13:41:05Z</time>
      </trkpt>
      <trkpt lat="43.43095" lon="6.04061">
        <ele>328.19427490234</ele>
        <time>2014-09-10T13:41:07Z</time>
      </trkpt>
      <trkpt lat="43.43091" lon="6.04061">
        <ele>328.08441162109</ele>
        <time>2014-09-10T13:41:08Z</time>
      </trkpt>
      <trkpt lat="43.43088" lon="6.0406">
        <ele>327.98315429688</ele>
        <time>2014-09-10T13:41:09Z</time>
      </trkpt>
      <trkpt lat="43.43086" lon="6.04061">
        <ele>327.90933227539</ele>
        <time>2014-09-10T13:41:10Z</time>
      </trkpt>
      <trkpt lat="43.43083" lon="6.04061">
        <ele>327.8337097168</ele>
        <time>2014-09-10T13:41:11Z</time>
      </trkpt>
      <trkpt lat="43.43081" lon="6.04057">
        <ele>328.24740600586</ele>
        <time>2014-09-10T13:41:13Z</time>
      </trkpt>
      <trkpt lat="43.43078" lon="6.0406">
        <ele>328.42077636719</ele>
        <time>2014-09-10T13:41:17Z</time>
      </trkpt>
      <trkpt lat="43.43085" lon="6.0406">
        <ele>327.91275024414</ele>
        <time>2014-09-10T13:41:21Z</time>
      </trkpt>
      <trkpt lat="43.43097" lon="6.04063">
        <ele>328.20629882812</ele>
        <time>2014-09-10T13:41:26Z</time>
      </trkpt>
      <trkpt lat="43.43106" lon="6.04065">
        <ele>328.47924804688</ele>
        <time>2014-09-10T13:41:30Z</time>
      </trkpt>
      <trkpt lat="43.4311" lon="6.04065">
        <ele>328.60626220703</ele>
        <time>2014-09-10T13:41:32Z</time>
      </trkpt>
      <trkpt lat="43.43111" lon="6.04065">
        <ele>328.69161987305</ele>
        <time>2014-09-10T13:41:33Z</time>
      </trkpt>
      <trkpt lat="43.43113" lon="6.04067">
        <ele>328.8288269043</ele>
        <time>2014-09-10T13:41:34Z</time>
      </trkpt>
      <trkpt lat="43.43115" lon="6.04067">
        <ele>329.17514038086</ele>
        <time>2014-09-10T13:41:36Z</time>
      </trkpt>
      <trkpt lat="43.43116" lon="6.04067">
        <ele>329.35583496094</ele>
        <time>2014-09-10T13:41:37Z</time>
      </trkpt>
      <trkpt lat="43.43117" lon="6.04067">
        <ele>329.48550415039</ele>
        <time>2014-09-10T13:41:38Z</time>
      </trkpt>
      <trkpt lat="43.43118" lon="6.04067">
        <ele>329.60272216797</ele>
        <time>2014-09-10T13:41:39Z</time>
      </trkpt>
      <trkpt lat="43.43119" lon="6.04068">
        <ele>329.89157104492</ele>
        <time>2014-09-10T13:41:41Z</time>
      </trkpt>
      <trkpt lat="43.43122" lon="6.04068">
        <ele>330.25189208984</ele>
        <time>2014-09-10T13:41:43Z</time>
      </trkpt>
      <trkpt lat="43.43122" lon="6.04068">
        <ele>330.37704467773</ele>
        <time>2014-09-10T13:41:44Z</time>
      </trkpt>
      <trkpt lat="43.43123" lon="6.04068">
        <ele>330.44299316406</ele>
        <time>2014-09-10T13:41:45Z</time>
      </trkpt>
      <trkpt lat="43.43127" lon="6.04066">
        <ele>331.2038269043</ele>
        <time>2014-09-10T13:41:48Z</time>
      </trkpt>
      <trkpt lat="43.4313" lon="6.04065">
        <ele>331.68734741211</ele>
        <time>2014-09-10T13:41:50Z</time>
      </trkpt>
      <trkpt lat="43.43133" lon="6.04063">
        <ele>332.05877685547</ele>
        <time>2014-09-10T13:41:52Z</time>
      </trkpt>
      <trkpt lat="43.43134" lon="6.04063">
        <ele>332.17636108398</ele>
        <time>2014-09-10T13:41:53Z</time>
      </trkpt>
      <trkpt lat="43.43134" lon="6.04063">
        <ele>332.23944091797</ele>
        <time>2014-09-10T13:41:54Z</time>
      </trkpt>
      <trkpt lat="43.43135" lon="6.04062">
        <ele>332.35897827148</ele>
        <time>2014-09-10T13:41:55Z</time>
      </trkpt>
      <trkpt lat="43.43136" lon="6.04062">
        <ele>332.53573608398</ele>
        <time>2014-09-10T13:41:56Z</time>
      </trkpt>
      <trkpt lat="43.43139" lon="6.04057">
        <ele>332.94369506836</ele>
        <time>2014-09-10T13:42:01Z</time>
      </trkpt>
      <trkpt lat="43.43139" lon="6.04057">
        <ele>332.99951171875</ele>
        <time>2014-09-10T13:42:03Z</time>
      </trkpt>
      <trkpt lat="43.43139" lon="6.04057">
        <ele>332.99951171875</ele>
        <time>2014-09-10T13:42:10Z</time>
      </trkpt>
      <trkpt lat="43.43139" lon="6.04058">
        <ele>332.99951171875</ele>
        <time>2014-09-10T13:42:19Z</time>
      </trkpt>
      <trkpt lat="43.43139" lon="6.04058">
        <ele>332.99951171875</ele>
        <time>2014-09-10T13:42:37Z</time>
      </trkpt>
      <trkpt lat="43.43139" lon="6.04057">
        <ele>333.08258056641</ele>
        <time>2014-09-10T13:43:00Z</time>
      </trkpt>
      <trkpt lat="43.43139" lon="6.04057">
        <ele>333.08258056641</ele>
        <time>2014-09-10T13:43:03Z</time>
      </trkpt>
      <trkpt lat="43.43139" lon="6.04057">
        <ele>332.99951171875</ele>
        <time>2014-09-10T13:43:09Z</time>
      </trkpt>
      <trkpt lat="43.43139" lon="6.04058">
        <ele>332.99951171875</ele>
        <time>2014-09-10T13:43:16Z</time>
      </trkpt>
      <trkpt lat="43.43137" lon="6.04059">
        <ele>332.71719360352</ele>
        <time>2014-09-10T13:43:26Z</time>
      </trkpt>
      <trkpt lat="43.43131" lon="6.04065">
        <ele>331.74896240234</ele>
        <time>2014-09-10T13:43:30Z</time>
      </trkpt>
      <trkpt lat="43.43129" lon="6.04066">
        <ele>331.50192260742</ele>
        <time>2014-09-10T13:43:31Z</time>
      </trkpt>
      <trkpt lat="43.43118" lon="6.0407">
        <ele>329.58685302734</ele>
        <time>2014-09-10T13:43:35Z</time>
      </trkpt>
      <trkpt lat="43.43112" lon="6.04068">
        <ele>328.72711181641</ele>
        <time>2014-09-10T13:43:36Z</time>
      </trkpt>
      <trkpt lat="43.43106" lon="6.04066">
        <ele>328.46380615234</ele>
        <time>2014-09-10T13:43:37Z</time>
      </trkpt>
      <trkpt lat="43.43101" lon="6.04064">
        <ele>328.31274414062</ele>
        <time>2014-09-10T13:43:38Z</time>
      </trkpt>
      <trkpt lat="43.43094" lon="6.04064">
        <ele>328.09301757812</ele>
        <time>2014-09-10T13:43:39Z</time>
      </trkpt>
      <trkpt lat="43.43088" lon="6.04062">
        <ele>327.94021606445</ele>
        <time>2014-09-10T13:43:40Z</time>
      </trkpt>
      <trkpt lat="43.43083" lon="6.04061">
        <ele>327.87316894531</ele>
        <time>2014-09-10T13:43:41Z</time>
      </trkpt>
      <trkpt lat="43.43079" lon="6.04057">
        <ele>328.36413574219</ele>
        <time>2014-09-10T13:43:42Z</time>
      </trkpt>
      <trkpt lat="43.43076" lon="6.04054">
        <ele>328.90774536133</ele>
        <time>2014-09-10T13:43:43Z</time>
      </trkpt>
      <trkpt lat="43.43073" lon="6.04054">
        <ele>329.19384765625</ele>
        <time>2014-09-10T13:43:44Z</time>
      </trkpt>
      <trkpt lat="43.43071" lon="6.04053">
        <ele>329.4411315918</ele>
        <time>2014-09-10T13:43:45Z</time>
      </trkpt>
      <trkpt lat="43.43072" lon="6.04053">
        <ele>329.34762573242</ele>
        <time>2014-09-10T13:43:47Z</time>
      </trkpt>
      <trkpt lat="43.43068" lon="6.04051">
        <ele>329.91189575195</ele>
        <time>2014-09-10T13:43:52Z</time>
      </trkpt>
      <trkpt lat="43.43066" lon="6.04047">
        <ele>330.25103759766</ele>
        <time>2014-09-10T13:43:54Z</time>
      </trkpt>
      <trkpt lat="43.43064" lon="6.04042">
        <ele>330.6789855957</ele>
        <time>2014-09-10T13:43:56Z</time>
      </trkpt>
      <trkpt lat="43.43066" lon="6.04025">
        <ele>331.34686279297</ele>
        <time>2014-09-10T13:44:01Z</time>
      </trkpt>
      <trkpt lat="43.43074" lon="6.0402">
        <ele>330.96060180664</ele>
        <time>2014-09-10T13:44:05Z</time>
      </trkpt>
      <trkpt lat="43.43079" lon="6.04032">
        <ele>330.03179931641</ele>
        <time>2014-09-10T13:44:09Z</time>
      </trkpt>
      <trkpt lat="43.4308" lon="6.04041">
        <ele>329.39212036133</ele>
        <time>2014-09-10T13:44:11Z</time>
      </trkpt>
      <trkpt lat="43.43078" lon="6.04051">
        <ele>328.87115478516</ele>
        <time>2014-09-10T13:44:14Z</time>
      </trkpt>
      <trkpt lat="43.43078" lon="6.04053">
        <ele>328.685546875</ele>
        <time>2014-09-10T13:44:18Z</time>
      </trkpt>
      <trkpt lat="43.43078" lon="6.04053">
        <ele>328.685546875</ele>
        <time>2014-09-10T13:44:27Z</time>
      </trkpt>
      <trkpt lat="43.43078" lon="6.04053">
        <ele>328.685546875</ele>
        <time>2014-09-10T13:44:40Z</time>
      </trkpt>
      <trkpt lat="43.43077" lon="6.04053">
        <ele>328.80609130859</ele>
        <time>2014-09-10T13:44:43Z</time>
      </trkpt>
      <trkpt lat="43.43076" lon="6.04054">
        <ele>328.92547607422</ele>
        <time>2014-09-10T13:44:45Z</time>
      </trkpt>
      <trkpt lat="43.43075" lon="6.04055">
        <ele>328.92791748047</ele>
        <time>2014-09-10T13:44:49Z</time>
      </trkpt>
      <trkpt lat="43.43075" lon="6.04055">
        <ele>328.92791748047</ele>
        <time>2014-09-10T13:45:03Z</time>
      </trkpt>
      <trkpt lat="43.43075" lon="6.04055">
        <ele>328.92791748047</ele>
        <time>2014-09-10T13:45:56Z</time>
      </trkpt>
      <trkpt lat="43.43076" lon="6.04055">
        <ele>328.89004516602</ele>
        <time>2014-09-10T13:46:01Z</time>
      </trkpt>
      <trkpt lat="43.43076" lon="6.04056">
        <ele>328.77954101562</ele>
        <time>2014-09-10T13:46:06Z</time>
      </trkpt>
      <trkpt lat="43.43076" lon="6.04056">
        <ele>328.77954101562</ele>
        <time>2014-09-10T13:46:14Z</time>
      </trkpt>
      <trkpt lat="43.43076" lon="6.04056">
        <ele>328.7692565918</ele>
        <time>2014-09-10T13:46:21Z</time>
      </trkpt>
      <trkpt lat="43.43076" lon="6.04056">
        <ele>328.7692565918</ele>
        <time>2014-09-10T13:46:43Z</time>
      </trkpt>
      <trkpt lat="43.43076" lon="6.04056">
        <ele>328.73150634766</ele>
        <time>2014-09-10T13:47:00Z</time>
      </trkpt>
      <trkpt lat="43.43076" lon="6.04056">
        <ele>328.73150634766</ele>
        <time>2014-09-10T13:47:17Z</time>
      </trkpt>
      <trkpt lat="43.43076" lon="6.04056">
        <ele>328.78469848633</ele>
        <time>2014-09-10T13:47:42Z</time>
      </trkpt>
      <trkpt lat="43.43076" lon="6.04056">
        <ele>328.78469848633</ele>
        <time>2014-09-10T13:47:50Z</time>
      </trkpt>
      <trkpt lat="43.43076" lon="6.04057">
        <ele>328.74694824219</ele>
        <time>2014-09-10T13:47:56Z</time>
      </trkpt>
      <trkpt lat="43.43076" lon="6.04057">
        <ele>328.79672241211</ele>
        <time>2014-09-10T13:47:58Z</time>
      </trkpt>
      <trkpt lat="43.43076" lon="6.04057">
        <ele>328.79672241211</ele>
        <time>2014-09-10T13:48:11Z</time>
      </trkpt>
      <trkpt lat="43.43076" lon="6.04057">
        <ele>328.74179077148</ele>
        <time>2014-09-10T13:48:21Z</time>
      </trkpt>
      <trkpt lat="43.43076" lon="6.04057">
        <ele>328.74179077148</ele>
        <time>2014-09-10T13:48:32Z</time>
      </trkpt>
      <trkpt lat="43.43077" lon="6.04057">
        <ele>328.57699584961</ele>
        <time>2014-09-10T13:49:09Z</time>
      </trkpt>
      <trkpt lat="43.43085" lon="6.0406">
        <ele>327.92132568359</ele>
        <time>2014-09-10T13:49:13Z</time>
      </trkpt>
      <trkpt lat="43.43088" lon="6.0406">
        <ele>328.00372314453</ele>
        <time>2014-09-10T13:49:14Z</time>
      </trkpt>
      <trkpt lat="43.43098" lon="6.04062">
        <ele>328.31274414062</ele>
        <time>2014-09-10T13:49:19Z</time>
      </trkpt>
      <trkpt lat="43.43101" lon="6.04062">
        <ele>328.38998413086</ele>
        <time>2014-09-10T13:49:20Z</time>
      </trkpt>
      <trkpt lat="43.43109" lon="6.04064">
        <ele>328.60971069336</ele>
        <time>2014-09-10T13:49:24Z</time>
      </trkpt>
      <trkpt lat="43.43111" lon="6.04065">
        <ele>328.63031005859</ele>
        <time>2014-09-10T13:49:25Z</time>
      </trkpt>
      <trkpt lat="43.43112" lon="6.04065">
        <ele>328.78494262695</ele>
        <time>2014-09-10T13:49:26Z</time>
      </trkpt>
      <trkpt lat="43.43115" lon="6.04066">
        <ele>329.19891357422</ele>
        <time>2014-09-10T13:49:28Z</time>
      </trkpt>
      <trkpt lat="43.43116" lon="6.04066">
        <ele>329.44717407227</ele>
        <time>2014-09-10T13:49:29Z</time>
      </trkpt>
      <trkpt lat="43.43116" lon="6.04066">
        <ele>329.44161987305</ele>
        <time>2014-09-10T13:49:30Z</time>
      </trkpt>
      <trkpt lat="43.43118" lon="6.04066">
        <ele>329.75457763672</ele>
        <time>2014-09-10T13:49:31Z</time>
      </trkpt>
      <trkpt lat="43.43119" lon="6.04067">
        <ele>329.79592895508</ele>
        <time>2014-09-10T13:49:32Z</time>
      </trkpt>
      <trkpt lat="43.4312" lon="6.04066">
        <ele>330.05618286133</ele>
        <time>2014-09-10T13:49:33Z</time>
      </trkpt>
      <trkpt lat="43.43121" lon="6.04066">
        <ele>330.18518066406</ele>
        <time>2014-09-10T13:49:34Z</time>
      </trkpt>
      <trkpt lat="43.43122" lon="6.04065">
        <ele>330.3720703125</ele>
        <time>2014-09-10T13:49:35Z</time>
      </trkpt>
      <trkpt lat="43.43125" lon="6.04066">
        <ele>330.8362121582</ele>
        <time>2014-09-10T13:49:37Z</time>
      </trkpt>
      <trkpt lat="43.43128" lon="6.04064">
        <ele>331.27871704102</ele>
        <time>2014-09-10T13:49:39Z</time>
      </trkpt>
      <trkpt lat="43.43129" lon="6.04064">
        <ele>331.52786254883</ele>
        <time>2014-09-10T13:49:40Z</time>
      </trkpt>
      <trkpt lat="43.4313" lon="6.04063">
        <ele>331.71380615234</ele>
        <time>2014-09-10T13:49:41Z</time>
      </trkpt>
      <trkpt lat="43.43133" lon="6.04063">
        <ele>332.06256103516</ele>
        <time>2014-09-10T13:49:42Z</time>
      </trkpt>
      <trkpt lat="43.43137" lon="6.04061">
        <ele>332.65338134766</ele>
        <time>2014-09-10T13:49:45Z</time>
      </trkpt>
      <trkpt lat="43.43143" lon="6.04055">
        <ele>333.90563964844</ele>
        <time>2014-09-10T13:49:51Z</time>
      </trkpt>
      <trkpt lat="43.43142" lon="6.04054">
        <ele>333.74084472656</ele>
        <time>2014-09-10T13:49:52Z</time>
      </trkpt>
      <trkpt lat="43.4314" lon="6.04054">
        <ele>333.32885742188</ele>
        <time>2014-09-10T13:49:54Z</time>
      </trkpt>
      <trkpt lat="43.43139" lon="6.04058">
        <ele>332.94320678711</ele>
        <time>2014-09-10T13:49:58Z</time>
      </trkpt>
      <trkpt lat="43.43135" lon="6.04062">
        <ele>332.36209106445</ele>
        <time>2014-09-10T13:50:03Z</time>
      </trkpt>
      <trkpt lat="43.43132" lon="6.04064">
        <ele>331.87655639648</ele>
        <time>2014-09-10T13:50:05Z</time>
      </trkpt>
      <trkpt lat="43.43125" lon="6.04068">
        <ele>330.73947143555</ele>
        <time>2014-09-10T13:50:10Z</time>
      </trkpt>
      <trkpt lat="43.43123" lon="6.04068">
        <ele>330.49710083008</ele>
        <time>2014-09-10T13:50:11Z</time>
      </trkpt>
      <trkpt lat="43.43118" lon="6.04066">
        <ele>329.63174438477</ele>
        <time>2014-09-10T13:50:15Z</time>
      </trkpt>
      <trkpt lat="43.43115" lon="6.04066">
        <ele>329.21228027344</ele>
        <time>2014-09-10T13:50:17Z</time>
      </trkpt>
      <trkpt lat="43.43113" lon="6.04065">
        <ele>328.94216918945</ele>
        <time>2014-09-10T13:50:18Z</time>
      </trkpt>
      <trkpt lat="43.4311" lon="6.04065">
        <ele>328.62860107422</ele>
        <time>2014-09-10T13:50:19Z</time>
      </trkpt>
      <trkpt lat="43.43108" lon="6.04064">
        <ele>328.56164550781</ele>
        <time>2014-09-10T13:50:20Z</time>
      </trkpt>
      <trkpt lat="43.43104" lon="6.04063">
        <ele>328.48095703125</ele>
        <time>2014-09-10T13:50:21Z</time>
      </trkpt>
      <trkpt lat="43.431" lon="6.04063">
        <ele>328.33160400391</ele>
        <time>2014-09-10T13:50:22Z</time>
      </trkpt>
      <trkpt lat="43.43095" lon="6.04061">
        <ele>328.22860717773</ele>
        <time>2014-09-10T13:50:23Z</time>
      </trkpt>
      <trkpt lat="43.4309" lon="6.0406">
        <ele>328.06381225586</ele>
        <time>2014-09-10T13:50:24Z</time>
      </trkpt>
      <trkpt lat="43.43086" lon="6.0406">
        <ele>327.94879150391</ele>
        <time>2014-09-10T13:50:25Z</time>
      </trkpt>
      <trkpt lat="43.43084" lon="6.04058">
        <ele>327.9264831543</ele>
        <time>2014-09-10T13:50:26Z</time>
      </trkpt>
      <trkpt lat="43.43081" lon="6.04057">
        <ele>328.26971435547</ele>
        <time>2014-09-10T13:50:27Z</time>
      </trkpt>
      <trkpt lat="43.43077" lon="6.04054">
        <ele>328.70449829102</ele>
        <time>2014-09-10T13:50:28Z</time>
      </trkpt>
      <trkpt lat="43.43077" lon="6.04056">
        <ele>328.6731262207</ele>
        <time>2014-09-10T13:50:31Z</time>
      </trkpt>
      <trkpt lat="43.43079" lon="6.04056">
        <ele>328.48257446289</ele>
        <time>2014-09-10T13:50:36Z</time>
      </trkpt>
      <trkpt lat="43.43078" lon="6.04058">
        <ele>328.46884155273</ele>
        <time>2014-09-10T13:50:37Z</time>
      </trkpt>
      <trkpt lat="43.43078" lon="6.04057">
        <ele>328.52893066406</ele>
        <time>2014-09-10T13:50:40Z</time>
      </trkpt>
      <trkpt lat="43.43078" lon="6.04057">
        <ele>328.52893066406</ele>
        <time>2014-09-10T13:50:43Z</time>
      </trkpt>
      <trkpt lat="43.43079" lon="6.04059">
        <ele>328.34008789062</ele>
        <time>2014-09-10T13:50:47Z</time>
      </trkpt>
      <trkpt lat="43.43079" lon="6.04059">
        <ele>328.2903137207</ele>
        <time>2014-09-10T13:50:51Z</time>
      </trkpt>
      <trkpt lat="43.43079" lon="6.04059">
        <ele>328.2903137207</ele>
        <time>2014-09-10T13:51:00Z</time>
      </trkpt>
      <trkpt lat="43.43079" lon="6.04059">
        <ele>328.2903137207</ele>
        <time>2014-09-10T13:52:07Z</time>
      </trkpt>
      <trkpt lat="43.43079" lon="6.04059">
        <ele>328.29376220703</ele>
        <time>2014-09-10T13:52:09Z</time>
      </trkpt>
      <trkpt lat="43.43079" lon="6.04059">
        <ele>328.29376220703</ele>
        <time>2014-09-10T13:52:29Z</time>
      </trkpt>
      <trkpt lat="43.43079" lon="6.04059">
        <ele>328.29376220703</ele>
        <time>2014-09-10T13:52:39Z</time>
      </trkpt>
      <trkpt lat="43.43079" lon="6.04058">
        <ele>328.37271118164</ele>
        <time>2014-09-10T13:52:45Z</time>
      </trkpt>
      <trkpt lat="43.43079" lon="6.04058">
        <ele>328.37271118164</ele>
        <time>2014-09-10T13:52:56Z</time>
      </trkpt>
      <trkpt lat="43.43079" lon="6.04058">
        <ele>328.42593383789</ele>
        <time>2014-09-10T13:53:13Z</time>
      </trkpt>
      <trkpt lat="43.43079" lon="6.04057">
        <ele>328.45510864258</ele>
        <time>2014-09-10T13:53:16Z</time>
      </trkpt>
      <trkpt lat="43.43079" lon="6.04054">
        <ele>328.57940673828</ele>
        <time>2014-09-10T13:53:18Z</time>
      </trkpt>
      <trkpt lat="43.43081" lon="6.04039">
        <ele>329.42880249023</ele>
        <time>2014-09-10T13:53:23Z</time>
      </trkpt>
      <trkpt lat="43.43082" lon="6.04031">
        <ele>329.91571044922</ele>
        <time>2014-09-10T13:53:25Z</time>
      </trkpt>
      <trkpt lat="43.43087" lon="6.04024">
        <ele>330.00103759766</ele>
        <time>2014-09-10T13:53:27Z</time>
      </trkpt>
      <trkpt lat="43.43098" lon="6.04012">
        <ele>330.05255126953</ele>
        <time>2014-09-10T13:53:31Z</time>
      </trkpt>
      <trkpt lat="43.43101" lon="6.04005">
        <ele>330.17785644531</ele>
        <time>2014-09-10T13:53:33Z</time>
      </trkpt>
      <trkpt lat="43.43102" lon="6.03998">
        <ele>330.40789794922</ele>
        <time>2014-09-10T13:53:35Z</time>
      </trkpt>
      <trkpt lat="43.43106" lon="6.03991">
        <ele>330.50228881836</ele>
        <time>2014-09-10T13:53:37Z</time>
      </trkpt>
      <trkpt lat="43.43112" lon="6.03982">
        <ele>330.71719360352</ele>
        <time>2014-09-10T13:53:40Z</time>
      </trkpt>
      <trkpt lat="43.43116" lon="6.03974">
        <ele>331.51678466797</ele>
        <time>2014-09-10T13:53:43Z</time>
      </trkpt>
      <trkpt lat="43.43118" lon="6.03972">
        <ele>331.71170043945</ele>
        <time>2014-09-10T13:53:44Z</time>
      </trkpt>
      <trkpt lat="43.43123" lon="6.03959">
        <ele>332.55404663086</ele>
        <time>2014-09-10T13:53:48Z</time>
      </trkpt>
      <trkpt lat="43.43124" lon="6.03955">
        <ele>332.75982666016</ele>
        <time>2014-09-10T13:53:49Z</time>
      </trkpt>
      <trkpt lat="43.43131" lon="6.03942">
        <ele>333.47637939453</ele>
        <time>2014-09-10T13:53:53Z</time>
      </trkpt>
      <trkpt lat="43.43138" lon="6.03929">
        <ele>333.93975830078</ele>
        <time>2014-09-10T13:53:57Z</time>
      </trkpt>
      <trkpt lat="43.4314" lon="6.0392">
        <ele>334.10961914062</ele>
        <time>2014-09-10T13:54:01Z</time>
      </trkpt>
      <trkpt lat="43.43141" lon="6.03918">
        <ele>334.13708496094</ele>
        <time>2014-09-10T13:54:02Z</time>
      </trkpt>
      <trkpt lat="43.4314" lon="6.03915">
        <ele>334.07757568359</ele>
        <time>2014-09-10T13:54:03Z</time>
      </trkpt>
      <trkpt lat="43.43139" lon="6.03912">
        <ele>333.99987792969</ele>
        <time>2014-09-10T13:54:04Z</time>
      </trkpt>
      <trkpt lat="43.43137" lon="6.03909">
        <ele>333.94494628906</ele>
        <time>2014-09-10T13:54:05Z</time>
      </trkpt>
      <trkpt lat="43.43137" lon="6.03906">
        <ele>333.93121337891</ele>
        <time>2014-09-10T13:54:06Z</time>
      </trkpt>
      <trkpt lat="43.43137" lon="6.03903">
        <ele>333.93121337891</ele>
        <time>2014-09-10T13:54:07Z</time>
      </trkpt>
      <trkpt lat="43.4314" lon="6.03899">
        <ele>334.02038574219</ele>
        <time>2014-09-10T13:54:09Z</time>
      </trkpt>
      <trkpt lat="43.43142" lon="6.0389">
        <ele>334.00729370117</ele>
        <time>2014-09-10T13:54:13Z</time>
      </trkpt>
      <trkpt lat="43.43141" lon="6.03883">
        <ele>333.98391723633</ele>
        <time>2014-09-10T13:54:15Z</time>
      </trkpt>
      <trkpt lat="43.43142" lon="6.0388">
        <ele>333.97052001953</ele>
        <time>2014-09-10T13:54:16Z</time>
      </trkpt>
      <trkpt lat="43.43142" lon="6.03873">
        <ele>333.93728637695</ele>
        <time>2014-09-10T13:54:18Z</time>
      </trkpt>
      <trkpt lat="43.43142" lon="6.03865">
        <ele>333.89511108398</ele>
        <time>2014-09-10T13:54:20Z</time>
      </trkpt>
      <trkpt lat="43.43143" lon="6.03856">
        <ele>333.86279296875</ele>
        <time>2014-09-10T13:54:23Z</time>
      </trkpt>
      <trkpt lat="43.4314" lon="6.03842">
        <ele>333.97265625</ele>
        <time>2014-09-10T13:54:27Z</time>
      </trkpt>
      <trkpt lat="43.43139" lon="6.03838">
        <ele>334</ele>
        <time>2014-09-10T13:54:28Z</time>
      </trkpt>
      <trkpt lat="43.43138" lon="6.03836">
        <ele>334</ele>
        <time>2014-09-10T13:54:29Z</time>
      </trkpt>
      <trkpt lat="43.43137" lon="6.0383">
        <ele>334.00726318359</ele>
        <time>2014-09-10T13:54:31Z</time>
      </trkpt>
      <trkpt lat="43.43137" lon="6.03826">
        <ele>334.02236938477</ele>
        <time>2014-09-10T13:54:32Z</time>
      </trkpt>
      <trkpt lat="43.43135" lon="6.03806">
        <ele>334.15100097656</ele>
        <time>2014-09-10T13:54:37Z</time>
      </trkpt>
      <trkpt lat="43.43128" lon="6.03787">
        <ele>334.66799926758</ele>
        <time>2014-09-10T13:54:42Z</time>
      </trkpt>
      <trkpt lat="43.43127" lon="6.03784">
        <ele>334.78540039062</ele>
        <time>2014-09-10T13:54:43Z</time>
      </trkpt>
      <trkpt lat="43.43122" lon="6.03775">
        <ele>335.29754638672</ele>
        <time>2014-09-10T13:54:46Z</time>
      </trkpt>
      <trkpt lat="43.43126" lon="6.03768">
        <ele>335.29241943359</ele>
        <time>2014-09-10T13:54:49Z</time>
      </trkpt>
      <trkpt lat="43.43127" lon="6.03765">
        <ele>335.31643676758</ele>
        <time>2014-09-10T13:54:50Z</time>
      </trkpt>
      <trkpt lat="43.43127" lon="6.03758">
        <ele>335.54989624023</ele>
        <time>2014-09-10T13:54:52Z</time>
      </trkpt>
      <trkpt lat="43.43119" lon="6.0375">
        <ele>336.41165161133</ele>
        <time>2014-09-10T13:54:56Z</time>
      </trkpt>
      <trkpt lat="43.43113" lon="6.0374">
        <ele>337.18829345703</ele>
        <time>2014-09-10T13:55:00Z</time>
      </trkpt>
      <trkpt lat="43.43112" lon="6.03737">
        <ele>337.4026184082</ele>
        <time>2014-09-10T13:55:01Z</time>
      </trkpt>
      <trkpt lat="43.43111" lon="6.03734">
        <ele>337.62539672852</ele>
        <time>2014-09-10T13:55:02Z</time>
      </trkpt>
      <trkpt lat="43.43108" lon="6.0373">
        <ele>338.22619628906</ele>
        <time>2014-09-10T13:55:04Z</time>
      </trkpt>
      <trkpt lat="43.43103" lon="6.03728">
        <ele>338.89569091797</ele>
        <time>2014-09-10T13:55:06Z</time>
      </trkpt>
      <trkpt lat="43.431" lon="6.03727">
        <ele>339.42095947266</ele>
        <time>2014-09-10T13:55:08Z</time>
      </trkpt>
      <trkpt lat="43.43095" lon="6.03729">
        <ele>340.00119018555</ele>
        <time>2014-09-10T13:55:11Z</time>
      </trkpt>
      <trkpt lat="43.43095" lon="6.03731">
        <ele>340.06811523438</ele>
        <time>2014-09-10T13:55:13Z</time>
      </trkpt>
      <trkpt lat="43.43095" lon="6.03731">
        <ele>340.06811523438</ele>
        <time>2014-09-10T13:55:22Z</time>
      </trkpt>
      <trkpt lat="43.43095" lon="6.03731">
        <ele>340.0715637207</ele>
        <time>2014-09-10T13:55:57Z</time>
      </trkpt>
      <trkpt lat="43.43095" lon="6.03731">
        <ele>340.0715637207</ele>
        <time>2014-09-10T13:56:06Z</time>
      </trkpt>
      <trkpt lat="43.43095" lon="6.03731">
        <ele>340.07327270508</ele>
        <time>2014-09-10T13:56:57Z</time>
      </trkpt>
      <trkpt lat="43.43095" lon="6.03731">
        <ele>340.07327270508</ele>
        <time>2014-09-10T13:57:08Z</time>
      </trkpt>
      <trkpt lat="43.43094" lon="6.03731">
        <ele>340.18313598633</ele>
        <time>2014-09-10T13:57:14Z</time>
      </trkpt>
      <trkpt lat="43.43094" lon="6.03731">
        <ele>340.18313598633</ele>
        <time>2014-09-10T13:57:21Z</time>
      </trkpt>
      <trkpt lat="43.43094" lon="6.0373">
        <ele>340.13165283203</ele>
        <time>2014-09-10T13:57:28Z</time>
      </trkpt>
      <trkpt lat="43.43095" lon="6.0373">
        <ele>340.10760498047</ele>
        <time>2014-09-10T13:57:32Z</time>
      </trkpt>
      <trkpt lat="43.43095" lon="6.0373">
        <ele>340.10760498047</ele>
        <time>2014-09-10T13:57:42Z</time>
      </trkpt>
      <trkpt lat="43.43093" lon="6.0373">
        <ele>340.24838256836</ele>
        <time>2014-09-10T13:57:46Z</time>
      </trkpt>
      <trkpt lat="43.43093" lon="6.0373">
        <ele>340.24664306641</ele>
        <time>2014-09-10T13:57:47Z</time>
      </trkpt>
      <trkpt lat="43.43093" lon="6.0373">
        <ele>340.24664306641</ele>
        <time>2014-09-10T13:57:51Z</time>
      </trkpt>
      <trkpt lat="43.43093" lon="6.0373">
        <ele>340.29473876953</ele>
        <time>2014-09-10T13:57:52Z</time>
      </trkpt>
      <trkpt lat="43.43093" lon="6.03732">
        <ele>340.28442382812</ele>
        <time>2014-09-10T13:57:53Z</time>
      </trkpt>
      <trkpt lat="43.43093" lon="6.03742">
        <ele>339.83639526367</ele>
        <time>2014-09-10T13:57:57Z</time>
      </trkpt>
      <trkpt lat="43.43093" lon="6.03744">
        <ele>339.80377197266</ele>
        <time>2014-09-10T13:57:58Z</time>
      </trkpt>
      <trkpt lat="43.43092" lon="6.0376">
        <ele>339.3454284668</ele>
        <time>2014-09-10T13:58:03Z</time>
      </trkpt>
      <trkpt lat="43.43092" lon="6.03775">
        <ele>338.79611206055</ele>
        <time>2014-09-10T13:58:08Z</time>
      </trkpt>
      <trkpt lat="43.43092" lon="6.03778">
        <ele>338.75149536133</ele>
        <time>2014-09-10T13:58:09Z</time>
      </trkpt>
      <trkpt lat="43.43092" lon="6.03789">
        <ele>338.33950805664</ele>
        <time>2014-09-10T13:58:15Z</time>
      </trkpt>
      <trkpt lat="43.43092" lon="6.03789">
        <ele>338.33950805664</ele>
        <time>2014-09-10T13:58:23Z</time>
      </trkpt>
      <trkpt lat="43.43092" lon="6.03789">
        <ele>338.33950805664</ele>
        <time>2014-09-10T13:58:35Z</time>
      </trkpt>
      <trkpt lat="43.43092" lon="6.03788">
        <ele>338.31719970703</ele>
        <time>2014-09-10T13:58:43Z</time>
      </trkpt>
      <trkpt lat="43.43092" lon="6.03788">
        <ele>338.34466552734</ele>
        <time>2014-09-10T13:58:44Z</time>
      </trkpt>
      <trkpt lat="43.43092" lon="6.03788">
        <ele>338.34466552734</ele>
        <time>2014-09-10T13:59:05Z</time>
      </trkpt>
      <trkpt lat="43.43091" lon="6.03787">
        <ele>338.53518676758</ele>
        <time>2014-09-10T13:59:11Z</time>
      </trkpt>
      <trkpt lat="43.43091" lon="6.03787">
        <ele>338.53518676758</ele>
        <time>2014-09-10T13:59:24Z</time>
      </trkpt>
      <trkpt lat="43.43091" lon="6.03787">
        <ele>338.54205322266</ele>
        <time>2014-09-10T13:59:52Z</time>
      </trkpt>
      <trkpt lat="43.43091" lon="6.03787">
        <ele>338.54205322266</ele>
        <time>2014-09-10T14:00:08Z</time>
      </trkpt>
      <trkpt lat="43.43091" lon="6.03787">
        <ele>338.54034423828</ele>
        <time>2014-09-10T14:00:53Z</time>
      </trkpt>
      <trkpt lat="43.43091" lon="6.03787">
        <ele>338.54550170898</ele>
        <time>2014-09-10T14:01:12Z</time>
      </trkpt>
      <trkpt lat="43.43091" lon="6.03785">
        <ele>338.66735839844</ele>
        <time>2014-09-10T14:01:18Z</time>
      </trkpt>
      <trkpt lat="43.43091" lon="6.03784">
        <ele>338.63647460938</ele>
        <time>2014-09-10T14:01:22Z</time>
      </trkpt>
      <trkpt lat="43.43091" lon="6.03783">
        <ele>338.69482421875</ele>
        <time>2014-09-10T14:01:25Z</time>
      </trkpt>
      <trkpt lat="43.43091" lon="6.03776">
        <ele>338.94375610352</ele>
        <time>2014-09-10T14:01:28Z</time>
      </trkpt>
      <trkpt lat="43.43092" lon="6.03769">
        <ele>339.1257019043</ele>
        <time>2014-09-10T14:01:30Z</time>
      </trkpt>
      <trkpt lat="43.43092" lon="6.03754">
        <ele>339.68017578125</ele>
        <time>2014-09-10T14:01:35Z</time>
      </trkpt>
      <trkpt lat="43.43096" lon="6.03732">
        <ele>339.86901855469</ele>
        <time>2014-09-10T14:01:42Z</time>
      </trkpt>
      <trkpt lat="43.43092" lon="6.03729">
        <ele>340.47152709961</ele>
        <time>2014-09-10T14:01:45Z</time>
      </trkpt>
      <trkpt lat="43.43093" lon="6.03731">
        <ele>340.27410888672</ele>
        <time>2014-09-10T14:01:49Z</time>
      </trkpt>
      <trkpt lat="43.43093" lon="6.03731">
        <ele>340.27069091797</ele>
        <time>2014-09-10T14:01:51Z</time>
      </trkpt>
      <trkpt lat="43.43092" lon="6.03732">
        <ele>340.34451293945</ele>
        <time>2014-09-10T14:01:55Z</time>
      </trkpt>
      <trkpt lat="43.43092" lon="6.03732">
        <ele>340.34451293945</ele>
        <time>2014-09-10T14:02:04Z</time>
      </trkpt>
      <trkpt lat="43.43092" lon="6.03732">
        <ele>340.35650634766</ele>
        <time>2014-09-10T14:03:58Z</time>
      </trkpt>
      <trkpt lat="43.43092" lon="6.03732">
        <ele>340.35650634766</ele>
        <time>2014-09-10T14:04:09Z</time>
      </trkpt>
      <trkpt lat="43.43092" lon="6.03731">
        <ele>340.37197875977</ele>
        <time>2014-09-10T14:04:36Z</time>
      </trkpt>
      <trkpt lat="43.43092" lon="6.03731">
        <ele>340.37197875977</ele>
        <time>2014-09-10T14:04:45Z</time>
      </trkpt>
      <trkpt lat="43.43092" lon="6.03732">
        <ele>340.36511230469</ele>
        <time>2014-09-10T14:04:51Z</time>
      </trkpt>
      <trkpt lat="43.43092" lon="6.03732">
        <ele>340.36511230469</ele>
        <time>2014-09-10T14:05:00Z</time>
      </trkpt>
      <trkpt lat="43.43092" lon="6.03731">
        <ele>340.38055419922</ele>
        <time>2014-09-10T14:05:06Z</time>
      </trkpt>
      <trkpt lat="43.43092" lon="6.03731">
        <ele>340.38055419922</ele>
        <time>2014-09-10T14:05:17Z</time>
      </trkpt>
      <trkpt lat="43.43093" lon="6.03731">
        <ele>340.32733154297</ele>
        <time>2014-09-10T14:05:50Z</time>
      </trkpt>
      <trkpt lat="43.43093" lon="6.03731">
        <ele>340.32733154297</ele>
        <time>2014-09-10T14:06:06Z</time>
      </trkpt>
      <trkpt lat="43.43093" lon="6.03731">
        <ele>340.32733154297</ele>
        <time>2014-09-10T14:06:59Z</time>
      </trkpt>
      <trkpt lat="43.43093" lon="6.03732">
        <ele>340.22607421875</ele>
        <time>2014-09-10T14:07:01Z</time>
      </trkpt>
      <trkpt lat="43.43093" lon="6.03733">
        <ele>340.21917724609</ele>
        <time>2014-09-10T14:07:02Z</time>
      </trkpt>
      <trkpt lat="43.43093" lon="6.03733">
        <ele>340.20718383789</ele>
        <time>2014-09-10T14:07:04Z</time>
      </trkpt>
      <trkpt lat="43.43093" lon="6.03733">
        <ele>340.20718383789</ele>
        <time>2014-09-10T14:07:09Z</time>
      </trkpt>
      <trkpt lat="43.43093" lon="6.03733">
        <ele>340.18658447266</ele>
        <time>2014-09-10T14:07:13Z</time>
      </trkpt>
      <trkpt lat="43.43093" lon="6.03736">
        <ele>340.09045410156</ele>
        <time>2014-09-10T14:07:21Z</time>
      </trkpt>
      <trkpt lat="43.43093" lon="6.03752">
        <ele>339.56344604492</ele>
        <time>2014-09-10T14:07:25Z</time>
      </trkpt>
      <trkpt lat="43.43091" lon="6.03781">
        <ele>338.75836181641</ele>
        <time>2014-09-10T14:07:31Z</time>
      </trkpt>
      <trkpt lat="43.4309" lon="6.0379">
        <ele>338.59869384766</ele>
        <time>2014-09-10T14:07:34Z</time>
      </trkpt>
      <trkpt lat="43.4309" lon="6.03793">
        <ele>338.43048095703</ele>
        <time>2014-09-10T14:07:35Z</time>
      </trkpt>
      <trkpt lat="43.43089" lon="6.03818">
        <ele>337.69921875</ele>
        <time>2014-09-10T14:07:42Z</time>
      </trkpt>
      <trkpt lat="43.43088" lon="6.03848">
        <ele>336.93264770508</ele>
        <time>2014-09-10T14:07:48Z</time>
      </trkpt>
      <trkpt lat="43.43085" lon="6.03876">
        <ele>336.28988647461</ele>
        <time>2014-09-10T14:07:54Z</time>
      </trkpt>
      <trkpt lat="43.43085" lon="6.039">
        <ele>335.43951416016</ele>
        <time>2014-09-10T14:07:59Z</time>
      </trkpt>
      <trkpt lat="43.43085" lon="6.03911">
        <ele>335.0537109375</ele>
        <time>2014-09-10T14:08:01Z</time>
      </trkpt>
      <trkpt lat="43.43085" lon="6.03917">
        <ele>334.86856079102</ele>
        <time>2014-09-10T14:08:02Z</time>
      </trkpt>
      <trkpt lat="43.43085" lon="6.03922">
        <ele>334.71234130859</ele>
        <time>2014-09-10T14:08:03Z</time>
      </trkpt>
      <trkpt lat="43.43083" lon="6.03929">
        <ele>334.56469726562</ele>
        <time>2014-09-10T14:08:05Z</time>
      </trkpt>
      <trkpt lat="43.43082" lon="6.03941">
        <ele>334.21966552734</ele>
        <time>2014-09-10T14:08:08Z</time>
      </trkpt>
      <trkpt lat="43.43081" lon="6.03946">
        <ele>334.06158447266</ele>
        <time>2014-09-10T14:08:09Z</time>
      </trkpt>
      <trkpt lat="43.4308" lon="6.03951">
        <ele>333.76724243164</ele>
        <time>2014-09-10T14:08:10Z</time>
      </trkpt>
      <trkpt lat="43.43079" lon="6.03957">
        <ele>333.49475097656</ele>
        <time>2014-09-10T14:08:11Z</time>
      </trkpt>
      <trkpt lat="43.43077" lon="6.03963">
        <ele>333.23385620117</ele>
        <time>2014-09-10T14:08:12Z</time>
      </trkpt>
      <trkpt lat="43.43074" lon="6.03975">
        <ele>332.82583618164</ele>
        <time>2014-09-10T14:08:14Z</time>
      </trkpt>
      <trkpt lat="43.43072" lon="6.03987">
        <ele>332.52285766602</ele>
        <time>2014-09-10T14:08:16Z</time>
      </trkpt>
      <trkpt lat="43.43068" lon="6.04004">
        <ele>332.00259399414</ele>
        <time>2014-09-10T14:08:19Z</time>
      </trkpt>
      <trkpt lat="43.43064" lon="6.04015">
        <ele>331.83093261719</ele>
        <time>2014-09-10T14:08:21Z</time>
      </trkpt>
      <trkpt lat="43.4306" lon="6.04034">
        <ele>331.41424560547</ele>
        <time>2014-09-10T14:08:24Z</time>
      </trkpt>
      <trkpt lat="43.43056" lon="6.04051">
        <ele>331.08233642578</ele>
        <time>2014-09-10T14:08:27Z</time>
      </trkpt>
      <trkpt lat="43.4305" lon="6.0408">
        <ele>330.68853759766</ele>
        <time>2014-09-10T14:08:33Z</time>
      </trkpt>
      <trkpt lat="43.43046" lon="6.04102">
        <ele>330.14077758789</ele>
        <time>2014-09-10T14:08:38Z</time>
      </trkpt>
      <trkpt lat="43.43043" lon="6.04119">
        <ele>329.45764160156</ele>
        <time>2014-09-10T14:08:41Z</time>
      </trkpt>
      <trkpt lat="43.43042" lon="6.04125">
        <ele>329.19869995117</ele>
        <time>2014-09-10T14:08:42Z</time>
      </trkpt>
      <trkpt lat="43.4304" lon="6.04132">
        <ele>328.99673461914</ele>
        <time>2014-09-10T14:08:43Z</time>
      </trkpt>
      <trkpt lat="43.43039" lon="6.04139">
        <ele>328.81317138672</ele>
        <time>2014-09-10T14:08:44Z</time>
      </trkpt>
      <trkpt lat="43.43038" lon="6.04145">
        <ele>328.7048034668</ele>
        <time>2014-09-10T14:08:45Z</time>
      </trkpt>
      <trkpt lat="43.43031" lon="6.04181">
        <ele>328.15032958984</ele>
        <time>2014-09-10T14:08:51Z</time>
      </trkpt>
      <trkpt lat="43.43027" lon="6.04203">
        <ele>327.91979980469</ele>
        <time>2014-09-10T14:08:55Z</time>
      </trkpt>
      <trkpt lat="43.43023" lon="6.04219">
        <ele>328.17388916016</ele>
        <time>2014-09-10T14:08:58Z</time>
      </trkpt>
      <trkpt lat="43.43019" lon="6.04236">
        <ele>328.22570800781</ele>
        <time>2014-09-10T14:09:01Z</time>
      </trkpt>
      <trkpt lat="43.43015" lon="6.04253">
        <ele>328.08813476562</ele>
        <time>2014-09-10T14:09:04Z</time>
      </trkpt>
      <trkpt lat="43.43014" lon="6.04259">
        <ele>327.96936035156</ele>
        <time>2014-09-10T14:09:05Z</time>
      </trkpt>
      <trkpt lat="43.43009" lon="6.0429">
        <ele>327.26940917969</ele>
        <time>2014-09-10T14:09:10Z</time>
      </trkpt>
      <trkpt lat="43.43008" lon="6.04297">
        <ele>327.07827758789</ele>
        <time>2014-09-10T14:09:11Z</time>
      </trkpt>
      <trkpt lat="43.43003" lon="6.04342">
        <ele>325.84637451172</ele>
        <time>2014-09-10T14:09:17Z</time>
      </trkpt>
      <trkpt lat="43.43" lon="6.04373">
        <ele>324.07092285156</ele>
        <time>2014-09-10T14:09:22Z</time>
      </trkpt>
      <trkpt lat="43.42995" lon="6.04402">
        <ele>322.63580322266</ele>
        <time>2014-09-10T14:09:28Z</time>
      </trkpt>
      <trkpt lat="43.42994" lon="6.04409">
        <ele>322.35830688477</ele>
        <time>2014-09-10T14:09:30Z</time>
      </trkpt>
      <trkpt lat="43.42993" lon="6.04427">
        <ele>321.23712158203</ele>
        <time>2014-09-10T14:09:34Z</time>
      </trkpt>
      <trkpt lat="43.42992" lon="6.04436">
        <ele>320.63284301758</ele>
        <time>2014-09-10T14:09:36Z</time>
      </trkpt>
      <trkpt lat="43.42987" lon="6.04458">
        <ele>320.3974609375</ele>
        <time>2014-09-10T14:09:42Z</time>
      </trkpt>
      <trkpt lat="43.42982" lon="6.04474">
        <ele>320.8583984375</ele>
        <time>2014-09-10T14:09:46Z</time>
      </trkpt>
      <trkpt lat="43.42981" lon="6.04479">
        <ele>320.70492553711</ele>
        <time>2014-09-10T14:09:47Z</time>
      </trkpt>
      <trkpt lat="43.42978" lon="6.04497">
        <ele>319.79373168945</ele>
        <time>2014-09-10T14:09:50Z</time>
      </trkpt>
      <trkpt lat="43.42978" lon="6.04506">
        <ele>319.61828613281</ele>
        <time>2014-09-10T14:09:51Z</time>
      </trkpt>
      <trkpt lat="43.42978" lon="6.04515">
        <ele>319.61828613281</ele>
        <time>2014-09-10T14:09:52Z</time>
      </trkpt>
      <trkpt lat="43.42978" lon="6.04526">
        <ele>319.61828613281</ele>
        <time>2014-09-10T14:09:53Z</time>
      </trkpt>
      <trkpt lat="43.42978" lon="6.04538">
        <ele>319.25500488281</ele>
        <time>2014-09-10T14:09:54Z</time>
      </trkpt>
      <trkpt lat="43.42978" lon="6.0455">
        <ele>318.82928466797</ele>
        <time>2014-09-10T14:09:55Z</time>
      </trkpt>
      <trkpt lat="43.42977" lon="6.04561">
        <ele>318.61074829102</ele>
        <time>2014-09-10T14:09:56Z</time>
      </trkpt>
      <trkpt lat="43.42977" lon="6.04571">
        <ele>318.58483886719</ele>
        <time>2014-09-10T14:09:57Z</time>
      </trkpt>
      <trkpt lat="43.42976" lon="6.04578">
        <ele>318.6555480957</ele>
        <time>2014-09-10T14:09:58Z</time>
      </trkpt>
      <trkpt lat="43.42974" lon="6.0459">
        <ele>318.75701904297</ele>
        <time>2014-09-10T14:10:00Z</time>
      </trkpt>
      <trkpt lat="43.42972" lon="6.04604">
        <ele>319.00701904297</ele>
        <time>2014-09-10T14:10:03Z</time>
      </trkpt>
      <trkpt lat="43.4297" lon="6.04616">
        <ele>319.18041992188</ele>
        <time>2014-09-10T14:10:06Z</time>
      </trkpt>
      <trkpt lat="43.42969" lon="6.04626">
        <ele>319.02764892578</ele>
        <time>2014-09-10T14:10:09Z</time>
      </trkpt>
      <trkpt lat="43.42968" lon="6.04638">
        <ele>318.8473815918</ele>
        <time>2014-09-10T14:10:15Z</time>
      </trkpt>
      <trkpt lat="43.42968" lon="6.04638">
        <ele>318.8473815918</ele>
        <time>2014-09-10T14:10:23Z</time>
      </trkpt>
      <trkpt lat="43.42968" lon="6.04638">
        <ele>318.8473815918</ele>
        <time>2014-09-10T14:10:51Z</time>
      </trkpt>
      <trkpt lat="43.42968" lon="6.04639">
        <ele>318.77529907227</ele>
        <time>2014-09-10T14:10:56Z</time>
      </trkpt>
      <trkpt lat="43.42968" lon="6.04641">
        <ele>318.76232910156</ele>
        <time>2014-09-10T14:11:03Z</time>
      </trkpt>
      <trkpt lat="43.42967" lon="6.04648">
        <ele>318.96832275391</ele>
        <time>2014-09-10T14:11:06Z</time>
      </trkpt>
      <trkpt lat="43.42966" lon="6.04656">
        <ele>319.10565185547</ele>
        <time>2014-09-10T14:11:08Z</time>
      </trkpt>
      <trkpt lat="43.42963" lon="6.04682">
        <ele>319.65496826172</ele>
        <time>2014-09-10T14:11:14Z</time>
      </trkpt>
      <trkpt lat="43.42961" lon="6.04702">
        <ele>319.88552856445</ele>
        <time>2014-09-10T14:11:18Z</time>
      </trkpt>
      <trkpt lat="43.4296" lon="6.04712">
        <ele>319.98315429688</ele>
        <time>2014-09-10T14:11:20Z</time>
      </trkpt>
      <trkpt lat="43.42957" lon="6.04737">
        <ele>320.2578125</ele>
        <time>2014-09-10T14:11:25Z</time>
      </trkpt>
      <trkpt lat="43.42955" lon="6.04749">
        <ele>320.4775390625</ele>
        <time>2014-09-10T14:11:27Z</time>
      </trkpt>
      <trkpt lat="43.42953" lon="6.04782">
        <ele>319.75759887695</ele>
        <time>2014-09-10T14:11:32Z</time>
      </trkpt>
      <trkpt lat="43.42952" lon="6.04797">
        <ele>319.79467773438</ele>
        <time>2014-09-10T14:11:34Z</time>
      </trkpt>
      <trkpt lat="43.4295" lon="6.04805">
        <ele>319.99676513672</ele>
        <time>2014-09-10T14:11:35Z</time>
      </trkpt>
      <trkpt lat="43.42944" lon="6.04836">
        <ele>322.01208496094</ele>
        <time>2014-09-10T14:11:39Z</time>
      </trkpt>
      <trkpt lat="43.42943" lon="6.04844">
        <ele>322.19818115234</ele>
        <time>2014-09-10T14:11:40Z</time>
      </trkpt>
      <trkpt lat="43.42939" lon="6.04857">
        <ele>322.70251464844</ele>
        <time>2014-09-10T14:11:42Z</time>
      </trkpt>
      <trkpt lat="43.42937" lon="6.04868">
        <ele>323.1142578125</ele>
        <time>2014-09-10T14:11:44Z</time>
      </trkpt>
      <trkpt lat="43.42935" lon="6.04881">
        <ele>323.38891601562</ele>
        <time>2014-09-10T14:11:47Z</time>
      </trkpt>
      <trkpt lat="43.42934" lon="6.04888">
        <ele>323.44384765625</ele>
        <time>2014-09-10T14:11:49Z</time>
      </trkpt>
      <trkpt lat="43.42934" lon="6.04891">
        <ele>323.49877929688</ele>
        <time>2014-09-10T14:11:50Z</time>
      </trkpt>
      <trkpt lat="43.42934" lon="6.04894">
        <ele>323.49877929688</ele>
        <time>2014-09-10T14:11:51Z</time>
      </trkpt>
      <trkpt lat="43.42933" lon="6.04899">
        <ele>323.60864257812</ele>
        <time>2014-09-10T14:11:53Z</time>
      </trkpt>
      <trkpt lat="43.42932" lon="6.04904">
        <ele>323.7734375</ele>
        <time>2014-09-10T14:11:55Z</time>
      </trkpt>
      <trkpt lat="43.42932" lon="6.04909">
        <ele>323.82836914062</ele>
        <time>2014-09-10T14:11:58Z</time>
      </trkpt>
      <trkpt lat="43.42931" lon="6.0491">
        <ele>323.93823242188</ele>
        <time>2014-09-10T14:11:59Z</time>
      </trkpt>
      <trkpt lat="43.4293" lon="6.04912">
        <ele>324.04809570312</ele>
        <time>2014-09-10T14:12:01Z</time>
      </trkpt>
      <trkpt lat="43.4293" lon="6.04912">
        <ele>324.04809570312</ele>
        <time>2014-09-10T14:12:02Z</time>
      </trkpt>
      <trkpt lat="43.4293" lon="6.04912">
        <ele>324.04809570312</ele>
        <time>2014-09-10T14:12:08Z</time>
      </trkpt>
      <trkpt lat="43.42931" lon="6.04912">
        <ele>323.9931640625</ele>
        <time>2014-09-10T14:12:35Z</time>
      </trkpt>
      <trkpt lat="43.42931" lon="6.04912">
        <ele>323.9931640625</ele>
        <time>2014-09-10T14:12:44Z</time>
      </trkpt>
      <trkpt lat="43.42931" lon="6.04912">
        <ele>323.9931640625</ele>
        <time>2014-09-10T14:12:47Z</time>
      </trkpt>
      <trkpt lat="43.42923" lon="6.04914">
        <ele>325.14672851562</ele>
        <time>2014-09-10T14:12:51Z</time>
      </trkpt>
      <trkpt lat="43.4291" lon="6.04917">
        <ele>326.47973632812</ele>
        <time>2014-09-10T14:12:55Z</time>
      </trkpt>
      <trkpt lat="43.42896" lon="6.04919">
        <ele>327.46850585938</ele>
        <time>2014-09-10T14:12:58Z</time>
      </trkpt>
      <trkpt lat="43.42891" lon="6.0492">
        <ele>327.85302734375</ele>
        <time>2014-09-10T14:12:59Z</time>
      </trkpt>
      <trkpt lat="43.42886" lon="6.04918">
        <ele>328.10504150391</ele>
        <time>2014-09-10T14:13:00Z</time>
      </trkpt>
      <trkpt lat="43.42878" lon="6.0491">
        <ele>328.37969970703</ele>
        <time>2014-09-10T14:13:02Z</time>
      </trkpt>
      <trkpt lat="43.42876" lon="6.04904">
        <ele>328.47583007812</ele>
        <time>2014-09-10T14:13:03Z</time>
      </trkpt>
      <trkpt lat="43.42873" lon="6.04897">
        <ele>328.57196044922</ele>
        <time>2014-09-10T14:13:04Z</time>
      </trkpt>
      <trkpt lat="43.42869" lon="6.04891">
        <ele>328.70928955078</ele>
        <time>2014-09-10T14:13:05Z</time>
      </trkpt>
      <trkpt lat="43.4286" lon="6.04875">
        <ele>328.94848632812</ele>
        <time>2014-09-10T14:13:08Z</time>
      </trkpt>
      <trkpt lat="43.42856" lon="6.0487">
        <ele>328.8928527832</ele>
        <time>2014-09-10T14:13:09Z</time>
      </trkpt>
      <trkpt lat="43.42842" lon="6.04857">
        <ele>329.0954284668</ele>
        <time>2014-09-10T14:13:12Z</time>
      </trkpt>
      <trkpt lat="43.42824" lon="6.04853">
        <ele>328.22860717773</ele>
        <time>2014-09-10T14:13:15Z</time>
      </trkpt>
      <trkpt lat="43.42817" lon="6.04852">
        <ele>327.50274658203</ele>
        <time>2014-09-10T14:13:16Z</time>
      </trkpt>
      <trkpt lat="43.4281" lon="6.0485">
        <ele>327.04107666016</ele>
        <time>2014-09-10T14:13:17Z</time>
      </trkpt>
      <trkpt lat="43.42804" lon="6.04846">
        <ele>326.72323608398</ele>
        <time>2014-09-10T14:13:18Z</time>
      </trkpt>
      <trkpt lat="43.42799" lon="6.0484">
        <ele>326.0168762207</ele>
        <time>2014-09-10T14:13:19Z</time>
      </trkpt>
      <trkpt lat="43.42794" lon="6.04835">
        <ele>325.22875976562</ele>
        <time>2014-09-10T14:13:20Z</time>
      </trkpt>
      <trkpt lat="43.42789" lon="6.0483">
        <ele>324.17404174805</ele>
        <time>2014-09-10T14:13:21Z</time>
      </trkpt>
      <trkpt lat="43.42785" lon="6.04829">
        <ele>322.81893920898</ele>
        <time>2014-09-10T14:13:22Z</time>
      </trkpt>
      <trkpt lat="43.42778" lon="6.04833">
        <ele>319.99365234375</ele>
        <time>2014-09-10T14:13:24Z</time>
      </trkpt>
      <trkpt lat="43.42777" lon="6.04847">
        <ele>318.93395996094</ele>
        <time>2014-09-10T14:13:27Z</time>
      </trkpt>
      <trkpt lat="43.42774" lon="6.04857">
        <ele>318.01190185547</ele>
        <time>2014-09-10T14:13:29Z</time>
      </trkpt>
      <trkpt lat="43.42773" lon="6.04861">
        <ele>317.6838684082</ele>
        <time>2014-09-10T14:13:30Z</time>
      </trkpt>
      <trkpt lat="43.42772" lon="6.04868">
        <ele>317.33712768555</ele>
        <time>2014-09-10T14:13:32Z</time>
      </trkpt>
      <trkpt lat="43.42771" lon="6.04872">
        <ele>317.11566162109</ele>
        <time>2014-09-10T14:13:33Z</time>
      </trkpt>
      <trkpt lat="43.42768" lon="6.0488">
        <ele>316.59210205078</ele>
        <time>2014-09-10T14:13:35Z</time>
      </trkpt>
      <trkpt lat="43.42765" lon="6.04885">
        <ele>316.18698120117</ele>
        <time>2014-09-10T14:13:37Z</time>
      </trkpt>
      <trkpt lat="43.42763" lon="6.04888">
        <ele>315.93807983398</ele>
        <time>2014-09-10T14:13:38Z</time>
      </trkpt>
      <trkpt lat="43.42761" lon="6.04892">
        <ele>315.53198242188</ele>
        <time>2014-09-10T14:13:39Z</time>
      </trkpt>
      <trkpt lat="43.42757" lon="6.04903">
        <ele>314.51916503906</ele>
        <time>2014-09-10T14:13:41Z</time>
      </trkpt>
      <trkpt lat="43.42758" lon="6.04927">
        <ele>313.20944213867</ele>
        <time>2014-09-10T14:13:45Z</time>
      </trkpt>
      <trkpt lat="43.42759" lon="6.04949">
        <ele>312.11431884766</ele>
        <time>2014-09-10T14:13:48Z</time>
      </trkpt>
      <trkpt lat="43.42759" lon="6.04957">
        <ele>311.28689575195</ele>
        <time>2014-09-10T14:13:49Z</time>
      </trkpt>
      <trkpt lat="43.4276" lon="6.04973">
        <ele>309.66461181641</ele>
        <time>2014-09-10T14:13:51Z</time>
      </trkpt>
      <trkpt lat="43.42763" lon="6.04999">
        <ele>308.04754638672</ele>
        <time>2014-09-10T14:13:54Z</time>
      </trkpt>
      <trkpt lat="43.42765" lon="6.05007">
        <ele>307.8473815918</ele>
        <time>2014-09-10T14:13:55Z</time>
      </trkpt>
      <trkpt lat="43.42764" lon="6.05024">
        <ele>307.17620849609</ele>
        <time>2014-09-10T14:13:57Z</time>
      </trkpt>
      <trkpt lat="43.42759" lon="6.05039">
        <ele>305.61538696289</ele>
        <time>2014-09-10T14:13:59Z</time>
      </trkpt>
      <trkpt lat="43.42756" lon="6.05046">
        <ele>304.61569213867</ele>
        <time>2014-09-10T14:14:00Z</time>
      </trkpt>
      <trkpt lat="43.42753" lon="6.05053">
        <ele>303.6233215332</ele>
        <time>2014-09-10T14:14:01Z</time>
      </trkpt>
      <trkpt lat="43.42751" lon="6.0506">
        <ele>302.89071655273</ele>
        <time>2014-09-10T14:14:02Z</time>
      </trkpt>
      <trkpt lat="43.42749" lon="6.05077">
        <ele>302.59289550781</ele>
        <time>2014-09-10T14:14:04Z</time>
      </trkpt>
      <trkpt lat="43.42749" lon="6.05095">
        <ele>301.77984619141</ele>
        <time>2014-09-10T14:14:06Z</time>
      </trkpt>
      <trkpt lat="43.42754" lon="6.05111">
        <ele>300.84893798828</ele>
        <time>2014-09-10T14:14:08Z</time>
      </trkpt>
      <trkpt lat="43.42755" lon="6.05119">
        <ele>300.60821533203</ele>
        <time>2014-09-10T14:14:09Z</time>
      </trkpt>
      <trkpt lat="43.42752" lon="6.05125">
        <ele>300.46054077148</ele>
        <time>2014-09-10T14:14:10Z</time>
      </trkpt>
      <trkpt lat="43.42749" lon="6.05131">
        <ele>300.39266967773</ele>
        <time>2014-09-10T14:14:11Z</time>
      </trkpt>
      <trkpt lat="43.42746" lon="6.05136">
        <ele>300.5202331543</ele>
        <time>2014-09-10T14:14:12Z</time>
      </trkpt>
      <trkpt lat="43.42745" lon="6.05138">
        <ele>300.53665161133</ele>
        <time>2014-09-10T14:14:13Z</time>
      </trkpt>
      <trkpt lat="43.42744" lon="6.0514">
        <ele>300.5651550293</ele>
        <time>2014-09-10T14:14:14Z</time>
      </trkpt>
      <trkpt lat="43.42744" lon="6.05142">
        <ele>300.61001586914</ele>
        <time>2014-09-10T14:14:15Z</time>
      </trkpt>
      <trkpt lat="43.42743" lon="6.05143">
        <ele>300.61828613281</ele>
        <time>2014-09-10T14:14:17Z</time>
      </trkpt>
      <trkpt lat="43.42743" lon="6.05143">
        <ele>300.64559936523</ele>
        <time>2014-09-10T14:14:24Z</time>
      </trkpt>
      <trkpt lat="43.42743" lon="6.05143">
        <ele>300.64559936523</ele>
        <time>2014-09-10T14:14:26Z</time>
      </trkpt>
      <trkpt lat="43.42742" lon="6.05145">
        <ele>300.68133544922</ele>
        <time>2014-09-10T14:14:43Z</time>
      </trkpt>
      <trkpt lat="43.42735" lon="6.05162">
        <ele>300.27230834961</ele>
        <time>2014-09-10T14:14:47Z</time>
      </trkpt>
      <trkpt lat="43.42733" lon="6.05167">
        <ele>300</ele>
        <time>2014-09-10T14:14:48Z</time>
      </trkpt>
      <trkpt lat="43.42731" lon="6.05172">
        <ele>300</ele>
        <time>2014-09-10T14:14:49Z</time>
      </trkpt>
      <trkpt lat="43.4273" lon="6.05177">
        <ele>300</ele>
        <time>2014-09-10T14:14:50Z</time>
      </trkpt>
      <trkpt lat="43.42727" lon="6.05184">
        <ele>300</ele>
        <time>2014-09-10T14:14:51Z</time>
      </trkpt>
      <trkpt lat="43.42725" lon="6.0519">
        <ele>300</ele>
        <time>2014-09-10T14:14:52Z</time>
      </trkpt>
      <trkpt lat="43.42723" lon="6.05196">
        <ele>300</ele>
        <time>2014-09-10T14:14:53Z</time>
      </trkpt>
      <trkpt lat="43.42719" lon="6.05202">
        <ele>300</ele>
        <time>2014-09-10T14:14:54Z</time>
      </trkpt>
      <trkpt lat="43.42716" lon="6.05207">
        <ele>300</ele>
        <time>2014-09-10T14:14:55Z</time>
      </trkpt>
      <trkpt lat="43.42712" lon="6.05212">
        <ele>300</ele>
        <time>2014-09-10T14:14:56Z</time>
      </trkpt>
      <trkpt lat="43.42707" lon="6.05216">
        <ele>300</ele>
        <time>2014-09-10T14:14:57Z</time>
      </trkpt>
      <trkpt lat="43.42702" lon="6.05218">
        <ele>300</ele>
        <time>2014-09-10T14:14:58Z</time>
      </trkpt>
      <trkpt lat="43.42697" lon="6.0522">
        <ele>300</ele>
        <time>2014-09-10T14:14:59Z</time>
      </trkpt>
      <trkpt lat="43.42691" lon="6.05222">
        <ele>300</ele>
        <time>2014-09-10T14:15:00Z</time>
      </trkpt>
      <trkpt lat="43.42682" lon="6.05226">
        <ele>300</ele>
        <time>2014-09-10T14:15:02Z</time>
      </trkpt>
      <trkpt lat="43.42677" lon="6.0523">
        <ele>300</ele>
        <time>2014-09-10T14:15:03Z</time>
      </trkpt>
      <trkpt lat="43.42672" lon="6.05234">
        <ele>300</ele>
        <time>2014-09-10T14:15:04Z</time>
      </trkpt>
      <trkpt lat="43.42667" lon="6.05238">
        <ele>300</ele>
        <time>2014-09-10T14:15:05Z</time>
      </trkpt>
      <trkpt lat="43.42662" lon="6.05241">
        <ele>300</ele>
        <time>2014-09-10T14:15:06Z</time>
      </trkpt>
      <trkpt lat="43.42658" lon="6.05246">
        <ele>300</ele>
        <time>2014-09-10T14:15:07Z</time>
      </trkpt>
      <trkpt lat="43.42653" lon="6.05251">
        <ele>300</ele>
        <time>2014-09-10T14:15:08Z</time>
      </trkpt>
      <trkpt lat="43.42648" lon="6.05255">
        <ele>300</ele>
        <time>2014-09-10T14:15:09Z</time>
      </trkpt>
      <trkpt lat="43.42643" lon="6.05259">
        <ele>300</ele>
        <time>2014-09-10T14:15:10Z</time>
      </trkpt>
      <trkpt lat="43.42638" lon="6.05262">
        <ele>300</ele>
        <time>2014-09-10T14:15:11Z</time>
      </trkpt>
      <trkpt lat="43.42634" lon="6.05262">
        <ele>300</ele>
        <time>2014-09-10T14:15:12Z</time>
      </trkpt>
      <trkpt lat="43.42632" lon="6.05262">
        <ele>300</ele>
        <time>2014-09-10T14:15:14Z</time>
      </trkpt>
      <trkpt lat="43.42633" lon="6.05265">
        <ele>300</ele>
        <time>2014-09-10T14:15:18Z</time>
      </trkpt>
      <trkpt lat="43.42633" lon="6.05265">
        <ele>300</ele>
        <time>2014-09-10T14:15:19Z</time>
      </trkpt>
      <trkpt lat="43.42632" lon="6.05265">
        <ele>300</ele>
        <time>2014-09-10T14:15:23Z</time>
      </trkpt>
      <trkpt lat="43.42632" lon="6.05265">
        <ele>300</ele>
        <time>2014-09-10T14:15:31Z</time>
      </trkpt>
      <trkpt lat="43.42632" lon="6.05265">
        <ele>300</ele>
        <time>2014-09-10T14:15:57Z</time>
      </trkpt>
      <trkpt lat="43.42632" lon="6.05266">
        <ele>300</ele>
        <time>2014-09-10T14:16:01Z</time>
      </trkpt>
      <trkpt lat="43.42632" lon="6.05266">
        <ele>300</ele>
        <time>2014-09-10T14:16:12Z</time>
      </trkpt>
      <trkpt lat="43.42632" lon="6.05266">
        <ele>300</ele>
        <time>2014-09-10T14:16:36Z</time>
      </trkpt>
      <trkpt lat="43.42632" lon="6.05265">
        <ele>300</ele>
        <time>2014-09-10T14:16:49Z</time>
      </trkpt>
      <trkpt lat="43.42632" lon="6.05265">
        <ele>300</ele>
        <time>2014-09-10T14:16:59Z</time>
      </trkpt>
      <trkpt lat="43.42633" lon="6.05265">
        <ele>300</ele>
        <time>2014-09-10T14:17:02Z</time>
      </trkpt>
      <trkpt lat="43.42636" lon="6.05262">
        <ele>300</ele>
        <time>2014-09-10T14:17:04Z</time>
      </trkpt>
      <trkpt lat="43.42641" lon="6.05261">
        <ele>300</ele>
        <time>2014-09-10T14:17:07Z</time>
      </trkpt>
      <trkpt lat="43.42647" lon="6.05256">
        <ele>300</ele>
        <time>2014-09-10T14:17:10Z</time>
      </trkpt>
      <trkpt lat="43.42654" lon="6.05249">
        <ele>300</ele>
        <time>2014-09-10T14:17:13Z</time>
      </trkpt>
      <trkpt lat="43.42656" lon="6.05246">
        <ele>300</ele>
        <time>2014-09-10T14:17:14Z</time>
      </trkpt>
      <trkpt lat="43.42666" lon="6.05238">
        <ele>300</ele>
        <time>2014-09-10T14:17:17Z</time>
      </trkpt>
      <trkpt lat="43.42672" lon="6.05233">
        <ele>300</ele>
        <time>2014-09-10T14:17:19Z</time>
      </trkpt>
      <trkpt lat="43.42676" lon="6.0523">
        <ele>300</ele>
        <time>2014-09-10T14:17:21Z</time>
      </trkpt>
      <trkpt lat="43.42677" lon="6.05229">
        <ele>300</ele>
        <time>2014-09-10T14:17:22Z</time>
      </trkpt>
      <trkpt lat="43.42678" lon="6.05229">
        <ele>300</ele>
        <time>2014-09-10T14:17:23Z</time>
      </trkpt>
      <trkpt lat="43.4268" lon="6.05228">
        <ele>300</ele>
        <time>2014-09-10T14:17:24Z</time>
      </trkpt>
      <trkpt lat="43.42682" lon="6.05227">
        <ele>300</ele>
        <time>2014-09-10T14:17:25Z</time>
      </trkpt>
      <trkpt lat="43.42683" lon="6.05226">
        <ele>300</ele>
        <time>2014-09-10T14:17:26Z</time>
      </trkpt>
      <trkpt lat="43.42686" lon="6.05225">
        <ele>300</ele>
        <time>2014-09-10T14:17:27Z</time>
      </trkpt>
      <trkpt lat="43.42688" lon="6.05224">
        <ele>300</ele>
        <time>2014-09-10T14:17:28Z</time>
      </trkpt>
      <trkpt lat="43.42691" lon="6.05222">
        <ele>300</ele>
        <time>2014-09-10T14:17:30Z</time>
      </trkpt>
      <trkpt lat="43.42695" lon="6.0522">
        <ele>300</ele>
        <time>2014-09-10T14:17:32Z</time>
      </trkpt>
      <trkpt lat="43.42697" lon="6.05219">
        <ele>300</ele>
        <time>2014-09-10T14:17:34Z</time>
      </trkpt>
      <trkpt lat="43.42699" lon="6.05218">
        <ele>300</ele>
        <time>2014-09-10T14:17:35Z</time>
      </trkpt>
      <trkpt lat="43.427" lon="6.05217">
        <ele>300</ele>
        <time>2014-09-10T14:17:36Z</time>
      </trkpt>
      <trkpt lat="43.42702" lon="6.05216">
        <ele>300</ele>
        <time>2014-09-10T14:17:37Z</time>
      </trkpt>
      <trkpt lat="43.42704" lon="6.05214">
        <ele>300</ele>
        <time>2014-09-10T14:17:38Z</time>
      </trkpt>
      <trkpt lat="43.42706" lon="6.05212">
        <ele>300</ele>
        <time>2014-09-10T14:17:39Z</time>
      </trkpt>
      <trkpt lat="43.42709" lon="6.05209">
        <ele>300</ele>
        <time>2014-09-10T14:17:41Z</time>
      </trkpt>
      <trkpt lat="43.42712" lon="6.05206">
        <ele>300</ele>
        <time>2014-09-10T14:17:43Z</time>
      </trkpt>
      <trkpt lat="43.42717" lon="6.05199">
        <ele>300</ele>
        <time>2014-09-10T14:17:47Z</time>
      </trkpt>
      <trkpt lat="43.4272" lon="6.05193">
        <ele>300.00723266602</ele>
        <time>2014-09-10T14:17:51Z</time>
      </trkpt>
      <trkpt lat="43.42722" lon="6.0519">
        <ele>300</ele>
        <time>2014-09-10T14:17:53Z</time>
      </trkpt>
      <trkpt lat="43.42723" lon="6.05188">
        <ele>300</ele>
        <time>2014-09-10T14:17:54Z</time>
      </trkpt>
      <trkpt lat="43.42726" lon="6.05182">
        <ele>300</ele>
        <time>2014-09-10T14:17:57Z</time>
      </trkpt>
      <trkpt lat="43.42731" lon="6.05172">
        <ele>300</ele>
        <time>2014-09-10T14:18:02Z</time>
      </trkpt>
      <trkpt lat="43.42731" lon="6.0517">
        <ele>300</ele>
        <time>2014-09-10T14:18:03Z</time>
      </trkpt>
      <trkpt lat="43.42732" lon="6.05168">
        <ele>300</ele>
        <time>2014-09-10T14:18:04Z</time>
      </trkpt>
      <trkpt lat="43.42732" lon="6.05167">
        <ele>300</ele>
        <time>2014-09-10T14:18:05Z</time>
      </trkpt>
      <trkpt lat="43.42732" lon="6.05166">
        <ele>300.03649902344</ele>
        <time>2014-09-10T14:18:06Z</time>
      </trkpt>
      <trkpt lat="43.42732" lon="6.05166">
        <ele>300.06207275391</ele>
        <time>2014-09-10T14:18:08Z</time>
      </trkpt>
      <trkpt lat="43.42732" lon="6.05166">
        <ele>300.06207275391</ele>
        <time>2014-09-10T14:18:12Z</time>
      </trkpt>
      <trkpt lat="43.42733" lon="6.05165">
        <ele>300.11297607422</ele>
        <time>2014-09-10T14:18:16Z</time>
      </trkpt>
      <trkpt lat="43.42733" lon="6.05164">
        <ele>300.14126586914</ele>
        <time>2014-09-10T14:18:22Z</time>
      </trkpt>
      <trkpt lat="43.42735" lon="6.05163">
        <ele>300.22906494141</ele>
        <time>2014-09-10T14:18:23Z</time>
      </trkpt>
      <trkpt lat="43.42735" lon="6.05163">
        <ele>300.24627685547</ele>
        <time>2014-09-10T14:18:27Z</time>
      </trkpt>
      <trkpt lat="43.42735" lon="6.05162">
        <ele>300.29895019531</ele>
        <time>2014-09-10T14:18:31Z</time>
      </trkpt>
      <trkpt lat="43.42735" lon="6.05161">
        <ele>300.30776977539</ele>
        <time>2014-09-10T14:18:35Z</time>
      </trkpt>
      <trkpt lat="43.42736" lon="6.05159">
        <ele>300.45385742188</ele>
        <time>2014-09-10T14:18:42Z</time>
      </trkpt>
      <trkpt lat="43.42736" lon="6.05157">
        <ele>300.50259399414</ele>
        <time>2014-09-10T14:18:43Z</time>
      </trkpt>
      <trkpt lat="43.42743" lon="6.05146">
        <ele>300.56292724609</ele>
        <time>2014-09-10T14:18:48Z</time>
      </trkpt>
      <trkpt lat="43.42744" lon="6.05144">
        <ele>300.55612182617</ele>
        <time>2014-09-10T14:18:49Z</time>
      </trkpt>
      <trkpt lat="43.42745" lon="6.05141">
        <ele>300.50717163086</ele>
        <time>2014-09-10T14:18:50Z</time>
      </trkpt>
      <trkpt lat="43.42748" lon="6.05136">
        <ele>300.34841918945</ele>
        <time>2014-09-10T14:18:52Z</time>
      </trkpt>
      <trkpt lat="43.4275" lon="6.05133">
        <ele>300.23974609375</ele>
        <time>2014-09-10T14:18:53Z</time>
      </trkpt>
      <trkpt lat="43.42751" lon="6.0513">
        <ele>300.3063659668</ele>
        <time>2014-09-10T14:18:54Z</time>
      </trkpt>
      <trkpt lat="43.42752" lon="6.05107">
        <ele>301.11090087891</ele>
        <time>2014-09-10T14:19:02Z</time>
      </trkpt>
      <trkpt lat="43.4275" lon="6.05091">
        <ele>301.71710205078</ele>
        <time>2014-09-10T14:19:08Z</time>
      </trkpt>
      <trkpt lat="43.4275" lon="6.05089">
        <ele>301.8219909668</ele>
        <time>2014-09-10T14:19:09Z</time>
      </trkpt>
      <trkpt lat="43.42751" lon="6.05085">
        <ele>301.96722412109</ele>
        <time>2014-09-10T14:19:10Z</time>
      </trkpt>
      <trkpt lat="43.42751" lon="6.05082">
        <ele>302.11709594727</ele>
        <time>2014-09-10T14:19:11Z</time>
      </trkpt>
      <trkpt lat="43.42751" lon="6.05081">
        <ele>302.19915771484</ele>
        <time>2014-09-10T14:19:12Z</time>
      </trkpt>
      <trkpt lat="43.42752" lon="6.05067">
        <ele>302.72885131836</ele>
        <time>2014-09-10T14:19:17Z</time>
      </trkpt>
      <trkpt lat="43.42755" lon="6.0506">
        <ele>303.31491088867</ele>
        <time>2014-09-10T14:19:21Z</time>
      </trkpt>
      <trkpt lat="43.42756" lon="6.05056">
        <ele>303.66610717773</ele>
        <time>2014-09-10T14:19:24Z</time>
      </trkpt>
      <trkpt lat="43.4276" lon="6.05045">
        <ele>305.07012939453</ele>
        <time>2014-09-10T14:19:30Z</time>
      </trkpt>
      <trkpt lat="43.42762" lon="6.05042">
        <ele>305.58563232422</ele>
        <time>2014-09-10T14:19:32Z</time>
      </trkpt>
      <trkpt lat="43.42762" lon="6.0504">
        <ele>305.72671508789</ele>
        <time>2014-09-10T14:19:33Z</time>
      </trkpt>
      <trkpt lat="43.42763" lon="6.05039">
        <ele>305.93579101562</ele>
        <time>2014-09-10T14:19:34Z</time>
      </trkpt>
      <trkpt lat="43.42762" lon="6.05037">
        <ele>306.05404663086</ele>
        <time>2014-09-10T14:19:36Z</time>
      </trkpt>
      <trkpt lat="43.42762" lon="6.05035">
        <ele>306.15875244141</ele>
        <time>2014-09-10T14:19:41Z</time>
      </trkpt>
      <trkpt lat="43.42762" lon="6.05037">
        <ele>306.03091430664</ele>
        <time>2014-09-10T14:19:46Z</time>
      </trkpt>
      <trkpt lat="43.42761" lon="6.05041">
        <ele>305.51858520508</ele>
        <time>2014-09-10T14:19:49Z</time>
      </trkpt>
      <trkpt lat="43.42758" lon="6.05046">
        <ele>304.80142211914</ele>
        <time>2014-09-10T14:19:51Z</time>
      </trkpt>
      <trkpt lat="43.42755" lon="6.05053">
        <ele>303.80834960938</ele>
        <time>2014-09-10T14:19:54Z</time>
      </trkpt>
      <trkpt lat="43.42754" lon="6.05057">
        <ele>303.32818603516</ele>
        <time>2014-09-10T14:19:56Z</time>
      </trkpt>
      <trkpt lat="43.42751" lon="6.05067">
        <ele>302.6953125</ele>
        <time>2014-09-10T14:19:59Z</time>
      </trkpt>
      <trkpt lat="43.42747" lon="6.05082">
        <ele>302.67407226562</ele>
        <time>2014-09-10T14:20:02Z</time>
      </trkpt>
      <trkpt lat="43.42747" lon="6.05088">
        <ele>302.50955200195</ele>
        <time>2014-09-10T14:20:03Z</time>
      </trkpt>
      <trkpt lat="43.42747" lon="6.05095">
        <ele>302.23797607422</ele>
        <time>2014-09-10T14:20:04Z</time>
      </trkpt>
      <trkpt lat="43.42748" lon="6.051">
        <ele>301.83444213867</ele>
        <time>2014-09-10T14:20:05Z</time>
      </trkpt>
      <trkpt lat="43.42749" lon="6.05107">
        <ele>301.27856445312</ele>
        <time>2014-09-10T14:20:06Z</time>
      </trkpt>
      <trkpt lat="43.42751" lon="6.05113">
        <ele>300.92599487305</ele>
        <time>2014-09-10T14:20:07Z</time>
      </trkpt>
      <trkpt lat="43.42746" lon="6.0513">
        <ele>300.80416870117</ele>
        <time>2014-09-10T14:20:10Z</time>
      </trkpt>
      <trkpt lat="43.42744" lon="6.05136">
        <ele>300.85284423828</ele>
        <time>2014-09-10T14:20:11Z</time>
      </trkpt>
      <trkpt lat="43.42741" lon="6.05141">
        <ele>300.94290161133</ele>
        <time>2014-09-10T14:20:12Z</time>
      </trkpt>
      <trkpt lat="43.42737" lon="6.05146">
        <ele>301.0178527832</ele>
        <time>2014-09-10T14:20:13Z</time>
      </trkpt>
      <trkpt lat="43.42734" lon="6.05153">
        <ele>300.84017944336</ele>
        <time>2014-09-10T14:20:14Z</time>
      </trkpt>
      <trkpt lat="43.42732" lon="6.0516">
        <ele>300.49060058594</ele>
        <time>2014-09-10T14:20:15Z</time>
      </trkpt>
      <trkpt lat="43.42725" lon="6.05181">
        <ele>300</ele>
        <time>2014-09-10T14:20:18Z</time>
      </trkpt>
      <trkpt lat="43.42722" lon="6.05189">
        <ele>300.00396728516</ele>
        <time>2014-09-10T14:20:19Z</time>
      </trkpt>
      <trkpt lat="43.42719" lon="6.05196">
        <ele>300</ele>
        <time>2014-09-10T14:20:20Z</time>
      </trkpt>
      <trkpt lat="43.42715" lon="6.05203">
        <ele>300</ele>
        <time>2014-09-10T14:20:21Z</time>
      </trkpt>
      <trkpt lat="43.42712" lon="6.05209">
        <ele>300</ele>
        <time>2014-09-10T14:20:22Z</time>
      </trkpt>
      <trkpt lat="43.42707" lon="6.05215">
        <ele>300</ele>
        <time>2014-09-10T14:20:23Z</time>
      </trkpt>
      <trkpt lat="43.42702" lon="6.05219">
        <ele>300</ele>
        <time>2014-09-10T14:20:24Z</time>
      </trkpt>
      <trkpt lat="43.42698" lon="6.05221">
        <ele>300</ele>
        <time>2014-09-10T14:20:25Z</time>
      </trkpt>
      <trkpt lat="43.42693" lon="6.05222">
        <ele>300</ele>
        <time>2014-09-10T14:20:26Z</time>
      </trkpt>
      <trkpt lat="43.42688" lon="6.05223">
        <ele>300</ele>
        <time>2014-09-10T14:20:27Z</time>
      </trkpt>
      <trkpt lat="43.42684" lon="6.05224">
        <ele>300</ele>
        <time>2014-09-10T14:20:28Z</time>
      </trkpt>
      <trkpt lat="43.4268" lon="6.05227">
        <ele>300</ele>
        <time>2014-09-10T14:20:29Z</time>
      </trkpt>
      <trkpt lat="43.42676" lon="6.0523">
        <ele>300</ele>
        <time>2014-09-10T14:20:30Z</time>
      </trkpt>
      <trkpt lat="43.42672" lon="6.05234">
        <ele>300</ele>
        <time>2014-09-10T14:20:31Z</time>
      </trkpt>
      <trkpt lat="43.42668" lon="6.05238">
        <ele>300</ele>
        <time>2014-09-10T14:20:32Z</time>
      </trkpt>
      <trkpt lat="43.42663" lon="6.05241">
        <ele>300</ele>
        <time>2014-09-10T14:20:33Z</time>
      </trkpt>
      <trkpt lat="43.42658" lon="6.05245">
        <ele>300</ele>
        <time>2014-09-10T14:20:34Z</time>
      </trkpt>
      <trkpt lat="43.42653" lon="6.05249">
        <ele>300</ele>
        <time>2014-09-10T14:20:35Z</time>
      </trkpt>
      <trkpt lat="43.42648" lon="6.05254">
        <ele>300</ele>
        <time>2014-09-10T14:20:36Z</time>
      </trkpt>
      <trkpt lat="43.42643" lon="6.05258">
        <ele>300</ele>
        <time>2014-09-10T14:20:37Z</time>
      </trkpt>
      <trkpt lat="43.42638" lon="6.05262">
        <ele>300</ele>
        <time>2014-09-10T14:20:38Z</time>
      </trkpt>
      <trkpt lat="43.42635" lon="6.05264">
        <ele>300</ele>
        <time>2014-09-10T14:20:39Z</time>
      </trkpt>
      <trkpt lat="43.42635" lon="6.05265">
        <ele>300</ele>
        <time>2014-09-10T14:20:40Z</time>
      </trkpt>
      <trkpt lat="43.42635" lon="6.05264">
        <ele>300</ele>
        <time>2014-09-10T14:20:41Z</time>
      </trkpt>
      <trkpt lat="43.42635" lon="6.05263">
        <ele>300</ele>
        <time>2014-09-10T14:20:45Z</time>
      </trkpt>
      <trkpt lat="43.42635" lon="6.05263">
        <ele>300</ele>
        <time>2014-09-10T14:20:54Z</time>
      </trkpt>
      <trkpt lat="43.42635" lon="6.05263">
        <ele>300</ele>
        <time>2014-09-10T14:21:00Z</time>
      </trkpt>
      <trkpt lat="43.42635" lon="6.05263">
        <ele>300</ele>
        <time>2014-09-10T14:21:09Z</time>
      </trkpt>
      <trkpt lat="43.42635" lon="6.05263">
        <ele>300</ele>
        <time>2014-09-10T14:21:16Z</time>
      </trkpt>
      <trkpt lat="43.42635" lon="6.05263">
        <ele>300</ele>
        <time>2014-09-10T14:22:04Z</time>
      </trkpt>
      <trkpt lat="43.42635" lon="6.05263">
        <ele>300</ele>
        <time>2014-09-10T14:22:26Z</time>
      </trkpt>
      <trkpt lat="43.42635" lon="6.05263">
        <ele>300</ele>
        <time>2014-09-10T14:22:37Z</time>
      </trkpt>
      <trkpt lat="43.42635" lon="6.05263">
        <ele>300</ele>
        <time>2014-09-10T14:22:57Z</time>
      </trkpt>
      <trkpt lat="43.42635" lon="6.05263">
        <ele>300</ele>
        <time>2014-09-10T14:23:16Z</time>
      </trkpt>
      <trkpt lat="43.42635" lon="6.05263">
        <ele>300</ele>
        <time>2014-09-10T14:23:24Z</time>
      </trkpt>
      <trkpt lat="43.42635" lon="6.05263">
        <ele>300</ele>
        <time>2014-09-10T14:24:02Z</time>
      </trkpt>
      <trkpt lat="43.42635" lon="6.05263">
        <ele>300</ele>
        <time>2014-09-10T14:24:24Z</time>
      </trkpt>
      <trkpt lat="43.42635" lon="6.05263">
        <ele>300</ele>
        <time>2014-09-10T14:24:33Z</time>
      </trkpt>
      <trkpt lat="43.42635" lon="6.05264">
        <ele>300</ele>
        <time>2014-09-10T14:24:38Z</time>
      </trkpt>
      <trkpt lat="43.42635" lon="6.05264">
        <ele>300</ele>
        <time>2014-09-10T14:24:50Z</time>
      </trkpt>
      <trkpt lat="43.42635" lon="6.05264">
        <ele>300</ele>
        <time>2014-09-10T14:25:10Z</time>
      </trkpt>
      <trkpt lat="43.42634" lon="6.05263">
        <ele>300</ele>
        <time>2014-09-10T14:25:17Z</time>
      </trkpt>
      <trkpt lat="43.42634" lon="6.05263">
        <ele>300</ele>
        <time>2014-09-10T14:25:24Z</time>
      </trkpt>
      <trkpt lat="43.42633" lon="6.05263">
        <ele>300</ele>
        <time>2014-09-10T14:25:40Z</time>
      </trkpt>
      <trkpt lat="43.42627" lon="6.05259">
        <ele>300</ele>
        <time>2014-09-10T14:25:42Z</time>
      </trkpt>
      <trkpt lat="43.42624" lon="6.05257">
        <ele>300</ele>
        <time>2014-09-10T14:25:43Z</time>
      </trkpt>
      <trkpt lat="43.4262" lon="6.05255">
        <ele>300</ele>
        <time>2014-09-10T14:25:44Z</time>
      </trkpt>
      <trkpt lat="43.42616" lon="6.05252">
        <ele>300</ele>
        <time>2014-09-10T14:25:45Z</time>
      </trkpt>
      <trkpt lat="43.42609" lon="6.05245">
        <ele>300</ele>
        <time>2014-09-10T14:25:47Z</time>
      </trkpt>
      <trkpt lat="43.42605" lon="6.05242">
        <ele>300</ele>
        <time>2014-09-10T14:25:48Z</time>
      </trkpt>
      <trkpt lat="43.42603" lon="6.0524">
        <ele>300</ele>
        <time>2014-09-10T14:25:49Z</time>
      </trkpt>
      <trkpt lat="43.42601" lon="6.05239">
        <ele>300</ele>
        <time>2014-09-10T14:25:50Z</time>
      </trkpt>
      <trkpt lat="43.42599" lon="6.05238">
        <ele>300</ele>
        <time>2014-09-10T14:25:51Z</time>
      </trkpt>
      <trkpt lat="43.42599" lon="6.05236">
        <ele>300</ele>
        <time>2014-09-10T14:25:52Z</time>
      </trkpt>
      <trkpt lat="43.42595" lon="6.05235">
        <ele>300</ele>
        <time>2014-09-10T14:25:56Z</time>
      </trkpt>
      <trkpt lat="43.42591" lon="6.05233">
        <ele>300</ele>
        <time>2014-09-10T14:25:59Z</time>
      </trkpt>
      <trkpt lat="43.42589" lon="6.05232">
        <ele>300</ele>
        <time>2014-09-10T14:26:00Z</time>
      </trkpt>
      <trkpt lat="43.42582" lon="6.05226">
        <ele>300</ele>
        <time>2014-09-10T14:26:03Z</time>
      </trkpt>
      <trkpt lat="43.42575" lon="6.05224">
        <ele>300</ele>
        <time>2014-09-10T14:26:05Z</time>
      </trkpt>
      <trkpt lat="43.42566" lon="6.05221">
        <ele>300.04077148438</ele>
        <time>2014-09-10T14:26:07Z</time>
      </trkpt>
      <trkpt lat="43.42554" lon="6.0522">
        <ele>300.18255615234</ele>
        <time>2014-09-10T14:26:10Z</time>
      </trkpt>
      <trkpt lat="43.42536" lon="6.05225">
        <ele>299.85604858398</ele>
        <time>2014-09-10T14:26:14Z</time>
      </trkpt>
      <trkpt lat="43.42529" lon="6.05225">
        <ele>299.83517456055</ele>
        <time>2014-09-10T14:26:16Z</time>
      </trkpt>
      <trkpt lat="43.42525" lon="6.05225">
        <ele>299.75665283203</ele>
        <time>2014-09-10T14:26:17Z</time>
      </trkpt>
      <trkpt lat="43.42521" lon="6.05225">
        <ele>299.71221923828</ele>
        <time>2014-09-10T14:26:18Z</time>
      </trkpt>
      <trkpt lat="43.42517" lon="6.05226">
        <ele>299.6042175293</ele>
        <time>2014-09-10T14:26:19Z</time>
      </trkpt>
      <trkpt lat="43.42514" lon="6.05227">
        <ele>299.39450073242</ele>
        <time>2014-09-10T14:26:20Z</time>
      </trkpt>
      <trkpt lat="43.4251" lon="6.05227">
        <ele>299.33050537109</ele>
        <time>2014-09-10T14:26:21Z</time>
      </trkpt>
      <trkpt lat="43.42491" lon="6.0522">
        <ele>299.22369384766</ele>
        <time>2014-09-10T14:26:26Z</time>
      </trkpt>
      <trkpt lat="43.42484" lon="6.05217">
        <ele>299.05996704102</ele>
        <time>2014-09-10T14:26:28Z</time>
      </trkpt>
      <trkpt lat="43.42471" lon="6.05215">
        <ele>297.98538208008</ele>
        <time>2014-09-10T14:26:31Z</time>
      </trkpt>
      <trkpt lat="43.42467" lon="6.05214">
        <ele>297.32855224609</ele>
        <time>2014-09-10T14:26:32Z</time>
      </trkpt>
      <trkpt lat="43.42455" lon="6.05214">
        <ele>294.56527709961</ele>
        <time>2014-09-10T14:26:35Z</time>
      </trkpt>
      <trkpt lat="43.42443" lon="6.05219">
        <ele>289.92984008789</ele>
        <time>2014-09-10T14:26:37Z</time>
      </trkpt>
      <trkpt lat="43.42438" lon="6.05222">
        <ele>288.16000366211</ele>
        <time>2014-09-10T14:26:38Z</time>
      </trkpt>
      <trkpt lat="43.42432" lon="6.05222">
        <ele>287.20297241211</ele>
        <time>2014-09-10T14:26:39Z</time>
      </trkpt>
      <trkpt lat="43.42427" lon="6.05223">
        <ele>286.25100708008</ele>
        <time>2014-09-10T14:26:40Z</time>
      </trkpt>
      <trkpt lat="43.42422" lon="6.05224">
        <ele>285.46194458008</ele>
        <time>2014-09-10T14:26:41Z</time>
      </trkpt>
      <trkpt lat="43.42413" lon="6.05222">
        <ele>284.38589477539</ele>
        <time>2014-09-10T14:26:43Z</time>
      </trkpt>
      <trkpt lat="43.42408" lon="6.05216">
        <ele>286.26693725586</ele>
        <time>2014-09-10T14:26:45Z</time>
      </trkpt>
      <trkpt lat="43.42402" lon="6.05202">
        <ele>291.36779785156</ele>
        <time>2014-09-10T14:26:50Z</time>
      </trkpt>
      <trkpt lat="43.424" lon="6.05196">
        <ele>294.08633422852</ele>
        <time>2014-09-10T14:26:53Z</time>
      </trkpt>
      <trkpt lat="43.42397" lon="6.05192">
        <ele>294.87222290039</ele>
        <time>2014-09-10T14:26:56Z</time>
      </trkpt>
      <trkpt lat="43.42396" lon="6.05191">
        <ele>294.85028076172</ele>
        <time>2014-09-10T14:26:57Z</time>
      </trkpt>
      <trkpt lat="43.42397" lon="6.05191">
        <ele>294.9035949707</ele>
        <time>2014-09-10T14:26:58Z</time>
      </trkpt>
      <trkpt lat="43.42397" lon="6.05191">
        <ele>294.9035949707</ele>
        <time>2014-09-10T14:27:01Z</time>
      </trkpt>
      <trkpt lat="43.42397" lon="6.05191">
        <ele>294.9035949707</ele>
        <time>2014-09-10T14:27:03Z</time>
      </trkpt>
      <trkpt lat="43.42397" lon="6.05189">
        <ele>295.34222412109</ele>
        <time>2014-09-10T14:27:04Z</time>
      </trkpt>
      <trkpt lat="43.42395" lon="6.05182">
        <ele>296.78271484375</ele>
        <time>2014-09-10T14:27:10Z</time>
      </trkpt>
      <trkpt lat="43.42394" lon="6.05179">
        <ele>297.43414306641</ele>
        <time>2014-09-10T14:27:14Z</time>
      </trkpt>
      <trkpt lat="43.42394" lon="6.05179">
        <ele>297.43414306641</ele>
        <time>2014-09-10T14:27:16Z</time>
      </trkpt>
      <trkpt lat="43.42393" lon="6.05176">
        <ele>298.16098022461</ele>
        <time>2014-09-10T14:27:20Z</time>
      </trkpt>
      <trkpt lat="43.42392" lon="6.05176">
        <ele>298.11932373047</ele>
        <time>2014-09-10T14:27:21Z</time>
      </trkpt>
      <trkpt lat="43.42389" lon="6.05176">
        <ele>297.75207519531</ele>
        <time>2014-09-10T14:27:23Z</time>
      </trkpt>
      <trkpt lat="43.42387" lon="6.05181">
        <ele>296.0556640625</ele>
        <time>2014-09-10T14:27:26Z</time>
      </trkpt>
      <trkpt lat="43.42376" lon="6.05186">
        <ele>293.21295166016</ele>
        <time>2014-09-10T14:27:30Z</time>
      </trkpt>
      <trkpt lat="43.4237" lon="6.05186">
        <ele>292.5520324707</ele>
        <time>2014-09-10T14:27:32Z</time>
      </trkpt>
      <trkpt lat="43.42367" lon="6.05188">
        <ele>291.57183837891</ele>
        <time>2014-09-10T14:27:33Z</time>
      </trkpt>
      <trkpt lat="43.42362" lon="6.05189">
        <ele>290.59338378906</ele>
        <time>2014-09-10T14:27:34Z</time>
      </trkpt>
      <trkpt lat="43.42359" lon="6.05191">
        <ele>289.50506591797</ele>
        <time>2014-09-10T14:27:35Z</time>
      </trkpt>
      <trkpt lat="43.42358" lon="6.05196">
        <ele>288.06097412109</ele>
        <time>2014-09-10T14:27:36Z</time>
      </trkpt>
      <trkpt lat="43.42356" lon="6.05199">
        <ele>286.98797607422</ele>
        <time>2014-09-10T14:27:37Z</time>
      </trkpt>
      <trkpt lat="43.42352" lon="6.05198">
        <ele>286.56079101562</ele>
        <time>2014-09-10T14:27:38Z</time>
      </trkpt>
      <trkpt lat="43.42346" lon="6.052">
        <ele>285.49188232422</ele>
        <time>2014-09-10T14:27:40Z</time>
      </trkpt>
      <trkpt lat="43.42343" lon="6.05198">
        <ele>285.48846435547</ele>
        <time>2014-09-10T14:27:41Z</time>
      </trkpt>
      <trkpt lat="43.4234" lon="6.05197">
        <ele>285.38204956055</ele>
        <time>2014-09-10T14:27:42Z</time>
      </trkpt>
      <trkpt lat="43.42337" lon="6.05199">
        <ele>284.60610961914</ele>
        <time>2014-09-10T14:27:43Z</time>
      </trkpt>
      <trkpt lat="43.42333" lon="6.05201">
        <ele>283.75952148438</ele>
        <time>2014-09-10T14:27:44Z</time>
      </trkpt>
      <trkpt lat="43.42328" lon="6.052">
        <ele>283.29016113281</ele>
        <time>2014-09-10T14:27:45Z</time>
      </trkpt>
      <trkpt lat="43.42323" lon="6.05198">
        <ele>282.73611450195</ele>
        <time>2014-09-10T14:27:46Z</time>
      </trkpt>
      <trkpt lat="43.4232" lon="6.052">
        <ele>282.08297729492</ele>
        <time>2014-09-10T14:27:47Z</time>
      </trkpt>
      <trkpt lat="43.42316" lon="6.05202">
        <ele>281.37213134766</ele>
        <time>2014-09-10T14:27:48Z</time>
      </trkpt>
      <trkpt lat="43.42311" lon="6.05203">
        <ele>280.73916625977</ele>
        <time>2014-09-10T14:27:49Z</time>
      </trkpt>
      <trkpt lat="43.42302" lon="6.05202">
        <ele>279.91488647461</ele>
        <time>2014-09-10T14:27:51Z</time>
      </trkpt>
      <trkpt lat="43.423" lon="6.052">
        <ele>279.83038330078</ele>
        <time>2014-09-10T14:27:52Z</time>
      </trkpt>
      <trkpt lat="43.42297" lon="6.05198">
        <ele>279.74740600586</ele>
        <time>2014-09-10T14:27:53Z</time>
      </trkpt>
      <trkpt lat="43.42281" lon="6.05193">
        <ele>279.1858215332</ele>
        <time>2014-09-10T14:27:59Z</time>
      </trkpt>
      <trkpt lat="43.42273" lon="6.05205">
        <ele>279.39413452148</ele>
        <time>2014-09-10T14:28:02Z</time>
      </trkpt>
      <trkpt lat="43.42264" lon="6.05211">
        <ele>279.59671020508</ele>
        <time>2014-09-10T14:28:04Z</time>
      </trkpt>
      <trkpt lat="43.42258" lon="6.05212">
        <ele>279.64819335938</ele>
        <time>2014-09-10T14:28:05Z</time>
      </trkpt>
      <trkpt lat="43.42248" lon="6.05211">
        <ele>279.52679443359</ele>
        <time>2014-09-10T14:28:07Z</time>
      </trkpt>
      <trkpt lat="43.42245" lon="6.05212">
        <ele>279.45300292969</ele>
        <time>2014-09-10T14:28:08Z</time>
      </trkpt>
      <trkpt lat="43.42242" lon="6.05209">
        <ele>279.25213623047</ele>
        <time>2014-09-10T14:28:09Z</time>
      </trkpt>
      <trkpt lat="43.42232" lon="6.05202">
        <ele>278.62213134766</ele>
        <time>2014-09-10T14:28:12Z</time>
      </trkpt>
      <trkpt lat="43.42231" lon="6.05198">
        <ele>278.45391845703</ele>
        <time>2014-09-10T14:28:13Z</time>
      </trkpt>
      <trkpt lat="43.4223" lon="6.05195">
        <ele>278.28396606445</ele>
        <time>2014-09-10T14:28:14Z</time>
      </trkpt>
      <trkpt lat="43.42219" lon="6.05187">
        <ele>277.62829589844</ele>
        <time>2014-09-10T14:28:17Z</time>
      </trkpt>
      <trkpt lat="43.42216" lon="6.05186">
        <ele>277.38110351562</ele>
        <time>2014-09-10T14:28:18Z</time>
      </trkpt>
      <trkpt lat="43.42214" lon="6.05183">
        <ele>277.13391113281</ele>
        <time>2014-09-10T14:28:19Z</time>
      </trkpt>
      <trkpt lat="43.42212" lon="6.05182">
        <ele>276.88671875</ele>
        <time>2014-09-10T14:28:20Z</time>
      </trkpt>
      <trkpt lat="43.42209" lon="6.05181">
        <ele>276.59832763672</ele>
        <time>2014-09-10T14:28:21Z</time>
      </trkpt>
      <trkpt lat="43.42207" lon="6.05179">
        <ele>276.39233398438</ele>
        <time>2014-09-10T14:28:22Z</time>
      </trkpt>
      <trkpt lat="43.42202" lon="6.05174">
        <ele>275.77435302734</ele>
        <time>2014-09-10T14:28:25Z</time>
      </trkpt>
      <trkpt lat="43.42199" lon="6.05172">
        <ele>275.48596191406</ele>
        <time>2014-09-10T14:28:29Z</time>
      </trkpt>
      <trkpt lat="43.42197" lon="6.0517">
        <ele>275.32116699219</ele>
        <time>2014-09-10T14:28:35Z</time>
      </trkpt>
      <trkpt lat="43.42193" lon="6.05168">
        <ele>274.74020385742</ele>
        <time>2014-09-10T14:28:37Z</time>
      </trkpt>
      <trkpt lat="43.42189" lon="6.05168">
        <ele>273.84979248047</ele>
        <time>2014-09-10T14:28:38Z</time>
      </trkpt>
      <trkpt lat="43.42185" lon="6.05169">
        <ele>272.97686767578</ele>
        <time>2014-09-10T14:28:39Z</time>
      </trkpt>
      <trkpt lat="43.42181" lon="6.0517">
        <ele>272.12121582031</ele>
        <time>2014-09-10T14:28:40Z</time>
      </trkpt>
      <trkpt lat="43.42179" lon="6.0517">
        <ele>271.91226196289</ele>
        <time>2014-09-10T14:28:41Z</time>
      </trkpt>
      <trkpt lat="43.42179" lon="6.0517">
        <ele>271.91040039062</ele>
        <time>2014-09-10T14:28:42Z</time>
      </trkpt>
      <trkpt lat="43.42179" lon="6.0517">
        <ele>271.91040039062</ele>
        <time>2014-09-10T14:28:47Z</time>
      </trkpt>
      <trkpt lat="43.42179" lon="6.05171">
        <ele>271.93444824219</ele>
        <time>2014-09-10T14:28:50Z</time>
      </trkpt>
      <trkpt lat="43.42179" lon="6.05171">
        <ele>271.93444824219</ele>
        <time>2014-09-10T14:28:58Z</time>
      </trkpt>
      <trkpt lat="43.42179" lon="6.05171">
        <ele>271.93444824219</ele>
        <time>2014-09-10T14:29:01Z</time>
      </trkpt>
      <trkpt lat="43.42179" lon="6.05169">
        <ele>271.86233520508</ele>
        <time>2014-09-10T14:29:09Z</time>
      </trkpt>
      <trkpt lat="43.42181" lon="6.05167">
        <ele>272.0341796875</ele>
        <time>2014-09-10T14:29:11Z</time>
      </trkpt>
      <trkpt lat="43.42182" lon="6.05166">
        <ele>272.41009521484</ele>
        <time>2014-09-10T14:29:15Z</time>
      </trkpt>
      <trkpt lat="43.42181" lon="6.05168">
        <ele>272.23187255859</ele>
        <time>2014-09-10T14:29:22Z</time>
      </trkpt>
      <trkpt lat="43.42181" lon="6.05168">
        <ele>272.23187255859</ele>
        <time>2014-09-10T14:29:32Z</time>
      </trkpt>
      <trkpt lat="43.42181" lon="6.05168">
        <ele>272.23831176758</ele>
        <time>2014-09-10T14:30:03Z</time>
      </trkpt>
      <trkpt lat="43.4218" lon="6.0517">
        <ele>272.04696655273</ele>
        <time>2014-09-10T14:30:09Z</time>
      </trkpt>
      <trkpt lat="43.4218" lon="6.0517">
        <ele>272.04696655273</ele>
        <time>2014-09-10T14:30:33Z</time>
      </trkpt>
      <trkpt lat="43.4218" lon="6.0517">
        <ele>272.04873657227</ele>
        <time>2014-09-10T14:30:56Z</time>
      </trkpt>
      <trkpt lat="43.4218" lon="6.0517">
        <ele>272.04873657227</ele>
        <time>2014-09-10T14:31:06Z</time>
      </trkpt>
      <trkpt lat="43.42178" lon="6.0517">
        <ele>271.64810180664</ele>
        <time>2014-09-10T14:31:16Z</time>
      </trkpt>
      <trkpt lat="43.42177" lon="6.05169">
        <ele>271.27813720703</ele>
        <time>2014-09-10T14:31:17Z</time>
      </trkpt>
      <trkpt lat="43.42163" lon="6.05161">
        <ele>269.26770019531</ele>
        <time>2014-09-10T14:31:23Z</time>
      </trkpt>
      <trkpt lat="43.42157" lon="6.05157">
        <ele>268.60852050781</ele>
        <time>2014-09-10T14:31:26Z</time>
      </trkpt>
      <trkpt lat="43.42155" lon="6.05155">
        <ele>268.57418823242</ele>
        <time>2014-09-10T14:31:27Z</time>
      </trkpt>
      <trkpt lat="43.42152" lon="6.05151">
        <ele>268.60852050781</ele>
        <time>2014-09-10T14:31:29Z</time>
      </trkpt>
      <trkpt lat="43.4215" lon="6.05148">
        <ele>268.57418823242</ele>
        <time>2014-09-10T14:31:30Z</time>
      </trkpt>
      <trkpt lat="43.42138" lon="6.05135">
        <ele>268.22613525391</ele>
        <time>2014-09-10T14:31:35Z</time>
      </trkpt>
      <trkpt lat="43.42121" lon="6.05118">
        <ele>267.73516845703</ele>
        <time>2014-09-10T14:31:40Z</time>
      </trkpt>
      <trkpt lat="43.42101" lon="6.05115">
        <ele>265.46881103516</ele>
        <time>2014-09-10T14:31:44Z</time>
      </trkpt>
      <trkpt lat="43.42095" lon="6.05115">
        <ele>264.81228637695</ele>
        <time>2014-09-10T14:31:45Z</time>
      </trkpt>
      <trkpt lat="43.42089" lon="6.05115">
        <ele>264.10098266602</ele>
        <time>2014-09-10T14:31:46Z</time>
      </trkpt>
      <trkpt lat="43.42083" lon="6.05114">
        <ele>263.60916137695</ele>
        <time>2014-09-10T14:31:47Z</time>
      </trkpt>
      <trkpt lat="43.42077" lon="6.05113">
        <ele>263.46200561523</ele>
        <time>2014-09-10T14:31:48Z</time>
      </trkpt>
      <trkpt lat="43.42064" lon="6.05113">
        <ele>263.03860473633</ele>
        <time>2014-09-10T14:31:50Z</time>
      </trkpt>
      <trkpt lat="43.42057" lon="6.05114">
        <ele>262.73944091797</ele>
        <time>2014-09-10T14:31:51Z</time>
      </trkpt>
      <trkpt lat="43.4205" lon="6.05115">
        <ele>262.58166503906</ele>
        <time>2014-09-10T14:31:52Z</time>
      </trkpt>
      <trkpt lat="43.42044" lon="6.05116">
        <ele>262.45294189453</ele>
        <time>2014-09-10T14:31:53Z</time>
      </trkpt>
      <trkpt lat="43.42037" lon="6.05118">
        <ele>262.26751708984</ele>
        <time>2014-09-10T14:31:54Z</time>
      </trkpt>
      <trkpt lat="43.42024" lon="6.05122">
        <ele>261.81948852539</ele>
        <time>2014-09-10T14:31:56Z</time>
      </trkpt>
      <trkpt lat="43.42006" lon="6.05128">
        <ele>261.22210693359</ele>
        <time>2014-09-10T14:32:00Z</time>
      </trkpt>
      <trkpt lat="43.41997" lon="6.0513">
        <ele>260.95431518555</ele>
        <time>2014-09-10T14:32:02Z</time>
      </trkpt>
      <trkpt lat="43.41992" lon="6.05131">
        <ele>260.83587646484</ele>
        <time>2014-09-10T14:32:03Z</time>
      </trkpt>
      <trkpt lat="43.41987" lon="6.05132">
        <ele>260.75347900391</ele>
        <time>2014-09-10T14:32:04Z</time>
      </trkpt>
      <trkpt lat="43.41976" lon="6.05134">
        <ele>260.5732421875</ele>
        <time>2014-09-10T14:32:06Z</time>
      </trkpt>
      <trkpt lat="43.41952" lon="6.05145">
        <ele>260</ele>
        <time>2014-09-10T14:32:10Z</time>
      </trkpt>
      <trkpt lat="43.41939" lon="6.05152">
        <ele>260</ele>
        <time>2014-09-10T14:32:12Z</time>
      </trkpt>
      <trkpt lat="43.41932" lon="6.05155">
        <ele>260</ele>
        <time>2014-09-10T14:32:13Z</time>
      </trkpt>
      <trkpt lat="43.41926" lon="6.05157">
        <ele>260</ele>
        <time>2014-09-10T14:32:14Z</time>
      </trkpt>
      <trkpt lat="43.41921" lon="6.0516">
        <ele>260</ele>
        <time>2014-09-10T14:32:15Z</time>
      </trkpt>
      <trkpt lat="43.41915" lon="6.05162">
        <ele>259.93096923828</ele>
        <time>2014-09-10T14:32:16Z</time>
      </trkpt>
      <trkpt lat="43.41897" lon="6.05167">
        <ele>259.26449584961</ele>
        <time>2014-09-10T14:32:19Z</time>
      </trkpt>
      <trkpt lat="43.41891" lon="6.0517">
        <ele>258.98449707031</ele>
        <time>2014-09-10T14:32:20Z</time>
      </trkpt>
      <trkpt lat="43.41886" lon="6.05172">
        <ele>258.59060668945</ele>
        <time>2014-09-10T14:32:21Z</time>
      </trkpt>
      <trkpt lat="43.41881" lon="6.05175">
        <ele>258.15631103516</ele>
        <time>2014-09-10T14:32:22Z</time>
      </trkpt>
      <trkpt lat="43.41877" lon="6.05179">
        <ele>257.67907714844</ele>
        <time>2014-09-10T14:32:23Z</time>
      </trkpt>
      <trkpt lat="43.41861" lon="6.05183">
        <ele>256.39117431641</ele>
        <time>2014-09-10T14:32:25Z</time>
      </trkpt>
      <trkpt lat="43.41853" lon="6.05184">
        <ele>255.12947082519</ele>
        <time>2014-09-10T14:32:26Z</time>
      </trkpt>
      <trkpt lat="43.41845" lon="6.05185">
        <ele>253.94329833984</ele>
        <time>2014-09-10T14:32:27Z</time>
      </trkpt>
      <trkpt lat="43.41837" lon="6.05186">
        <ele>252.75540161133</ele>
        <time>2014-09-10T14:32:28Z</time>
      </trkpt>
      <trkpt lat="43.41799" lon="6.05182">
        <ele>249.41096496582</ele>
        <time>2014-09-10T14:32:33Z</time>
      </trkpt>
      <trkpt lat="43.41785" lon="6.05181">
        <ele>248.15586853027</ele>
        <time>2014-09-10T14:32:35Z</time>
      </trkpt>
      <trkpt lat="43.41771" lon="6.05179">
        <ele>245.69273376465</ele>
        <time>2014-09-10T14:32:37Z</time>
      </trkpt>
      <trkpt lat="43.41764" lon="6.05179">
        <ele>243.73031616211</ele>
        <time>2014-09-10T14:32:38Z</time>
      </trkpt>
      <trkpt lat="43.41756" lon="6.05178">
        <ele>241.7589263916</ele>
        <time>2014-09-10T14:32:39Z</time>
      </trkpt>
      <trkpt lat="43.4175" lon="6.05177">
        <ele>240</ele>
        <time>2014-09-10T14:32:40Z</time>
      </trkpt>
      <trkpt lat="43.41744" lon="6.05176">
        <ele>240</ele>
        <time>2014-09-10T14:32:41Z</time>
      </trkpt>
      <trkpt lat="43.41739" lon="6.05173">
        <ele>240</ele>
        <time>2014-09-10T14:32:42Z</time>
      </trkpt>
      <trkpt lat="43.41735" lon="6.05168">
        <ele>240</ele>
        <time>2014-09-10T14:32:43Z</time>
      </trkpt>
      <trkpt lat="43.41733" lon="6.05162">
        <ele>240.21078491211</ele>
        <time>2014-09-10T14:32:44Z</time>
      </trkpt>
      <trkpt lat="43.41733" lon="6.05155">
        <ele>240.46591186523</ele>
        <time>2014-09-10T14:32:45Z</time>
      </trkpt>
      <trkpt lat="43.41733" lon="6.05149">
        <ele>240.75469970703</ele>
        <time>2014-09-10T14:32:46Z</time>
      </trkpt>
      <trkpt lat="43.41734" lon="6.05143">
        <ele>241.06243896484</ele>
        <time>2014-09-10T14:32:47Z</time>
      </trkpt>
      <trkpt lat="43.41731" lon="6.05108">
        <ele>242.66235351562</ele>
        <time>2014-09-10T14:32:53Z</time>
      </trkpt>
      <trkpt lat="43.41728" lon="6.05105">
        <ele>242.44552612305</ele>
        <time>2014-09-10T14:32:54Z</time>
      </trkpt>
      <trkpt lat="43.41716" lon="6.05113">
        <ele>241.23182678223</ele>
        <time>2014-09-10T14:32:57Z</time>
      </trkpt>
      <trkpt lat="43.41711" lon="6.05116">
        <ele>240.54666137695</ele>
        <time>2014-09-10T14:32:58Z</time>
      </trkpt>
      <trkpt lat="43.41706" lon="6.0512">
        <ele>239.96101379394</ele>
        <time>2014-09-10T14:32:59Z</time>
      </trkpt>
      <trkpt lat="43.417" lon="6.05124">
        <ele>239.44374084473</ele>
        <time>2014-09-10T14:33:00Z</time>
      </trkpt>
      <trkpt lat="43.41695" lon="6.05127">
        <ele>239.03791809082</ele>
        <time>2014-09-10T14:33:01Z</time>
      </trkpt>
      <trkpt lat="43.41682" lon="6.05142">
        <ele>238.54016113281</ele>
        <time>2014-09-10T14:33:04Z</time>
      </trkpt>
      <trkpt lat="43.41677" lon="6.05148">
        <ele>238.38909912109</ele>
        <time>2014-09-10T14:33:05Z</time>
      </trkpt>
      <trkpt lat="43.41673" lon="6.05153">
        <ele>238.23803710938</ele>
        <time>2014-09-10T14:33:06Z</time>
      </trkpt>
      <trkpt lat="43.41669" lon="6.05159">
        <ele>238.08697509766</ele>
        <time>2014-09-10T14:33:07Z</time>
      </trkpt>
      <trkpt lat="43.41664" lon="6.05164">
        <ele>237.9031829834</ele>
        <time>2014-09-10T14:33:08Z</time>
      </trkpt>
      <trkpt lat="43.41651" lon="6.05168">
        <ele>237.44152832031</ele>
        <time>2014-09-10T14:33:10Z</time>
      </trkpt>
      <trkpt lat="43.41628" lon="6.05166">
        <ele>237.01362609863</ele>
        <time>2014-09-10T14:33:13Z</time>
      </trkpt>
      <trkpt lat="43.41621" lon="6.05165">
        <ele>237.01463317871</ele>
        <time>2014-09-10T14:33:14Z</time>
      </trkpt>
      <trkpt lat="43.41605" lon="6.05164">
        <ele>236.77984619141</ele>
        <time>2014-09-10T14:33:16Z</time>
      </trkpt>
      <trkpt lat="43.41589" lon="6.05161">
        <ele>236.18933105469</ele>
        <time>2014-09-10T14:33:18Z</time>
      </trkpt>
      <trkpt lat="43.4158" lon="6.0516">
        <ele>235.91447448731</ele>
        <time>2014-09-10T14:33:19Z</time>
      </trkpt>
      <trkpt lat="43.41571" lon="6.05158">
        <ele>235.69116210938</ele>
        <time>2014-09-10T14:33:20Z</time>
      </trkpt>
      <trkpt lat="43.41562" lon="6.05157">
        <ele>235.50970458984</ele>
        <time>2014-09-10T14:33:21Z</time>
      </trkpt>
      <trkpt lat="43.41553" lon="6.05154">
        <ele>235.40983581543</ele>
        <time>2014-09-10T14:33:22Z</time>
      </trkpt>
      <trkpt lat="43.41544" lon="6.05152">
        <ele>235.30592346191</ele>
        <time>2014-09-10T14:33:23Z</time>
      </trkpt>
      <trkpt lat="43.41535" lon="6.05152">
        <ele>235.13821411133</ele>
        <time>2014-09-10T14:33:24Z</time>
      </trkpt>
      <trkpt lat="43.41526" lon="6.05153">
        <ele>234.9045715332</ele>
        <time>2014-09-10T14:33:25Z</time>
      </trkpt>
      <trkpt lat="43.41517" lon="6.05155">
        <ele>234.4030456543</ele>
        <time>2014-09-10T14:33:26Z</time>
      </trkpt>
      <trkpt lat="43.4151" lon="6.05156">
        <ele>233.98008728027</ele>
        <time>2014-09-10T14:33:27Z</time>
      </trkpt>
      <trkpt lat="43.41504" lon="6.05158">
        <ele>233.54656982422</ele>
        <time>2014-09-10T14:33:28Z</time>
      </trkpt>
      <trkpt lat="43.41499" lon="6.0516">
        <ele>233.19702148438</ele>
        <time>2014-09-10T14:33:29Z</time>
      </trkpt>
      <trkpt lat="43.41496" lon="6.05162">
        <ele>233.00305175781</ele>
        <time>2014-09-10T14:33:30Z</time>
      </trkpt>
      <trkpt lat="43.41494" lon="6.05164">
        <ele>232.88459777832</ele>
        <time>2014-09-10T14:33:31Z</time>
      </trkpt>
      <trkpt lat="43.41494" lon="6.05164">
        <ele>232.869140625</ele>
        <time>2014-09-10T14:33:34Z</time>
      </trkpt>
      <trkpt lat="43.41492" lon="6.05167">
        <ele>232.72863769531</ele>
        <time>2014-09-10T14:33:40Z</time>
      </trkpt>
      <trkpt lat="43.4149" lon="6.0517">
        <ele>232.63250732422</ele>
        <time>2014-09-10T14:33:42Z</time>
      </trkpt>
      <trkpt lat="43.41491" lon="6.05175">
        <ele>232.67370605469</ele>
        <time>2014-09-10T14:33:44Z</time>
      </trkpt>
      <trkpt lat="43.41495" lon="6.05183">
        <ele>232.82476806641</ele>
        <time>2014-09-10T14:33:47Z</time>
      </trkpt>
      <trkpt lat="43.41498" lon="6.05187">
        <ele>232.9208984375</ele>
        <time>2014-09-10T14:33:50Z</time>
      </trkpt>
      <trkpt lat="43.41502" lon="6.05201">
        <ele>233.08569335938</ele>
        <time>2014-09-10T14:33:56Z</time>
      </trkpt>
      <trkpt lat="43.41511" lon="6.05217">
        <ele>233.38781738281</ele>
        <time>2014-09-10T14:34:02Z</time>
      </trkpt>
      <trkpt lat="43.41512" lon="6.0522">
        <ele>233.44274902344</ele>
        <time>2014-09-10T14:34:03Z</time>
      </trkpt>
      <trkpt lat="43.41521" lon="6.05241">
        <ele>233.09759521484</ele>
        <time>2014-09-10T14:34:10Z</time>
      </trkpt>
      <trkpt lat="43.41529" lon="6.05257">
        <ele>233.03326416016</ele>
        <time>2014-09-10T14:34:15Z</time>
      </trkpt>
      <trkpt lat="43.41531" lon="6.05264">
        <ele>233.12939453125</ele>
        <time>2014-09-10T14:34:17Z</time>
      </trkpt>
      <trkpt lat="43.41541" lon="6.05295">
        <ele>233.47271728516</ele>
        <time>2014-09-10T14:34:24Z</time>
      </trkpt>
      <trkpt lat="43.41552" lon="6.05333">
        <ele>233.76982116699</ele>
        <time>2014-09-10T14:34:30Z</time>
      </trkpt>
      <trkpt lat="43.41558" lon="6.05348">
        <ele>233.50897216797</ele>
        <time>2014-09-10T14:34:32Z</time>
      </trkpt>
      <trkpt lat="43.41567" lon="6.0537">
        <ele>233.28007507324</ele>
        <time>2014-09-10T14:34:35Z</time>
      </trkpt>
      <trkpt lat="43.4157" lon="6.05378">
        <ele>233.19947814941</ele>
        <time>2014-09-10T14:34:36Z</time>
      </trkpt>
      <trkpt lat="43.41576" lon="6.05395">
        <ele>232.94438171387</ele>
        <time>2014-09-10T14:34:38Z</time>
      </trkpt>
      <trkpt lat="43.41584" lon="6.05419">
        <ele>233.01080322266</ele>
        <time>2014-09-10T14:34:41Z</time>
      </trkpt>
      <trkpt lat="43.41586" lon="6.05427">
        <ele>233.09320068359</ele>
        <time>2014-09-10T14:34:42Z</time>
      </trkpt>
      <trkpt lat="43.41591" lon="6.05444">
        <ele>233.28546142578</ele>
        <time>2014-09-10T14:34:44Z</time>
      </trkpt>
      <trkpt lat="43.41596" lon="6.0546">
        <ele>232.89627075195</ele>
        <time>2014-09-10T14:34:46Z</time>
      </trkpt>
      <trkpt lat="43.41607" lon="6.055">
        <ele>232.84851074219</ele>
        <time>2014-09-10T14:34:51Z</time>
      </trkpt>
      <trkpt lat="43.41624" lon="6.05563">
        <ele>232.96044921875</ele>
        <time>2014-09-10T14:34:59Z</time>
      </trkpt>
      <trkpt lat="43.41636" lon="6.05634">
        <ele>232.97164916992</ele>
        <time>2014-09-10T14:35:08Z</time>
      </trkpt>
      <trkpt lat="43.41637" lon="6.05643">
        <ele>232.89428710938</ele>
        <time>2014-09-10T14:35:09Z</time>
      </trkpt>
      <trkpt lat="43.41639" lon="6.05651">
        <ele>233.00207519531</ele>
        <time>2014-09-10T14:35:10Z</time>
      </trkpt>
      <trkpt lat="43.41641" lon="6.05666">
        <ele>233.08447265625</ele>
        <time>2014-09-10T14:35:12Z</time>
      </trkpt>
      <trkpt lat="43.41641" lon="6.05673">
        <ele>233.07073974609</ele>
        <time>2014-09-10T14:35:13Z</time>
      </trkpt>
      <trkpt lat="43.41641" lon="6.0568">
        <ele>233.07073974609</ele>
        <time>2014-09-10T14:35:14Z</time>
      </trkpt>
      <trkpt lat="43.41643" lon="6.05724">
        <ele>233.13287353516</ele>
        <time>2014-09-10T14:35:20Z</time>
      </trkpt>
      <trkpt lat="43.41645" lon="6.05783">
        <ele>233.20806884766</ele>
        <time>2014-09-10T14:35:28Z</time>
      </trkpt>
      <trkpt lat="43.41642" lon="6.05832">
        <ele>233.11193847656</ele>
        <time>2014-09-10T14:35:34Z</time>
      </trkpt>
      <trkpt lat="43.41637" lon="6.05903">
        <ele>232.83935546875</ele>
        <time>2014-09-10T14:35:42Z</time>
      </trkpt>
      <trkpt lat="43.41627" lon="6.05968">
        <ele>232.12524414062</ele>
        <time>2014-09-10T14:35:49Z</time>
      </trkpt>
      <trkpt lat="43.41623" lon="6.05996">
        <ele>231.8505859375</ele>
        <time>2014-09-10T14:35:52Z</time>
      </trkpt>
      <trkpt lat="43.41619" lon="6.06015">
        <ele>231.60339355469</ele>
        <time>2014-09-10T14:35:54Z</time>
      </trkpt>
      <trkpt lat="43.41619" lon="6.06024">
        <ele>231.54846191406</ele>
        <time>2014-09-10T14:35:55Z</time>
      </trkpt>
      <trkpt lat="43.41617" lon="6.06033">
        <ele>231.43859863281</ele>
        <time>2014-09-10T14:35:56Z</time>
      </trkpt>
      <trkpt lat="43.41614" lon="6.06052">
        <ele>231.19140625</ele>
        <time>2014-09-10T14:35:58Z</time>
      </trkpt>
      <trkpt lat="43.41611" lon="6.06078">
        <ele>231.02661132812</ele>
        <time>2014-09-10T14:36:01Z</time>
      </trkpt>
      <trkpt lat="43.41612" lon="6.06086">
        <ele>230.98997497559</ele>
        <time>2014-09-10T14:36:02Z</time>
      </trkpt>
      <trkpt lat="43.41613" lon="6.06094">
        <ele>230.75114440918</ele>
        <time>2014-09-10T14:36:03Z</time>
      </trkpt>
      <trkpt lat="43.41615" lon="6.06102">
        <ele>230.52452087402</ele>
        <time>2014-09-10T14:36:04Z</time>
      </trkpt>
      <trkpt lat="43.41618" lon="6.0611">
        <ele>230.31373596191</ele>
        <time>2014-09-10T14:36:05Z</time>
      </trkpt>
      <trkpt lat="43.41621" lon="6.06116">
        <ele>230.44139099121</ele>
        <time>2014-09-10T14:36:06Z</time>
      </trkpt>
      <trkpt lat="43.41624" lon="6.06122">
        <ele>230.64562988281</ele>
        <time>2014-09-10T14:36:07Z</time>
      </trkpt>
      <trkpt lat="43.41626" lon="6.06127">
        <ele>230.81117248535</ele>
        <time>2014-09-10T14:36:08Z</time>
      </trkpt>
      <trkpt lat="43.41624" lon="6.06134">
        <ele>230.87651062012</ele>
        <time>2014-09-10T14:36:10Z</time>
      </trkpt>
      <trkpt lat="43.41621" lon="6.0614">
        <ele>230.69064331055</ele>
        <time>2014-09-10T14:36:12Z</time>
      </trkpt>
      <trkpt lat="43.41616" lon="6.06146">
        <ele>230.07438659668</ele>
        <time>2014-09-10T14:36:14Z</time>
      </trkpt>
      <trkpt lat="43.41613" lon="6.0615">
        <ele>229.72763061523</ele>
        <time>2014-09-10T14:36:15Z</time>
      </trkpt>
      <trkpt lat="43.416" lon="6.06168">
        <ele>228.59481811523</ele>
        <time>2014-09-10T14:36:19Z</time>
      </trkpt>
      <trkpt lat="43.41599" lon="6.06174">
        <ele>228.43298339844</ele>
        <time>2014-09-10T14:36:20Z</time>
      </trkpt>
      <trkpt lat="43.41596" lon="6.06196">
        <ele>227.85916137695</ele>
        <time>2014-09-10T14:36:24Z</time>
      </trkpt>
      <trkpt lat="43.41603" lon="6.06209">
        <ele>227.88835144043</ele>
        <time>2014-09-10T14:36:28Z</time>
      </trkpt>
      <trkpt lat="43.41607" lon="6.06214">
        <ele>227.97418212891</ele>
        <time>2014-09-10T14:36:30Z</time>
      </trkpt>
      <trkpt lat="43.41605" lon="6.06217">
        <ele>227.75961303711</ele>
        <time>2014-09-10T14:36:31Z</time>
      </trkpt>
      <trkpt lat="43.41603" lon="6.06235">
        <ele>227.2926940918</ele>
        <time>2014-09-10T14:36:36Z</time>
      </trkpt>
      <trkpt lat="43.41603" lon="6.06237">
        <ele>227.23049926758</ele>
        <time>2014-09-10T14:36:40Z</time>
      </trkpt>
      <trkpt lat="43.41603" lon="6.06236">
        <ele>227.27682495117</ele>
        <time>2014-09-10T14:36:47Z</time>
      </trkpt>
      <trkpt lat="43.41603" lon="6.06236">
        <ele>227.27682495117</ele>
        <time>2014-09-10T14:36:59Z</time>
      </trkpt>
      <trkpt lat="43.41603" lon="6.06236">
        <ele>227.27682495117</ele>
        <time>2014-09-10T14:37:04Z</time>
      </trkpt>
      <trkpt lat="43.41603" lon="6.06239">
        <ele>227.21388244629</ele>
        <time>2014-09-10T14:37:06Z</time>
      </trkpt>
      <trkpt lat="43.41601" lon="6.06245">
        <ele>226.99690246582</ele>
        <time>2014-09-10T14:37:08Z</time>
      </trkpt>
      <trkpt lat="43.416" lon="6.06251">
        <ele>226.73358154297</ele>
        <time>2014-09-10T14:37:10Z</time>
      </trkpt>
      <trkpt lat="43.41599" lon="6.06261">
        <ele>226.33016967773</ele>
        <time>2014-09-10T14:37:13Z</time>
      </trkpt>
      <trkpt lat="43.41589" lon="6.06268">
        <ele>224.93627929688</ele>
        <time>2014-09-10T14:37:16Z</time>
      </trkpt>
      <trkpt lat="43.41584" lon="6.06285">
        <ele>223.8614654541</ele>
        <time>2014-09-10T14:37:19Z</time>
      </trkpt>
      <trkpt lat="43.41585" lon="6.06309">
        <ele>223.09484863281</ele>
        <time>2014-09-10T14:37:22Z</time>
      </trkpt>
      <trkpt lat="43.41574" lon="6.06331">
        <ele>221.74237060547</ele>
        <time>2014-09-10T14:37:25Z</time>
      </trkpt>
      <trkpt lat="43.41568" lon="6.06337">
        <ele>221.46148681641</ele>
        <time>2014-09-10T14:37:26Z</time>
      </trkpt>
      <trkpt lat="43.41564" lon="6.06344">
        <ele>221.29669189453</ele>
        <time>2014-09-10T14:37:27Z</time>
      </trkpt>
      <trkpt lat="43.4156" lon="6.06352">
        <ele>221.14562988281</ele>
        <time>2014-09-10T14:37:28Z</time>
      </trkpt>
      <trkpt lat="43.41557" lon="6.06361">
        <ele>221.03073120117</ele>
        <time>2014-09-10T14:37:29Z</time>
      </trkpt>
      <trkpt lat="43.41551" lon="6.0639">
        <ele>220</ele>
        <time>2014-09-10T14:37:32Z</time>
      </trkpt>
      <trkpt lat="43.41549" lon="6.064">
        <ele>220</ele>
        <time>2014-09-10T14:37:33Z</time>
      </trkpt>
      <trkpt lat="43.41547" lon="6.06409">
        <ele>220</ele>
        <time>2014-09-10T14:37:34Z</time>
      </trkpt>
      <trkpt lat="43.41545" lon="6.06419">
        <ele>220</ele>
        <time>2014-09-10T14:37:35Z</time>
      </trkpt>
      <trkpt lat="43.41544" lon="6.06426">
        <ele>220</ele>
        <time>2014-09-10T14:37:36Z</time>
      </trkpt>
      <trkpt lat="43.41542" lon="6.0644">
        <ele>220</ele>
        <time>2014-09-10T14:37:38Z</time>
      </trkpt>
      <trkpt lat="43.41542" lon="6.06448">
        <ele>220</ele>
        <time>2014-09-10T14:37:39Z</time>
      </trkpt>
      <trkpt lat="43.41542" lon="6.06453">
        <ele>220</ele>
        <time>2014-09-10T14:37:40Z</time>
      </trkpt>
      <trkpt lat="43.41543" lon="6.06456">
        <ele>220</ele>
        <time>2014-09-10T14:37:41Z</time>
      </trkpt>
      <trkpt lat="43.41542" lon="6.0646">
        <ele>220</ele>
        <time>2014-09-10T14:37:42Z</time>
      </trkpt>
      <trkpt lat="43.41536" lon="6.06464">
        <ele>220</ele>
        <time>2014-09-10T14:37:45Z</time>
      </trkpt>
      <trkpt lat="43.41528" lon="6.06475">
        <ele>220</ele>
        <time>2014-09-10T14:37:48Z</time>
      </trkpt>
      <trkpt lat="43.41531" lon="6.06476">
        <ele>220</ele>
        <time>2014-09-10T14:37:49Z</time>
      </trkpt>
      <trkpt lat="43.41533" lon="6.06472">
        <ele>220</ele>
        <time>2014-09-10T14:37:50Z</time>
      </trkpt>
      <trkpt lat="43.41534" lon="6.06471">
        <ele>220</ele>
        <time>2014-09-10T14:37:51Z</time>
      </trkpt>
      <trkpt lat="43.41534" lon="6.06469">
        <ele>220</ele>
        <time>2014-09-10T14:37:52Z</time>
      </trkpt>
      <trkpt lat="43.41534" lon="6.06469">
        <ele>220</ele>
        <time>2014-09-10T14:37:54Z</time>
      </trkpt>
      <trkpt lat="43.41534" lon="6.06468">
        <ele>220</ele>
        <time>2014-09-10T14:37:59Z</time>
      </trkpt>
      <trkpt lat="43.41534" lon="6.06468">
        <ele>220</ele>
        <time>2014-09-10T14:38:02Z</time>
      </trkpt>
      <trkpt lat="43.41533" lon="6.06468">
        <ele>220</ele>
        <time>2014-09-10T14:38:03Z</time>
      </trkpt>
      <trkpt lat="43.4153" lon="6.06471">
        <ele>220</ele>
        <time>2014-09-10T14:38:05Z</time>
      </trkpt>
      <trkpt lat="43.41528" lon="6.06488">
        <ele>220</ele>
        <time>2014-09-10T14:38:09Z</time>
      </trkpt>
      <trkpt lat="43.41523" lon="6.06499">
        <ele>220</ele>
        <time>2014-09-10T14:38:11Z</time>
      </trkpt>
      <trkpt lat="43.41521" lon="6.06509">
        <ele>220</ele>
        <time>2014-09-10T14:38:13Z</time>
      </trkpt>
      <trkpt lat="43.41519" lon="6.06527">
        <ele>220</ele>
        <time>2014-09-10T14:38:17Z</time>
      </trkpt>
      <trkpt lat="43.41517" lon="6.06545">
        <ele>220</ele>
        <time>2014-09-10T14:38:20Z</time>
      </trkpt>
      <trkpt lat="43.41513" lon="6.06571">
        <ele>219.72003173828</ele>
        <time>2014-09-10T14:38:24Z</time>
      </trkpt>
      <trkpt lat="43.41506" lon="6.06618">
        <ele>219</ele>
        <time>2014-09-10T14:38:31Z</time>
      </trkpt>
      <trkpt lat="43.41502" lon="6.06644">
        <ele>219</ele>
        <time>2014-09-10T14:38:35Z</time>
      </trkpt>
      <trkpt lat="43.41498" lon="6.06661">
        <ele>219.06536865234</ele>
        <time>2014-09-10T14:38:38Z</time>
      </trkpt>
      <trkpt lat="43.41495" lon="6.06693">
        <ele>219.17523193359</ele>
        <time>2014-09-10T14:38:43Z</time>
      </trkpt>
      <trkpt lat="43.41495" lon="6.06725">
        <ele>219.27220153809</ele>
        <time>2014-09-10T14:38:48Z</time>
      </trkpt>
      <trkpt lat="43.41494" lon="6.06739">
        <ele>219.7003326416</ele>
        <time>2014-09-10T14:38:50Z</time>
      </trkpt>
      <trkpt lat="43.41494" lon="6.06746">
        <ele>219.89723205566</ele>
        <time>2014-09-10T14:38:51Z</time>
      </trkpt>
      <trkpt lat="43.41493" lon="6.06753">
        <ele>219.91430664062</ele>
        <time>2014-09-10T14:38:52Z</time>
      </trkpt>
      <trkpt lat="43.41492" lon="6.0676">
        <ele>219.72578430176</ele>
        <time>2014-09-10T14:38:53Z</time>
      </trkpt>
      <trkpt lat="43.41491" lon="6.06768">
        <ele>219.5548248291</ele>
        <time>2014-09-10T14:38:54Z</time>
      </trkpt>
      <trkpt lat="43.41487" lon="6.06791">
        <ele>219.46362304688</ele>
        <time>2014-09-10T14:38:57Z</time>
      </trkpt>
      <trkpt lat="43.4148" lon="6.0682">
        <ele>219.72454833984</ele>
        <time>2014-09-10T14:39:01Z</time>
      </trkpt>
      <trkpt lat="43.41476" lon="6.06831">
        <ele>219.86187744141</ele>
        <time>2014-09-10T14:39:03Z</time>
      </trkpt>
      <trkpt lat="43.41473" lon="6.06845">
        <ele>219.57929992676</ele>
        <time>2014-09-10T14:39:06Z</time>
      </trkpt>
      <trkpt lat="43.41472" lon="6.06849">
        <ele>219.44276428223</ele>
        <time>2014-09-10T14:39:07Z</time>
      </trkpt>
      <trkpt lat="43.41471" lon="6.06857">
        <ele>219.14750671387</ele>
        <time>2014-09-10T14:39:09Z</time>
      </trkpt>
      <trkpt lat="43.41473" lon="6.06867">
        <ele>218.78234863281</ele>
        <time>2014-09-10T14:39:13Z</time>
      </trkpt>
      <trkpt lat="43.41473" lon="6.06874">
        <ele>218.52790832519</ele>
        <time>2014-09-10T14:39:17Z</time>
      </trkpt>
      <trkpt lat="43.41473" lon="6.06873">
        <ele>218.53689575195</ele>
        <time>2014-09-10T14:39:19Z</time>
      </trkpt>
      <trkpt lat="43.41473" lon="6.06874">
        <ele>218.49742126465</ele>
        <time>2014-09-10T14:39:25Z</time>
      </trkpt>
      <trkpt lat="43.41473" lon="6.06879">
        <ele>218.3327331543</ele>
        <time>2014-09-10T14:39:28Z</time>
      </trkpt>
      <trkpt lat="43.41472" lon="6.06882">
        <ele>218.23579406738</ele>
        <time>2014-09-10T14:39:29Z</time>
      </trkpt>
      <trkpt lat="43.41471" lon="6.06895">
        <ele>218</ele>
        <time>2014-09-10T14:39:33Z</time>
      </trkpt>
      <trkpt lat="43.41473" lon="6.06901">
        <ele>217.99365234375</ele>
        <time>2014-09-10T14:39:35Z</time>
      </trkpt>
      <trkpt lat="43.41473" lon="6.06904">
        <ele>217.99195861816</ele>
        <time>2014-09-10T14:39:36Z</time>
      </trkpt>
      <trkpt lat="43.41472" lon="6.06907">
        <ele>217.99948120117</ele>
        <time>2014-09-10T14:39:37Z</time>
      </trkpt>
      <trkpt lat="43.41471" lon="6.0691">
        <ele>218</ele>
        <time>2014-09-10T14:39:38Z</time>
      </trkpt>
      <trkpt lat="43.4147" lon="6.06914">
        <ele>218</ele>
        <time>2014-09-10T14:39:39Z</time>
      </trkpt>
      <trkpt lat="43.41464" lon="6.06933">
        <ele>218</ele>
        <time>2014-09-10T14:39:45Z</time>
      </trkpt>
      <trkpt lat="43.41474" lon="6.06945">
        <ele>217.89947509766</ele>
        <time>2014-09-10T14:39:49Z</time>
      </trkpt>
      <trkpt lat="43.41484" lon="6.06962">
        <ele>217.21148681641</ele>
        <time>2014-09-10T14:39:53Z</time>
      </trkpt>
      <trkpt lat="43.41487" lon="6.06966">
        <ele>217.09922790527</ele>
        <time>2014-09-10T14:39:54Z</time>
      </trkpt>
      <trkpt lat="43.41492" lon="6.06971">
        <ele>217.01681518555</ele>
        <time>2014-09-10T14:39:56Z</time>
      </trkpt>
      <trkpt lat="43.41495" lon="6.0697">
        <ele>217.01333618164</ele>
        <time>2014-09-10T14:39:57Z</time>
      </trkpt>
      <trkpt lat="43.41501" lon="6.06972">
        <ele>217.04449462891</ele>
        <time>2014-09-10T14:40:01Z</time>
      </trkpt>
      <trkpt lat="43.41503" lon="6.06972">
        <ele>217.09942626953</ele>
        <time>2014-09-10T14:40:02Z</time>
      </trkpt>
      <trkpt lat="43.41511" lon="6.06974">
        <ele>217.40155029297</ele>
        <time>2014-09-10T14:40:06Z</time>
      </trkpt>
      <trkpt lat="43.41513" lon="6.06974">
        <ele>217.48394775391</ele>
        <time>2014-09-10T14:40:07Z</time>
      </trkpt>
      <trkpt lat="43.41533" lon="6.06971">
        <ele>218</ele>
        <time>2014-09-10T14:40:12Z</time>
      </trkpt>
      <trkpt lat="43.41549" lon="6.06968">
        <ele>218</ele>
        <time>2014-09-10T14:40:17Z</time>
      </trkpt>
      <trkpt lat="43.41562" lon="6.06966">
        <ele>218.22802734375</ele>
        <time>2014-09-10T14:40:23Z</time>
      </trkpt>
      <trkpt lat="43.41568" lon="6.06967">
        <ele>218.43402099609</ele>
        <time>2014-09-10T14:40:27Z</time>
      </trkpt>
      <trkpt lat="43.41568" lon="6.06969">
        <ele>218.46148681641</ele>
        <time>2014-09-10T14:40:28Z</time>
      </trkpt>
      <trkpt lat="43.41572" lon="6.06982">
        <ele>218.58508300781</ele>
        <time>2014-09-10T14:40:32Z</time>
      </trkpt>
      <trkpt lat="43.41573" lon="6.06986">
        <ele>218.62628173828</ele>
        <time>2014-09-10T14:40:33Z</time>
      </trkpt>
      <trkpt lat="43.41574" lon="6.07009">
        <ele>218.68121337891</ele>
        <time>2014-09-10T14:40:39Z</time>
      </trkpt>
      <trkpt lat="43.41576" lon="6.07023">
        <ele>218.74987792969</ele>
        <time>2014-09-10T14:40:43Z</time>
      </trkpt>
      <trkpt lat="43.41577" lon="6.07031">
        <ele>218.77734375</ele>
        <time>2014-09-10T14:40:46Z</time>
      </trkpt>
      <trkpt lat="43.41578" lon="6.07034">
        <ele>218.79107666016</ele>
        <time>2014-09-10T14:40:48Z</time>
      </trkpt>
      <trkpt lat="43.41578" lon="6.07035">
        <ele>218.81854248047</ele>
        <time>2014-09-10T14:40:51Z</time>
      </trkpt>
    </trkseg>
  </trk>
</gpx>